     2              OBSERVATION DATA    GPS                 RINEX VERSION / TYPE
teqc 1997Jun30 19970702                                     PGM / RUN BY / DATE
                                                            COMMENT
Original Marker Name: DBAR                                  COMMENT
Campaign Name: HMC San Gabriel Valley 1993-1996             COMMENT
4-Character Station Name: DBAR                              COMMENT
6-Character Antenna Code: DMRCHT                            COMMENT
Vertical Measurement Point: BPA                             COMMENT
Vertical Offset to Rinex Ref. Point: 0.0000                 COMMENT
Radial Measurement Point: RRP                               COMMENT
Radial Offset to Rinex Ref. Point: 0.0000                   COMMENT
Antenna Height from Field Measurement: 0.0610 m             COMMENT
Additional Antenna Identification Info.:                    COMMENT
Turborogue and Ashtech Choke Ring                           COMMENT
Original XYZ: -2454064.3028 -4676378.6112 3567257.6637      COMMENT
New XYZ position is based on association with SCEC monument COMMENT
E1D0Q1V7+0011. Position of that monument is believed to be  COMMENT
valid to within 1 m horizontally; vertical accuracy         COMMENT
should be no worse than 3-times this value.                 COMMENT
                                                            COMMENT
Revised Rinex header created by UCSD GPS archive for        COMMENT
GSAC on 12-Apr-1999 (1999:102) 20:36:45 GMT                 COMMENT
For assistance contact dagnew@ucsd.edu or hjohnson@ucsd.edu COMMENT
                                                            COMMENT
DIAMOND BAR                                                 MARKER NAME
GAL HARVEY MUDD COLLEGE                                     OBSERVER / AGENCY
262 TURBOROGUE SNR-8000 3.2                                 REC # / TYPE / VERS
329 DORNE-MARGOL. TYPE T                                    ANT # / TYPE
 -2468387.0000 -4682607.0000  3546949.0000                  APPROX POSITION XYZ
        0.0610        0.0000        0.0000                  ANTENNA: DELTA H/E/N
     1     1     0                                          WAVELENGTH FACT L1/2
     5    L1    L2    C1    P2    P1                        # / TYPES OF OBSERV
     0                                                      INTERVAL
  1996     7    10     0     0    0.000000                  TIME OF FIRST OBS
  1996     7    10    23    59   30.000000                  TIME OF LAST OBS
     0                                                      # OF SATELLITES
                                                            END OF HEADER
 96  7 10  0  0  0.0000000  0  8G17G 6G 3G28G21G 1G23G26
 -16021133.76744 -12483990.58944  21076403.4544   21076404.7004
  15024026.32744  11707016.46744  24724622.1654   24724628.9854
 -18328369.73444 -14281840.19044  21813518.2314   21813519.9334
 -24889963.512 4 -19394770.318 4  20607212.208    20607211.405
 -23176649.88544 -18059705.44044  21197463.1214   21197464.9744
 -13803516.37144 -10755968.25744  22559098.3414   22559101.0764
 -22187122.46244 -17288640.66244  21044292.2864   21044293.3974
  -3322631.59444  -2589045.83444  24409967.5654   24409969.9654
 96  7 10  0  0 30.0000000  0  8G17G 6G 3G28G21G 1G23G26
 -15983361.28544 -12454557.49844  21083591.4194   21083592.9864
  15140143.11344  11797496.83444  24746718.2594   24746722.3784
 -18380262.28944 -14322275.94844  21803643.3454   21803644.8504
 -24871606.609 4 -19380466.251 4  20610705.485    20610704.574
 -23207434.41244 -18083693.36644  21191604.9284   21191606.7074
 -13902525.06644 -10833117.83044  22540257.7884   22540260.8904
 -22153460.67444 -17262410.70444  21050697.8874   21050698.9924
  -3223545.44044  -2511835.85344  24428822.9694   24428825.7954
 96  7 10  0  1  0.0000000  0  8G17G 6G 3G28G21G 1G23G26
 -15945271.92344 -12424877.49244  21090839.6314   21090841.1304
  15256278.14244  11887991.38944  24768818.3464   24768824.3604
 -18431636.93644 -14362308.14644  21793867.3224   21793868.6844
 -24852632.450 4 -19365681.205 4  20614316.131    20614315.309
 -23237976.02144 -18107492.00744  21185793.0924   21185794.8744
 -14001288.16144 -10910076.01644  22521463.9954   22521466.9564
 -22119604.25144 -17236029.08444  21057140.5324   21057141.5884
  -3124248.49644  -2434461.66844  24447718.4684   24447719.6764
 96  7 10  0  1 30.0000000  0  8G17G 6G 3G28G21G 1G23G26
 -15906853.27644 -12394940.89844  21098150.4024   21098152.0944
  15372423.44944  11978493.97444  24790920.0084   24790928.1994
 -18482499.78544 -14401941.54244  21784188.4614   21784190.0544
 -24833039.155 4 -19350413.715 4  20618044.570    20618043.827
 -23268289.01744 -18131112.50844  21180024.7664   21180026.3744
 -14099804.03244 -10986841.57144  22502717.0444   22502719.5044
 -22085536.96744 -17209483.15544  21063623.3674   21063624.4384
  -3024726.27144  -2356911.90644  24466657.2244   24466659.0534
 96  7 10  0  2  0.0000000  0  8G17G 6G 3G28G21G 1G23G26
 -15868118.45744 -12364757.93144  21105521.4214   21105522.9784
  15488575.86444  12069002.08744  24813023.3644   24813030.7524
 -18532858.03644 -14441181.74044  21774605.5064   21774607.2084
 -24812843.654 4 -19334676.973 4  20621887.660    20621886.877
 -23298389.86944 -18154567.69944  21174296.6404   21174298.4064
 -14198088.81644 -11063427.05944  22484013.9674   22484016.4044
 -22051280.98244 -17182790.18744  21070142.0734   21070143.2624
  -2924969.23644  -2279179.18644  24485640.2224   24485642.3584
 96  7 10  0  2 30.0000000  0  8G17G 6G 3G28G21G 1G23G26
 -15829035.60744 -12334303.77744  21112958.7394   21112960.2564
  15604750.63844  12159527.64744  24835130.6474   24835139.5824
 -18582685.84444 -14480008.60344  21765123.5024   21765125.0694
 -24792033.595 4 -19318461.356 4  20625847.690    20625846.913
 -23328275.96244 -18177855.54944  21168609.4724   21168611.3554
 -14296101.69344 -11139800.66944  22465362.6644   22465365.6344
 -22016824.24644 -17155940.78644  21076698.9034   21076700.1514
  -2824972.63344  -2201259.78844  24504669.0614   24504669.0444
 96  7 10  0  3  0.0000000  0  8G17G 6G 3G28G21G 1G23G26
 -15789588.54844 -12303565.82244  21120465.1944   21120466.7374
  15720953.21944  12250074.86144  24857243.2954   24857246.5204
 -18631966.76544 -14518409.31944  21755745.8674   21755747.5744
 -24770605.049 4 -19301763.801 4  20629925.412    20629924.603
 -23357932.40844 -18200964.45144  21162966.1254   21162967.8294
 -14393830.52044 -11215952.94544  22446765.5184   22446767.8634
 -21982166.54344 -17128934.79144  21083294.1184   21083295.2304
  -2724751.15044  -2123165.16844  24523740.5834   24523741.7164
 96  7 10  0  3 30.0000000  0  8G17G 6G 3G28G21G 1G23G26
 -15749784.41144 -12272549.62344  21128039.6894   21128041.3754
  15837179.61144  12340640.62744  24879360.5194   24879367.3724
 -18680681.88744 -14556369.15944  21746475.5204   21746477.1574
 -24748562.128 4 -19284587.512 4  20634120.048    20634119.214
 -23387342.36444 -18223881.28444  21157369.5554   21157371.2414
 -14491292.13444 -11291897.00144  22428219.2974   22428221.5054
 -21947330.61144 -17101789.91544  21089923.1084   21089924.2754
  -2624325.19644  -2044911.20044  24542850.5904   24542850.9514
 96  7 10  0  4  0.0000000  0  8G17G 6G 3G28G21G 1G23G26
 -15709648.03944 -12241274.54744  21135677.3254   21135678.7514
  15953415.07044  12431213.49344  24901479.5324   24901488.2194
 -18728835.24444 -14593891.25844  21737312.2264   21737313.7874
 -24725920.590 4 -19266944.767 4  20638428.618    20638427.793
 -23416508.77144 -18246608.34344  21151819.3294   21151820.9984
 -14588489.46144 -11367635.12344  22409723.0714   22409725.9284
 -21912344.10844 -17074527.71344  21096580.7874   21096582.0824
  -2523726.66544  -1966522.77244  24561994.3024   24561996.0954
 96  7 10  0  4 30.0000000  0  8G17G 6G 3G28G21G 1G23G26
 -15669181.62244 -12209742.28944  21143377.9414   21143379.4404
  16069660.58544  12521794.18544  24923600.6094   24923604.8004
 -18776420.33744 -14630970.55244  21728257.1684   21728258.8064
 -24702668.292 4 -19248826.108 4  20642853.448    20642852.634
 -23445419.66544 -18269136.30044  21146317.8384   21146319.3604
 -14685411.10444 -11443158.43644  22391279.2604   22391282.3194
 -21877181.36644 -17047128.18144  21103272.0654   21103273.2094
  -2422952.31644  -1887997.33744  24581171.1004   24581173.4974
 96  7 10  0  5  0.0000000  0  8G17G 6G 3G28G21G 1G23G26
 -15628436.74644 -12177993.05344  21151131.3854   21151132.7124
  16185875.66944  12612351.18344  24945715.8074   24945725.2404
 -18823478.91244 -14667639.57244  21719302.1634   21719303.7074
 -24678843.302 4 -19230261.195 4  20647387.224    20647386.456
 -23474111.99044 -18291493.94244  21140857.9014   21140859.5644
 -14782109.96744 -11518508.15244  22372877.9484   22372880.6354
 -21841871.82644 -17019614.25944  21109991.2514   21109992.3894
  -2322038.96944  -1809363.59044  24600374.0664   24600374.0394
 96  7 10  0  5 30.0000000  0  8G17G 6G 3G28G21G 1G23G26
 -15587418.42244 -12146030.73744  21158936.8284   21158938.3474
  16302052.66544  12702878.48644  24967823.9824   24967830.8674
 -18870006.51344 -14703894.84744  21710448.3104   21710449.9284
 -24654437.665 4 -19211243.828 4  20652031.462    20652030.693
 -23502589.51244 -18313684.20344  21135438.6954   21135440.2654
 -14878569.21744 -11593671.15444  22354522.4894   22354525.6564
 -21806396.65944 -16991971.27644  21116742.0474   21116743.2024
  -2220977.04944  -1730614.06644  24619605.7594   24619606.9194
 96  7 10  0  6  0.0000000  0  8G17G 6G 3G28G21G 1G23G26
 -15546075.97644 -12113815.85244  21166804.1364   21166805.6574
  16418233.40044  12793408.69644  24989932.6034   24989938.5254
 -18915979.13544 -14739717.66644  21701699.9564   21701701.5184
 -24629409.710 4 -19191741.538 4  20656794.151    20656793.312
 -23530820.27744 -18335682.19344  21130066.5174   21130068.1724
 -14974724.05344 -11668596.95044  22336224.8644   22336227.3934
 -21770712.31844 -16964165.30344  21123532.5014   21123533.6974
  -2119724.61544  -1651716.10844  24638873.5404   24638875.8974
 96  7 10  0  6 30.0000000  0  8G17G 6G 3G28G21G 1G23G26
 -15504405.96544 -12081345.72644  21174733.7384   21174735.2214
  16534408.95844  12883934.92144  25012040.3134   25012048.5044
 -18961396.41944 -14775107.75844  21693057.3364   21693059.0044
 -24603763.966 4 -19171757.855 4  20661674.371    20661673.450
 -23558827.67144 -18357506.12744  21124736.8234   21124738.6444
 -15070568.96644 -11743281.25344  22317986.1324   22317989.0724
 -21734823.37544 -16936199.90044  21130361.8864   21130363.1514
  -2018286.16444  -1572673.18644  24658176.5854   24658180.0374
 96  7 10  0  7  0.0000000  0  8G17G 6G 3G28G21G 1G23G26
 -15462418.15844 -12048627.97444  21182723.7364   21182725.1244
  16650567.02344  12974447.45644  25034145.0054   25034150.5044
 -19006264.23944 -14810069.69544  21684519.3234   21684520.9194
 -24577517.365 4 -19151305.972 4  20666668.923    20666668.001
 -23586626.73944 -18379167.73444  21119446.9394   21119448.6014
 -15166107.38544 -11817726.72544  22299805.6314   22299807.8124
 -21698754.13844 -16908094.00844  21137225.6764   21137226.7364
  -1916682.45944  -1493501.48644  24677511.0694   24677513.5754
 96  7 10  0  7 30.0000000  0  8G17G 6G 3G28G21G 1G23G26
 -15420096.23344 -12015649.86644  21190777.3044   21190778.8494
  16766722.31544  13064957.88044  25056248.6564   25056256.4834
 -19050568.98744 -14844592.88044  21676088.4314   21676089.9544
 -24550659.978 4 -19130378.153 4  20671779.680    20671778.862
 -23614203.56644 -18400656.16444  21114199.2034   21114200.7374
 -15261319.89344 -11891918.24644  22281687.4114   22281690.1374
 -21662502.16144 -16879845.71944  21144124.2354   21144125.3344
  -1814899.51444  -1414190.14344  24696879.9394   24696880.6344
 96  7 10  0  8  0.0000000  0  8G17G 6G 3G28G21G 1G23G26
 -15377460.22344 -11982427.01344  21198890.5854   21198892.2494
  16882869.05144  13155461.60644  25078350.7484   25078357.1264
 -19094328.64244 -14878691.30744  21667761.2414   21667762.8904
 -24523211.589 4 -19108989.816 4  20677002.987    20677002.078
 -23641564.11844 -18421976.06844  21108992.6774   21108994.3644
 -15356237.15344 -11965879.69744  22263625.2994   22263627.6034
 -21626091.51144 -16851473.78844  21151052.8944   21151053.9384
  -1712957.14744  -1334754.55344  24716278.7784   24716280.8344
 96  7 10  0  8 30.0000000  0  8G17G 6G 3G28G21G 1G23G26
 -15334526.20444 -11948971.95044  21207060.6864   21207062.4264
  16999004.52944  13245956.61244  25100450.5874   25100458.2584
 -19137536.15744 -14912359.49744  21659539.0974   21659540.6274
 -24495173.328 4 -19087141.837 4  20682338.481    20682337.630
 -23668701.69244 -18443122.22044  21103828.5394   21103830.1194
 -15450870.76044 -12039620.12344  22245617.0434   22245619.6384
 -21589515.77144 -16822973.21644  21158013.0544   21158014.1954
  -1610853.28144  -1255193.12444  24735708.6704   24735710.2924
 96  7 10  0  9  0.0000000  0  8G17G 6G 3G28G21G 1G23G26
 -15291276.77244 -11915271.11044  21215290.8144   21215292.3224
  17115139.18444  13336450.95444  25122550.2744
 -19180191.58844 -14945597.49244  21651422.0004   21651423.3824
 -24466539.339 4 -19064829.655 4  20687787.302    20687786.590
 -23695585.95744 -18464070.99244  21098712.7234   21098714.3024
 -15545224.49044 -12113142.46644  22227662.1884   22227664.3744
 -21552771.25744 -16794341.13344  21165005.2484   21165006.7614
  -1508579.60644  -1175499.39144  24755170.5924   24755171.0454
 96  7 10  0  9 30.0000000  0  8G17G 6G 3G28G21G 1G23G26
 -15247703.32344 -11881317.79044  21223582.6184   21223583.9944
  17231263.17544  13426936.99844  25144647.7834   25144655.7254
 -19222296.03644 -14978406.14744  21643409.8024   21643411.4654
 -24437311.033 4 -19042054.373 4  20693349.255    20693348.579
 -23722214.95444 -18484820.85444  21093645.2484   21093646.8374
 -15639303.86244 -12186451.02744  22209759.4604   22209761.7904
 -21515870.44144 -16765587.26144  21172027.2384   21172028.5304
  -1406142.54144  -1095678.32744  24774663.8224   24774665.5084
 96  7 10  0 10  0.0000000  0  8G17G 6G 3G28G21G 1G23G26
 -15203801.05744 -11847108.24844  21231936.9434   21231938.6044
  17347366.61144  13517406.95244  25166742.0024   25166747.2384
 -19263853.40344 -15010788.50644  21635501.6154   21635503.2154
 -24407491.375 4 -19018818.296 4  20699023.874    20699023.070
 -23748578.32644 -18505363.73444  21088628.5304   21088630.2154
 -15733106.13844 -12259543.67044  22191909.3714   22191911.6594
 -21478820.01444 -16736716.80844  21179077.6884   21179078.9934
  -1303541.01244  -1015729.11644  24794188.4644   24794190.4914
 96  7 10  0 10 30.0000000  0  8G17G 6G 3G28G21G 1G23G26
 -15159571.58844 -11812643.74344  21240353.5764   21240355.1114
  17463425.11644  13607841.99444  25188827.1774   25188834.4964
 -19304878.07944 -15042755.78044  21627695.0104   21627696.7044
 -24377098.766 4 -18995135.763 4  20704807.579    20704806.618
 -23774702.29744 -18525720.06944  21083657.3824   21083658.8934
 -15826633.20244 -12332421.86344  22174111.7114   22174114.4044
 -21441630.38744 -16707737.88444  21186154.6954   21186155.9024
  -1200796.45744   -935668.45744  24813740.0364   24813741.1094
 96  7 10  0 11  0.0000000  0  8G17G 6G 3G28G21G 1G23G26
 -15114992.33944 -11777906.68644  21248836.8754   21248838.1904
  17579456.28044  13698255.68144  25210907.2104   25210916.6424
 -19345345.49144 -15074288.82644  21619994.3654   21619995.9264
 -24346116.248 4 -18970993.561 4  20710703.367    20710702.397
 -23800574.48444 -18545880.20944  21078733.9924   21078735.5714
 -15919861.37044 -12405067.14544  22156370.8444   22156373.3474
 -21404285.61144 -16678638.06544  21193261.1124   21193262.5274
  -1097899.41944   -855488.93244  24833320.6814   24833322.5514
 96  7 10  0 11 30.0000000  0  8G17G 6G 3G28G21G 1G23G26
 -15070083.15444 -11742912.53344  21257382.7964   21257384.3174
  17695468.21844  13788654.36944  25232983.7524   25232989.4584
 -19385247.61244 -15105381.38444  21612401.1714   21612402.7764
 -24314536.452 4 -18946385.946 4  20716712.613    20716711.779
 -23826203.95844 -18565851.22344  21073856.7614   21073858.3564
 -16012778.78844 -12477470.29044  22138689.1934   22138691.5584
 -21366767.53344 -16649403.20744  21200400.6504   21200401.8024
   -994844.50244   -775186.45244  24852931.1674   24852932.5324
 96  7 10  0 12  0.0000000  0  8G17G 6G 3G28G21G 1G23G26
 -15024907.25144 -11707710.54944  21265979.4774   21265981.0974
  17811402.94844  13878992.92144  25255045.7714
 -19424630.30144 -15136069.19144  21604906.7734   21604908.4394
 -24282409.923 4 -18921352.308 4  20722826.077    20722825.317
 -23851653.00444 -18585681.64544  21069013.9374   21069015.5424
 -16105428.43144 -12549664.77744  22121058.3574   22121061.2504
 -21329105.58044 -16620056.23944  21207567.4574   21207568.6694
   -891676.56644   -694795.87044  24872563.5314   24872566.3374
 96  7 10  0 12 30.0000000  0  8G17G 6G 3G28G21G 1G23G26
 -14979431.26044 -11672274.72844  21274633.1044   21274634.9764
  17927286.87644  13969291.88944  25277097.9604   25277101.4684
 -19463444.64144 -15166314.12944  21597520.7454   21597522.3144
 -24249700.922 4 -18895864.791 4  20729050.519    20729049.611
 -23876910.12244 -18605362.50844  21064207.6594   21064209.4504
 -16197777.34544 -12621624.92744  22103484.9854   22103487.2364
 -21291263.21144 -16590568.68844  21214768.5484   21214769.8694
   -788366.96244   -614294.89144  24892222.5994   24892222.0684
 96  7 10  0 13  0.0000000  0  7G17G 3G28G21G 1G23G26
 -14933626.58544 -11636582.78544  21283349.4034   21283351.2004
 -19501651.00444 -15196085.32244  21590250.3374   21590251.8894
 -24216370.040 4 -18869892.692 4  20735393.250    20735392.158
 -23901939.64944 -18624866.02844  21059444.7704   21059446.5974
 -16289791.00344 -12693323.84744  22085975.3934   22085977.9444
 -21253218.77044 -16560923.67544  21222008.2584   21222009.6594
   -684873.23644   -533650.49444  24911916.6304   24911918.3374
 96  7 10  0 13 30.0000000  0  7G17G 3G28G21G 1G23G26
 -14887549.50644 -11600678.58244  21292117.6574   21292119.5504
 -19539310.58844 -15225430.44944  21583083.7204   21583085.3934
 -24182480.819 4 -18843485.527 4  20741842.124    20741841.070
 -23926808.35344 -18644244.23444  21054712.4034   21054714.1164
 -16381533.78944 -12764811.69244  22068517.3314   22068520.1234
 -21215050.56644 -16531182.22944  21229271.4524   21229272.9274
   -581255.77844   -452909.62244  24931634.5764   24931639.7904
 96  7 10  0 14  0.0000000  0  8G17G31G 3G28G21G 1G23G26
 -14841116.82644 -11564497.28944  21300953.5434   21300955.3014
        -0.10454         1.08854  23925755.5994   23925757.1074
 -19576359.19644 -15254299.49144  21576033.7464   21576035.3394
 -24147982.314 4 -18816603.597 4  20748406.886    20748405.940
 -23951451.32044 -18663446.54244  21050022.9974   21050024.6664
 -16472953.05244 -12836047.44844  22051120.6314   22051122.9004
 -21176727.98344 -16501320.48844  21236564.0194   21236565.2534
   -477465.43244   -372034.04944  24951385.2864   24951389.2034
 96  7 10  0 14 30.0000000  0  8G17G31G 3G28G21G 1G23G26
 -14794336.69044 -11528045.25044  21309855.4424   21309857.1374
    -85504.57344    -66625.74944  23909484.3984   23909487.4614
 -19612822.38944 -15282712.37144  21569095.1184   21569096.6944
 -24112895.071 4 -18789262.909 4  20755083.839    20755082.874
 -23975868.46944 -18682472.88944  21045376.5544   21045378.2314
 -16564068.72044 -12907046.63144  22033781.9384   22033784.7304
 -21138288.32944 -16471367.51844  21243878.7784   21243879.9814
   -373539.35344   -291052.75044  24971161.7804   24971161.0994
 96  7 10  0 15  0.0000000  0  8G17G31G 3G28G21G 1G23G26
 -14747228.22544 -11491337.37444  21318819.9824   21318821.6364
   -170681.18744   -132997.10144  23893276.5314   23893276.9374
 -19648729.79244 -15310692.17244  21562262.1464   21562263.5864
 -24077238.174 4 -18761478.333 4  20761869.192    20761868.306
 -24000057.80644 -18701321.71744  21040773.4714   21040775.0984
 -16654894.28344 -12977819.76244  22016498.5114   22016500.7744
 -21099739.90744 -16441329.79244  21251214.3874   21251215.5354
   -269512.54944   -209992.93544  24990957.3984   24990959.6624
 96  7 10  0 15 30.0000000  0  8G17G31G 3G28G21G 1G23G26
 -14699772.88944 -11454359.21044  21327850.5144   21327852.1284
   -255514.96244   -199101.31644  23877133.5274   23877136.5464
 -19684070.74944 -15338230.58044  21555537.0204   21555538.4884
 -24041005.881 4 -18733245.398 4  20768763.922    20768763.149
 -24024002.54044 -18719979.94344  21036217.0224   21036218.7624
 -16745416.66644 -13048356.65044  21999272.5404   21999274.8794
 -21061057.27544 -16411187.49344  21258575.4014   21258576.4694
   -165389.72944   -128858.29944  25010771.2654   25010774.9554
 96  7 10  0 16  0.0000000  0  8G17G31G 3G28G21G 1G23G26
 -14651985.27444 -11417122.12744  21336944.2044   21336945.6914
   -340026.22344   -264954.21544  23861051.4134   23861050.9534
 -19718861.74744 -15365340.45144  21548916.6694   21548918.0744
 -24004210.200 4 -18704573.459 4  20775765.839    20775765.182
 -24047706.48144 -18738450.53844  21031706.2814   21031707.7704
 -16835621.87944 -13118646.39044  21982106.9124   21982109.6824
 -21022229.51944 -16380932.10844  21265964.1344   21265965.3794
    -61188.23444    -47662.34944  25030600.4584   25030604.1394
 96  7 10  0 16 30.0000000  0  8G17G31G 3G28G21G 1G23G26
 -14603867.26344 -11379627.59244  21346100.7164   21346102.4714
   -424200.97144   -330544.90044  23845033.4904   23845034.4074
 -19753097.40344 -15392017.59144  21542401.7134   21542403.1854
 -23966833.705 4 -18675448.936 4  20782878.347    20782877.648
 -24071160.78944 -18756726.61444  21027242.9364   21027244.5434
 -16925474.83244 -13188661.64144  21965008.5094   21965011.0224
 -20983217.05944 -16350532.79544  21273387.9354   21273388.9884
     43102.87044     33603.43644  25050445.9524   25050446.6104
 96  7 10  0 17  0.0000000  0  8G17G31G 3G28G21G 1G23G26
 -14555403.38144 -11341863.54244  21355323.0284   21355324.8034
   -508019.25244   -395857.81544  23829083.4864   23829085.6904
 -19786753.48344 -15418243.11044  21535996.9934   21535998.6074
 -23928865.027 4 -18645862.970 4  20790103.653    20790102.776
 -24094373.26544 -18774814.25144  21022825.8294   21022827.1884
 -17014956.83944 -13258387.84644  21947980.7424   21947982.9774
 -20943994.74444 -16319969.95744  21280851.6384   21280852.8784
    147512.95044    114961.93544  25070314.8454   25070316.7034
 96  7 10  0 17 30.0000000  0  8G17G31G 3G28G21G 1G23G26
 -14506593.83744 -11303830.14244  21364611.1864   21364612.8004
   -591476.40044   -460889.32444  23813201.6684   23813203.8624
 -19819817.95144 -15444007.63344  21529705.0094   21529706.7834
 -23890306.565 4 -18615817.432 4  20797441.096    20797440.241
 -24117349.75644 -18792718.00744  21018453.5654   21018455.1164
 -17104055.03744 -13327814.97744  21931025.9254   21931028.6024
 -20904581.97544 -16289258.71344  21288351.6504   21288352.8964
    252069.71944    196434.68244  25090211.5004
 96  7 10  0 18  0.0000000  0  8G17G31G 3G28G21G 1G23G26
 -14457450.01144 -11265536.27244  21373962.9444   21373964.5434
   -674572.98544   -525639.86644  23797388.7784   23797390.4034
 -19852300.96544 -15469319.07444  21523523.7514   21523525.3364
 -23851164.326 4 -18585317.002 4  20804889.631    20804888.763
 -24140094.66444 -18810441.30744  21014125.3514   21014127.0324
 -17192778.69044 -13396950.25744  21914142.4174   21914144.9524
 -20864995.29044 -16258411.93944  21295884.7794   21295886.1494
    356784.34344    278030.47644  25110137.6764
 96  7 10  0 18 30.0000000  0  8G17G31G 3G28G21G 1G23G26
 -14407970.94344 -11226981.17244  21383378.4204   21383380.0184
   -757286.92944   -590092.27544  23781648.8314   23781652.6424
 -19884199.56044 -15494175.12644  21517453.6864   21517455.3144
 -23811442.400 4 -18554364.867 4  20812448.539    20812447.505
 -24162610.63344 -18827986.20744  21009840.6494   21009842.2094
 -17281159.01044 -13465818.00444  21897324.1514   21897326.3914
 -20825250.52544 -16227441.99344  21303447.9974   21303449.2864
    461652.23244    359745.71444  25130093.7894   25130095.7744
 96  7 10  0 19  0.0000000  0  8G17G31G 3G28G21G 1G23G26
 -14358171.23644 -11188176.22544  21392855.1704   21392856.7424
   -839636.59144   -654260.80044  23765978.2274   23765980.5254
 -19915507.23344 -15518570.72144  21511496.0454   21511497.5424
 -23771161.578 4 -18522977.229 4  20820113.772    20820112.685
 -24184911.08444 -18845363.16944  21005596.9754   21005598.4754
 -17369233.51344 -13534447.45744  21880564.2124   21880566.1614
 -20785386.11844 -16196378.84344  21311033.9764   21311035.1804
    566657.61444                  25150075.3864
 96  7 10  0 19 30.0000000  0  8G17G31G 3G28G21G 1G23G26
 -14308069.36744 -11149135.83044  21402389.2614   21402390.7834
   -921634.59344   -718155.31944  23750374.5714   23750376.8454
 -19946237.33144 -15542516.25944  21505648.3544   21505649.8664
 -23730330.399 4 -18491160.744 4  20827883.640    20827882.693
 -24206989.26544 -18862566.93944  21001395.6204   21001397.1394
 -17457012.26544 -13602846.45144  21863860.2994   21863862.4914
 -20745416.94744 -16165234.04344  21318639.8504   21318641.0074
    671769.55944    523473.43344  25170077.8524   25170081.0084
 96  7 10  0 20  0.0000000  0  8G17G31G 3G28G21G 1G23G26
 -14257660.79244 -11109856.43744  21411981.6714   21411983.3174
  -1003272.94944   -781769.58544  23734839.3974   23734840.6334
 -19976387.16944 -15566009.64444  21499911.0804   21499912.5704
 -23688938.873 4 -18458907.628 4  20835760.173    20835759.242
 -24228843.68544 -18879596.34544  20997236.8964   20997238.5014
 -17544494.14944 -13671014.12444  21847212.8114   21847215.1444
 -20705317.99244 -16133988.10644  21326270.3304   21326271.6014
    776964.57244    605443.52144  25190095.7094   25190097.3454
 96  7 10  0 20 30.0000000  0  8G17G31G 3G28G21G 1G23G26
 -14206935.01444 -11070329.87744  21421634.3784   21421635.8954
  -1084547.19444   -845100.12744  23719373.3184   23719375.0154
 -20005937.90644 -15589036.19844  21494287.6724   21494289.3524
 -23646981.443 4 -18426213.547 4  20843744.486    20843743.502
 -24250478.20744 -18896454.40544  20993119.8994   20993121.4854
 -17631660.31344 -13738935.78144  21830625.5414   21830627.8664
 -20665080.56644 -16102634.27044  21333927.2344   21333928.5944
    882230.07444    687468.63344  25210126.8784
 96  7 10  0 21  0.0000000  0  8G17G31G 3G28G21G 1G23G26
 -14155908.96544 -11030569.34044  21431344.3424   21431345.9264
  -1165481.00844   -908165.41744  23703971.8584   23703972.3744
 -20034914.86344 -15611615.64744  21488773.4944   21488774.9974
 -23604477.242 4 -18393093.410 4  20851832.825    20851831.848
 -24271918.53344 -18913161.14644  20989039.9154   20989041.6844
 -17718502.25944 -13806604.79544  21814100.1464   21814102.4744
 -20624712.85044 -16071178.91744  21341608.9844   21341610.3394
    987549.86544    769535.94744  25230169.1394
 96  7 10  0 21 30.0000000  0  8G17G31G 3G28G21G 1G23G26
 -14104550.82944 -10990550.03944  21441117.6434   21441119.0614
  -1246032.15844   -970932.51344  23688643.2914   23688644.8864
 -20063321.64544 -15633750.80644  21483368.0224   21483369.3534
 -23561400.381 4 -18359527.044 4  20860030.039    20860029.171
 -24293144.15444 -18929700.59044  20985000.7404   20985002.7544
 -17804974.28844 -13873985.56344  21797644.9954   21797647.4304
 -20584172.90544 -16039589.35744  21349323.4574   21349324.7044
   1092955.95544                  25250226.7264
 96  7 10  0 22  0.0000000  0  8G17G31G 3G28G21G 1G23G26
 -14052846.29844 -10950260.82144  21450956.6654   21450958.2784
  -1326191.72944  -1033394.48944  23673389.4954   23673391.1574
 -20091145.55144 -15655431.77244  21478073.1614   21478074.7224
 -23517751.303 4 -18325514.796 4  20868336.162    20868335.289
 -24314157.31844 -18946074.48544  20981002.1474   20981003.8734
 -17891068.86344 -13941072.21144  21781261.5724   21781263.9014
 -20543457.59144 -16007863.14444  21357071.3164   21357072.5284
   1198473.02844                  25270306.3624
 96  7 10  0 22 30.0000000  0  8G17G31G 3G28G21G 1G23G26
 -14000796.36744 -10909702.45844  21460861.3554   21460862.9384
  -1405960.72744  -1095552.10844  23658210.1944   23658210.7234
 -20118384.67344 -15676657.06344  21472889.6194   21472891.3344
 -23473539.613 4 -18291064.149 4  20876749.447    20876748.415
 -24334955.81244 -18962281.09544  20977044.3754   20977046.1294
 -17976786.15844 -14007864.87644  21764950.2394   21764952.5324
 -20502579.58844 -15976010.16744  21364850.2064   21364851.3474
   1304115.50244   1016210.40144  25290409.1334
 96  7 10  0 23  0.0000000  0  8G17G31G 3G28G21G 1G23G26
 -13948399.37044 -10868873.64544  21470832.0944   21470833.8304
  -1485332.98744  -1157400.58944  23643106.1664   23643108.9894
 -20145035.47444 -15697423.92244  21467818.2674   21467819.8574
 -23428763.031 4 -18256173.324 4  20885270.262    20885269.174
 -24355525.94944 -18978309.76444  20973129.9064   20973131.5384
 -18062130.19944 -14074366.68544  21748710.0194   21748712.1984
 -20461547.50244 -15944037.12444  21372658.3754   21372659.7034
   1409895.56444                  25310539.1364
 96  7 10  0 23 30.0000000  0  8G17G31G 3G28G21G 1G23G26
 -13895676.71144 -10827791.06944  21480864.9904   21480866.9564
  -1564332.34844  -1218958.52144  23628073.0014   23628074.5674
 -20171094.81144 -15717729.90544  21462859.3884   21462860.7094
 -23383439.497 4 -18220856.306 4  20893894.964    20893894.045
 -24375878.03044 -18994168.52044  20969257.0544   20969258.4664
 -18147123.50644 -14140595.19944  21732536.3424   21732538.1864
 -20420388.90844 -15911965.50344  21380490.5644   21380491.8054
   1515794.75644                  25330690.2004
 96  7 10  0 24  0.0000000  0  8G17G31G 3G28G21G 1G23G26
 -13842643.70444 -10786466.66544  21490956.9794   21490958.7224
  -1642971.67344  -1280235.88844  23613108.4074   23613110.2084
 -20196553.47644 -15737567.82944  21458014.4684   21458016.0914
 -23337576.748 4 -18185119.119 4  20902622.235    20902621.378
 -24396012.85544 -19009857.98744  20965425.6504   20965427.0954
 -18231779.30444 -14206560.71444  21716426.8314   21716428.5274
 -20379129.20144 -15879815.09644  21388342.0114   21388343.0484
   1621794.62344                  25350862.3524
 96  7 10  0 24 30.0000000  0  8G17G31G 3G28G21G 1G23G26
 -13789309.50644 -10744907.57244  21501106.1874   21501107.9184
  -1721253.53044  -1341234.71944  23598212.0244   23598212.8334
 -20221424.48344 -15756947.83944  21453281.7984   21453283.4744
 -23291178.417 4 -18148964.605 4  20911451.634    20911450.688
 -24415932.04444 -19025379.42744  20961635.0934   20961636.6424
 -18316103.30844 -14272267.69044  21700380.5574   21700382.5964
 -20337777.05344 -15847592.65044  21396211.1024   21396212.2234
   1727865.43744                  25371046.1494
 96  7 10  0 25  0.0000000  0  8G17G31G 3G28G21G 1G23G26
 -13735675.28544 -10703114.69244  21511312.3874   21511313.9334
  -1799168.23844  -1401947.47144  23583385.2644   23583386.6384
 -20245699.84444 -15775863.70844  21448662.5914   21448663.9174
 -23244244.093 4 -18112392.428 4  20920382.964    20920382.080
 -24435635.54244 -19040732.79144  20957885.5794   20957887.0094
 -18400087.54444 -14337709.91344  21684398.7584   21684400.9784
 -20296328.43444 -15815295.03244  21404098.5174   21404099.6014
   1833981.65144                  25391239.6934
 96  7 10  0 25 30.0000000  0  8G17G31G 3G28G21G 1G23G26
 -13681712.64844 -10661065.90744  21521581.1894   21521583.0274
  -1876682.60544  -1462348.24944  23568634.5074   23568635.4964
 -20269360.26244 -15794300.40744  21444160.0064   21444161.6984
 -23196748.452 4 -18075382.868 4  20929421.161    20929420.201
 -24455107.52444 -19055905.76144  20954180.2594   20954181.8854
 -18483691.93244 -14402856.15444  21668489.3074   21668491.8454
 -20254742.35244 -15782890.29744  21412012.1134   21412013.4034
   1940159.44044                  25411444.7154
 96  7 10  0 26  0.0000000  0  8G17G31G 3G28G21G 1G23G26
 -13627411.07544 -10618753.02244  21531914.4984   21531916.0784
  -1953773.48444  -1522419.03644  23553964.3884   23553966.5834
 -20292405.20544 -15812257.50844  21439774.6654   21439776.5064
 -23148682.502 4 -18037928.908 4  20938567.819    20938566.907
 -24474342.63544 -19070894.14844  20950519.9194   20950521.4714
 -18566904.72844 -14467697.25644  21652654.4394   21652656.8504
 -20213005.54444 -15750368.11644  21419954.2944   21419955.5814
   2046404.80044                  25431662.7974
 96  7 10  0 26 30.0000000  0  8G17G31G 3G28G21G 1G23G26
 -13572749.09944 -10576159.29244  21542316.1494   21542317.7514
  -2030419.93344  -1582143.52144  23539378.9844   23539381.3234
 -20314811.34744 -15829716.84144  21435511.0914   21435512.5274
 -23100036.159 4 -18000022.693 4  20947824.789    20947824.032
 -24493338.72944 -19085696.28744  20946905.1194   20946906.3714
 -18649701.52944 -14532214.20944  21636898.5034   21636900.8984
 -20171086.70244 -15717704.08444  21427931.2614   21427932.1034
   2152732.55744                  25451895.4854
 96  7 10  0 27  0.0000000  0  8G17G31G 3G28G21G 1G23G26
 -13517810.18144 -10533349.77444  21552770.6704   21552772.4524
  -2106705.26544  -1641586.61544  23524862.4374   23524863.9694
 -20336662.00844 -15846743.33944  21431352.9304   21431354.4824
 -23050901.006 4 -17961735.592 4  20957175.152    20957174.056
 -24512199.74844 -19100393.17644  20943315.9054   20943317.2734
 -18732162.42844 -14596469.42244  21621206.5974   21621208.8424
 -20129061.19544 -15684956.95044  21435928.4544   21435929.6954
   2259075.32944                  25472132.6514
 96  7 10  0 27 30.0000000  0  8G17G31G 3G28G21G 1G23G26
 -13462561.02144 -10490298.50044  21563284.2684   21563285.9804
  -2182600.78244  -1700725.96144  23510419.9504   23510422.6094
 -20357934.52744 -15863319.33244  21427304.8674   21427306.5874
 -23001241.121 4 -17923039.606 4  20966625.204    20966624.049
 -24530895.17944 -19114961.03244  20939758.2234   20939759.7904
 -18814260.44744 -14660441.87244  21605583.9724   21605586.2254
 -20086890.40144 -15652096.59744  21443953.3254   21443954.5584
   2365493.40944                  25492382.6804
 96  7 10  0 28  0.0000000  0  8G17G31G 3G28G21G 1G23G26
 -13406962.05044 -10446974.65144  21573864.5184   21573866.2564
  -2258063.55444  -1759528.09944  23496060.1074   23496062.8184
 -20378580.16244 -15879406.84644  21423376.2254   21423377.7894
 -22951017.551 4 -17883904.384 4  20976182.400    20976181.267
 -24549372.60344 -19129359.01844  20936242.1134   20936243.7104
 -18895961.92544 -14724105.32444  21590036.7484   21590038.7984
 -20044537.67044 -15619094.47244  21452012.7344   21452014.0724
   2472029.32944                  25512656.1754
 96  7 10  0 28 30.0000000  0  8G17G31G 3G28G21G 1G23G26
 -13351032.92444 -10403393.53544  21584507.3954   21584509.3644
  -2333124.99344  -1818017.51244  23481776.3704   23481778.7214
 -20398627.32944 -15895028.02344  21419561.5464   21419563.0374
 -22900260.625 4 -17844353.560 4  20985841.053    20985840.033
 -24567656.23944 -19143605.99744  20932762.8634   20932764.4244
 -18977292.12844 -14787479.47344  21574559.9864   21574562.2114
 -20002030.16944 -15585971.74644  21460101.6214   21460102.8874
   2578643.50944                  25532944.1874
 96  7 10  0 29  0.0000000  0  7G17G31G 3G28G21G 1G23
 -13294788.00844 -10359566.34344  21595210.2774   21595212.2574
  -2407802.56944  -1876207.80544  23467565.6784   23467567.7504
 -20418101.78244 -15910202.93144  21415855.6294   21415857.0664
 -22848978.726 4 -17804393.668 4  20995599.675    20995598.762
 -24585739.34444 -19157696.72344  20929321.8354   20929323.2554
 -19058265.53944 -14850575.60444  21559151.0744   21559152.9744
 -19959395.43844 -15552749.88744  21468214.7614   21468216.0854
 96  7 10  0 29 30.0000000  0  7G17G31G 3G28G21G 1G23
 -13238239.58644 -10315502.65644  21605971.1964   21605973.0474
  -2482109.42044  -1934109.23744  23453425.4224   23453427.7624
 -20437014.26944 -15924939.94444  21412256.6644   21412258.0284
 -22797179.979 4 -17764031.039 4  21005456.711    21005455.826
 -24603607.39044 -19171619.86844  20925921.5754   20925923.0184
 -19138892.64944 -14913401.89244  21543808.2534   21543810.5744
 -19916660.96944 -15519450.30944  21476346.8444   21476348.0304
 96  7 10  0 30  0.0000000  0  8G17G31G 3G28G21G 1G23G 9
 -13181357.31244 -10271178.83144  21616795.7794   21616797.2114
  -2556023.89244  -1991704.90344  23439360.0324   23439363.1824
 -20455336.78144 -15939217.23644  21408769.9764   21408771.3964
 -22744851.239 4 -17723255.425 4  21015414.588    21015413.611
 -24621237.84544 -19185357.88044  20922566.5414   20922568.0584
 -19219143.72944 -14975935.17044  21528536.9424   21528539.0784
 -19873825.74744 -15486072.22044  21484498.1024   21484499.4334
        -0.38854         0.68554  23876687.4024   23876690.2834
 96  7 10  0 30 30.0000000  0  8G17G31G 3G28G21G 1G23G 9
 -13124120.73344 -10226578.92244  21627687.4734   21627689.2854
  -2629528.28644  -2048981.04344  23425372.6114   23425374.1064
 -20473062.05144 -15953029.16544  21405396.7894   21405398.5084
 -22691981.172 4 -17682057.998 4  21025475.382    21025474.382
 -24638621.17144 -19198903.32144  20919258.6404   20919260.2994
 -19299007.37744 -15038166.55644  21513339.3314   21513341.5744
 -19830882.63244 -15452610.06544  21492669.9224   21492671.2304
    -21664.82344    -16880.67144  23872564.1164   23872564.9004
 96  7 10  0 31  0.0000000  0  8G17G31G 3G28G21G 1G23G 9
 -13066540.11544 -10181710.93044  21638644.6474   21638646.5114
  -2702617.33244  -2105933.54244  23411464.1374   23411466.5474
 -20490195.33644 -15966379.75044  21402136.3614   21402138.2074
 -22638577.814 4 -17640445.019 4  21035637.685    21035636.761
 -24655760.70244 -19212258.80544  20915997.0624   20915998.5924
 -19378492.96344 -15100103.34444  21498213.9464   21498215.9304
 -19787828.59144 -15419061.47044  21500862.8594   21500864.0614
    -42871.50944    -33405.33544  23868528.6794   23868532.4494
 96  7 10  0 31 30.0000000  0  8G17G31G 3G28G21G 1G23G 9
 -13008587.57944 -10136553.12844  21649672.8254   21649674.6634
  -2775249.76544  -2162530.22744  23397642.6274   23397644.5574
 -20506690.43444 -15979233.08944  21398997.5684   21398999.0854
 -22584618.986 4 -17598399.211 4  21045905.747    21045904.847
 -24672642.43944 -19225413.40544  20912784.5884   20912786.0774
 -19457570.62844 -15161722.27044  21483165.9864   21483167.8394
 -19744626.32144 -15385397.36944  21509084.0404   21509085.1534
    -63601.07844    -49558.19644  23864584.5634   23864585.9324
 96  7 10  0 32  0.0000000  0  8G17G31G 3G28G21G 1G23G 9
 -12950274.09944 -10091114.07444  21660769.4714   21660771.1204
  -2847429.77844  -2218774.38244  23383907.2874   23383908.9154
 -20522569.41244 -15991606.32744  21395975.9174   21395977.4644
 -22530126.992 4 -17555937.944 4  21056275.244    21056274.303
 -24689299.66744 -19238393.06244  20909614.8074   20909616.3294
 -19536255.98944 -15223035.50744  21468192.6114   21468194.6934
 -19701289.10244 -15351628.11544  21517330.7724   21517331.8794
    -83870.96144    -65352.86944  23860726.9784   23860728.7004
 96  7 10  0 32 30.0000000  0  8G17G31G 3G28G21G 1G23G 9
 -12891609.97844 -10045401.80244  21671932.7734   21671934.4504
  -2919155.30944  -2274664.38244  23370258.3054   23370258.8474
 -20537835.08144 -16003501.66444  21393070.9204   21393072.7844
 -22475104.160 4 -17513063.040 4  21066745.836    21066744.752
 -24705734.57644 -19251199.47944  20906487.4004   20906488.8714
 -19614550.68944 -15284044.33744  21453293.5434   21453295.5344
 -19657804.05344 -15317743.66944  21525605.7034   21525606.8874
   -103677.44844    -80786.46644  23856957.3374   23856959.6324
 96  7 10  0 33  0.0000000  0  8G17G31G 3G28G21G 1G23G 9
 -12832608.41744  -9999426.59144  21683160.4754   21683162.3324
  -2990435.47844  -2330207.35844  23356694.0944   23356696.6994
 -20552469.07644 -16014904.78644  21390286.2034   21390287.9724
 -22419552.974 4 -17469776.432 4  21077316.915    21077315.818
 -24721959.57344 -19263842.33244  20903399.8724   20903401.3764
 -19692435.32644 -15344733.63444  21438472.7004   21438474.6434
 -19614171.35744 -15283744.17844  21533908.7634   21533910.2424
   -123017.71844    -95856.76144  23853277.3914   23853278.9794
 96  7 10  0 33 30.0000000  0  8G17G31G 3G28G21G 1G23G 9
 -12773256.33744  -9953178.25044  21694454.9724   21694456.6344
  -3061270.12444  -2385403.16344  23343214.8394   23343217.1064
 -20566458.16244 -16025805.38044  21387624.2874   21387625.6684
 -22363470.103 4 -17426075.523 4  21087989.141    21087988.037
 -24737980.46744 -19276326.14544  20900351.1634   20900352.6914
 -19769890.66244 -15405088.41444  21423733.3624   21423735.3064
 -19570407.89244 -15249642.78644  21542236.6104   21542237.8404
   -141878.54644   -110553.47744  23849688.5814   23849690.7634
 96  7 10  0 34  0.0000000  0  8G17G31G 3G28G21G 1G23G 9
 -12713575.65644  -9906673.85444  21705811.8414   21705813.5684
  -3131682.14144  -2440269.64444  23329815.6864   23329818.3754
 -20579829.19044 -16036224.37544  21385079.8394   21385081.1494
 -22306877.359 4 -17381977.308 4  21098758.419    21098757.240
 -24753811.90744 -19288662.33444  20897338.5284   20897340.1244
 -19846931.06544 -15465119.86544  21409073.1404   21409075.2104
 -19526535.42844 -15215456.45644  21550585.3734   21550586.5994
   -160269.42744   -124883.98144  23846188.6914   23846189.6644
 96  7 10  0 34 30.0000000  0  8G17G31G 3G28G21G 1G23G 9
 -12653580.62544  -9859924.50844  21717228.4624   21717230.3244
  -3201676.83344  -2494810.94544  23316496.2714   23316498.2724
 -20592570.43144 -16046152.62544  21382655.1714   21382656.6624
 -22249777.072 4 -17337483.605 4  21109624.296    21109623.099
 -24769455.64244 -19300852.25644  20894361.6964   20894363.3014
 -19923553.29044 -15524825.46344  21394492.3204   21394494.1544
 -19482556.84244 -15181187.43444  21558954.1284   21558955.3534
   -178177.16644   -138838.01144  23842781.1424   23842782.3604
 96  7 10  0 35  0.0000000  0  8G17G31G 3G28G21G 1G23G 9
 -12593278.25344  -9812935.67244  21728703.5334   21728705.6674
  -3271254.50444  -2549027.29444  23303255.9074   23303258.1604
 -20604700.16444 -16055604.37144  21380347.0554   21380348.5404
 -22192180.171 4 -17292602.930 4  21120584.593    21120583.583
 -24784914.29344 -19312897.95344  20891419.8744   20891421.2874
 -19999766.87944 -15584212.64544  21379989.3374   21379991.1784
 -19438487.18144 -15146847.44644  21567340.3654   21567341.4484
   -195605.59144   -152418.56144  23839464.3934   23839466.7474
 96  7 10  0 35 30.0000000  0  8G17G31G 3G28G21G 1G23G 9
 -12532641.88844  -9765686.58444  21740242.3884   21740243.9284
  -3340380.25744  -2602891.48144  23290101.8364   23290104.3544
 -20616221.71644 -16064582.21544  21378154.5664   21378156.2644
 -22134069.208 4 -17247321.689 4  21131642.713    21131641.830
 -24800158.32344 -19324776.41544  20888519.0864   20888520.6324
 -20075567.54344 -15643278.06844  21365564.7724   21365566.7304
 -19394309.29544 -15112423.13044  21575747.0904   21575748.2234
   -212544.10244   -165617.37744  23836241.3994   23836241.6314
 96  7 10  0 36  0.0000000  0  8G17G31G 3G28G21G 1G23G 9
 -12471688.07944  -9718190.13644  21751841.5264   21751843.1424
  -3409057.25744  -2656406.00644  23277033.0574   23277034.7314
 -20627151.86044 -16073099.22244  21376074.6934   21376076.1354
 -22075449.014 4 -17201643.647 4  21142797.680    21142796.906
 -24815176.79644 -19336479.12144  20885661.1504   20885662.4354
 -20150962.62244 -15702027.45044  21351217.6004   21351219.2834
 -19350021.02844 -15077912.79944  21584174.9434   21584176.0184
   -228995.50744   -178436.67544  23833110.6434
 96  7 10  0 36 30.0000000  0  8G17G31G 3G28G21G 1G23G 9
 -12410473.81144  -9670490.73144  21763490.0434   21763492.0564
  -3477351.39544  -2709622.20544  23264037.3224   23264039.4484
 -20637559.22344 -16081208.86544  21374094.3064   21374095.8414
 -22016385.791 4 -17155620.385 4  21154037.056    21154036.187
 -24830036.90344 -19348058.42544  20882833.3884   20882834.5974
 -20226016.06644 -15760510.62244  21336935.3354   21336937.1094
 -19305682.46244 -15043363.27644  21592612.2834   21592613.2954
   -245029.67244                  23830059.1014
 96  7 10  0 37  0.0000000  0  8G17G31G 3G28G21G 1G23G 9
 -12349069.29144  -9622643.07644  21775174.7494   21775176.7514
  -3545357.12344  -2762613.59844  23251096.0124   23251097.6084
 -20647527.99144 -16088976.75244  21372197.1094   21372198.6794
 -21956960.227 4 -17109314.782 4  21165345.502    21165344.497
 -24844821.06744 -19359578.55244  20880020.1334   20880021.3134
 -20300809.27644 -15818791.01744  21322702.5384   21322704.4944
 -19261364.25344 -15008829.61544  21601045.7164   21601046.4684
   -260742.68744                  23827069.2254
 96  7 10  0 37 30.0000000  0  8G17G31G 3G28G21G 1G23G 9
 -12287274.63444  -9574491.42244  21786934.0214   21786935.9544
  -3612889.89044  -2815236.53744  23238244.7844   23238246.2224
 -20656855.50444 -16096244.96344  21370422.1944   21370423.6704
 -21896976.008 4 -17062573.866 4  21176760.176    21176759.178
 -24859345.45344 -19370896.25544  20877256.1894   20877257.4144
 -20375145.78344 -15876715.54344  21308556.5534   21308558.6244
 -19216871.91244 -14974160.26644  21609512.3654   21609513.1974
   -275931.92444                  23824179.0054
 96  7 10  0 38  0.0000000  0  8G17G31G 3G28G21G 1G23G 9
 -12225104.34044  -9526047.06544  21798764.8714   21798766.5594
  -3679969.74544  -2867506.54644  23225479.8844   23225481.7394
 -20665546.68844 -16103017.32544  21368768.3754   21368770.1364
 -21836445.891 4 -17015407.572 4  21188278.671    21188277.705
 -24873627.52644 -19382025.14144  20874538.3544   20874539.6994
 -20449028.47044 -15934286.44344  21294497.3464   21294499.3274
 -19172210.34944 -14939359.05844  21618011.1994   21618012.4554
   -290586.18944   -226432.29444  23821390.4224   23821391.8844
 96  7 10  0 38 30.0000000  0  8G17G31G 3G28G21G 1G23G 9
 -12162576.23644  -9477323.88744  21810663.4104   21810665.2034
  -3746599.52144  -2919425.82244  23212800.9774   23212801.7564
 -20673601.63244 -16109293.91744  21367235.4844   21367237.1874
 -21775389.549 4 -16967831.236 4  21199897.335    21199896.338
 -24887696.82944 -19392988.23144  20871861.1074   20871862.5944
 -20522474.53144 -15991517.11244  21280521.0544   21280523.0944
 -19127394.54644 -14904437.66044  21626539.3234   21626540.4544
   -304719.36144   -237446.98744  23818700.6604   23818702.0964
 96  7 10  0 39  0.0000000  0  8G17G31G 3G28G21G 1G23G 9
 -12099672.58744  -9428308.08144  21822633.6244   21822635.5754
  -3812730.12544  -2970956.14444  23200216.6514   23200218.2054
 -20680985.85944 -16115047.87144  21365830.2854   21365831.7464
 -21713777.386 4 -16919821.793 4  21211621.869    21211620.825
 -24901520.67244 -19403760.05844  20869230.4924   20869231.9504
 -20595445.17444 -16048377.32844  21266635.2564   21266637.2054
 -19082404.33144 -14869380.36144  21635100.5514   21635101.6434
   -318302.15844   -248024.00744  23816116.1024   23816117.5284
 96  7 10  0 39 30.0000000  0  8G17G31G 3G28G21G 1G23G 9
 -12036465.98144  -9379056.20744  21834661.6564   21834663.4084
  -3878390.49444  -3022120.05044  23187722.1344   23187722.8024
 -20687763.56544 -16120329.21844  21364540.6744   21364541.9314
 -21651679.873 4 -16871434.157 4  21223438.740    21223437.611
 -24915155.95844 -19414384.95244  20866635.7654   20866637.2224
 -20667987.25044 -16104903.59944  21252831.0034   21252833.0564
 -19037317.89544 -14834248.07944  21643680.1994   21643681.5114
   -331383.86244                  23813626.4424
 96  7 10  0 40  0.0000000  0  8G17G31G 3G28G21G 1G23G 9
 -11972985.72944  -9329591.10244  21846741.5504   21846743.5314
  -3943584.72944  -3072920.74444  23175316.1064   23175318.0124
 -20693947.81744 -16125148.13544  21363363.8864   21363365.3424
 -21589121.650 4 -16822687.523 4  21235343.184    21235341.942
 -24928612.59544 -19424870.63744  20864074.9814   20864076.3104
 -20740101.79944 -16161096.72544  21239108.1204   21239109.7664
 -18992146.92544 -14799049.92844  21652275.9474   21652277.2664
   -343997.97044                  23811226.0514
 96  7 10  0 40 30.0000000  0  8G17G31G 3G28G21G 1G23G 9
 -11909211.14944  -9279896.65344  21858877.3734   21858879.0584
  -4008287.00644  -3123338.07744  23163003.4044   23163004.5394
 -20699511.65844 -16129483.61344  21362305.0114   21362306.6694
 -21526088.123 4 -16773570.525 4  21247337.999    21247336.847
 -24941860.18844 -19435193.43044  20861554.1094   20861555.4674
 -20811765.44244 -16216938.50144  21225470.9244   21225472.6794
 -18946879.70544 -14763776.77644  21660890.1344   21660891.0934
   -356134.74144   -277503.02144  23808916.5604   23808918.3084
 96  7 10  0 41  0.0000000  0  8G17G31G 3G28G21G 1G23G 9
 -11845111.51944  -9229948.90944  21871075.2274   21871076.7944
  -4072494.61644  -3173369.95844  23150784.9874   23150786.9214
 -20704461.09544 -16133340.33244  21361363.1904   21361364.9884
 -21462569.509 4 -16724075.536 4  21259425.145    21259424.108
 -24954878.71344 -19445337.73144  20859076.7594   20859078.1364
 -20882973.92244 -16272425.60444  21211920.2924   21211922.0724
 -18901499.69844 -14728415.74144  21669525.6824   21669527.0804
   -367779.86544   -286577.16344  23806700.1884   23806701.6664
 96  7 10  0 41 30.0000000  0  8G17G31G 3G28G21G 1G23G 9
 -11780673.79644  -9179737.71844  21883337.2954   21883339.0574
  -4136223.30844  -3223028.67744  23138657.8094   23138659.8494
 -20708800.70044 -16136721.86044  21360537.4544   21360539.0074
 -21398570.516 4 -16674206.226 4  21271603.780    21271602.691
 -24967667.56244 -19455303.06644  20856643.1434   20856644.5964
 -20953750.09244 -16327575.84244  21198452.0594   21198453.8534
 -18856004.92344 -14692965.27844  21678182.9904   21678184.2884
   -378930.69544   -295266.17644  23804578.0164   23804581.6234
 96  7 10  0 42  0.0000000  0  8G17G31G 3G28G21G 1G23G 9
 -11715895.47644  -9129261.12244  21895664.0674   21895666.2254
  -4199492.89244  -3272329.63544  23126618.0734   23126620.3754
 -20712534.21244 -16139631.10444  21359827.1824   21359828.8394
 -21334099.854 4 -16623969.375 4  21283872.213    21283871.011
 -24980240.70144 -19465100.31244  20854250.5084   20854251.9694
 -21024134.08044 -16382420.47944  21185058.1764   21185060.1384
 -18810395.86744 -14657425.76744  21686862.0634   21686863.0214
   -389610.12944   -303587.75944  23802546.5804   23802546.1694
 96  7 10  0 42 30.0000000  0  8G17G31G 3G28G21G 1G23G 9
 -11650774.99844  -9078517.90444  21908056.1074   21908058.1424
  -4262312.56444  -3321280.01344  23114663.6984   23114665.4834
 -20715676.90444 -16142079.96844  21359229.0594   21359230.5884
 -21269169.316 4 -16573374.183 4  21296228.159    21296227.019
 -24992620.29644 -19474746.74444  20851894.7604   20851896.1504
 -21094159.06944 -16436985.38344  21171732.7564   21171734.8424
 -18764688.16944 -14621809.38644  21695560.0764   21695561.0994
   -399815.16844   -311539.69644  23800604.6364   23800606.6734
 96  7 10  0 43  0.0000000  0  8G17G31G 3G28G21G 1G23G 9
 -11585299.74644  -9027498.23044  21920515.7974   21920517.1674
  -4324669.72744  -3369869.99944  23102797.5804   23102800.0104
 -20718213.27044 -16144056.36744  21358746.2584   21358747.9294
 -21203771.480 4 -16522414.866 4  21308673.041    21308671.957
 -25004818.63944 -19484251.94144  20849573.4384   20849574.9654
 -21163813.76644 -16491261.74244  21158478.1254   21158480.2214
 -18718866.97944 -14586104.57344  21704279.5684   21704280.7914
   -409550.29744   -319125.45644  23798751.7974   23798751.6074
 96  7 10  0 43 30.0000000  0  8G17G31G 3G28G21G 1G23G 9
 -11519483.87644  -8976213.23644  21933040.2824   21933041.6234
  -4386553.31144  -3418090.97544  23091021.4914   23091022.1004
 -20720120.91944 -16145542.85844  21358383.3624   21358384.7744
 -21137905.902 4 -16471091.072 4  21321206.809    21321205.745
 -25016838.25244 -19493617.87044  20847286.2214   20847287.5494
 -21233073.54344 -16545230.37644  21145298.4224   21145300.2004
 -18672935.67444 -14550313.95444  21713020.0624   21713021.0434
   -418808.51444   -326339.61944  23796990.3204   23796990.9224
 96  7 10  0 44  0.0000000  0  8G17G31G 3G28G21G 1G23G 9
 -11453338.70744  -8924671.57244  21945627.2904   21945629.0044
  -4447965.07044  -3465944.28844  23079335.1564   23079336.6314
 -20721395.95544 -16146536.40844  21358140.7354   21358142.2894
 -21071576.489 4 -16419405.848 4  21333828.950    21333827.812
 -25028688.75344 -19502852.02244  20845031.1194   20845032.6214
 -21301909.05044 -16598868.41044  21132199.4684   21132201.1794
 -18626893.12144 -14514436.65044  21721781.6204   21721782.6194
   -427573.22944   -333169.23844  23795321.8854   23795323.8994
 96  7 10  0 44 30.0000000  0  8G17G31G 3G28G21G 1G23G 9
 -11386879.81744  -8872885.45544  21958273.9364   21958275.8364
  -4508922.89744  -3513443.89244  23067735.2234   23067737.0034
 -20722055.17244 -16147050.10144  21358015.1904   21358016.9354
 -21004790.871 4 -16367365.142 4  21346537.871    21346536.702
 -25040364.32244 -19511949.86644  20842809.2594   20842810.8344
 -21370299.70544 -16652159.80744  21119185.1654   21119187.0314
 -18580755.94544 -14478485.61744  21730561.3494   21730562.1884
   -435836.78344   -339608.36044  23793750.3314   23793751.7404
 96  7 10  0 45  0.0000000  0  8G17G31G 3G28G21G 1G23G 9
 -11320128.07544  -8820871.13344  21970976.3814   21970978.0464
  -4569438.86744  -3560599.17144  23056219.5604   23056221.4534
 -20722113.39644 -16147095.48744  21358004.2154   21358006.0844
 -20937553.896 4 -16314972.730 4  21359332.783    21359331.472
 -25051849.17444 -19520899.10244  20840623.7744   20840625.4224
 -21438235.96844 -16705097.13144  21106257.3604   21106259.3564
 -18534529.02544 -14442464.65344  21739357.9984   21739359.1254
   -443601.64844   -345658.86844  23792272.2884   23792274.6284
 96  7 10  0 45 30.0000000  0  8G17G31G 3G28G21G 1G23G 9
 -11253082.72744  -8768628.03144  21983734.7634   21983736.5794
  -4629502.50344  -3607401.99944  23044789.8314   23044792.2844
 -20721580.22844 -16146680.04944  21358105.6884   21358107.4424
 -20869858.146 4 -16262222.831 4  21372214.869    21372213.450
 -25063108.64244 -19529672.71844  20838481.1844   20838482.7084
 -21505707.39844 -16757672.25144  21093417.7974   21093419.8894
 -18488208.47444 -14406370.72944  21748172.4934   21748173.9074
   -450833.19644   -351293.80344  23790895.6154   23790897.2324
 96  7 10  0 46  0.0000000  0  8G17G31G 3G28G21G 1G23G 9
 -11185730.79044  -8716146.03444  21996551.3634   21996553.2984
  -4689111.98744  -3653850.94444  23033446.5224   23033448.1494
 -20720460.20944 -16145807.32544  21358318.6114   21358320.3334
 -20801701.044 4 -16209113.434 4  21385184.672    21385183.295
 -25074135.84744 -19538265.34744  20836382.7964   20836384.2834
 -21572718.47944 -16809888.65344  21080665.9844   21080667.7804
 -18441781.47844 -14370193.85744  21757007.2584   21757008.0974
   -457534.18444   -356515.33944  23789620.5934   23789623.0024
 96  7 10  0 46 30.0000000  0  8G17G31G 3G28G21G 1G23G 9
 -11118070.71744  -8663423.93344  22009426.4384   22009429.0734
  -4748243.22344  -3699927.20844  23022194.1274   23022196.0224
 -20718743.30444 -16144469.49444  21358645.4424   21358647.4364
 -20733078.773 4 -16155641.566 4  21398243.072    21398241.796
 -25084920.57044 -19546669.02944  20834330.5264   20834332.0444
 -21639270.91244 -16861747.66944  21068001.4404   21068003.2284
 -18395238.08944 -14333926.28844  21765864.1374   21765865.5094
   -463721.16644   -361336.33444  23788443.7424   23788445.2234
 96  7 10  0 47  0.0000000  0  8G17G31G 3G28G21G 1G23G 9
 -11050087.76244  -8610450.22944  22022363.1074   22022365.3324
  -4806875.79444  -3745614.91444  23011036.5464   23011037.8174
 -20716417.33444 -16142657.06544  21359088.0534   21359089.6834
 -20663998.636 4 -16101812.922 4  21411388.574    21411387.358
 -25095486.79444 -19554902.45144  20832319.8494   20832321.3314
 -21705359.76444 -16913245.45444  21055425.0884   21055427.0894
 -18348568.16644 -14297560.11644  21774745.1634   21774746.4734
   -469407.02244   -365766.88044  23787361.7554   23787362.6784
 96  7 10  0 47 30.0000000  0  8G17G31G 3G28G21G 1G23G 9
 -10981745.39644  -8557196.47244  22035368.5394   22035370.5544
  -4864986.54844  -3790896.00044  22999978.5504   22999980.2594
 -20713453.08644 -16140347.27844  21359652.2314   21359653.9504
 -20594453.228 4 -16047621.729 4  21424622.652    21424621.398
 -25105844.81944 -19562973.64244  20830348.8574   20830350.3584
 -21770971.18944 -16964371.21944  21042939.6434   21042941.5324
 -18301767.19444 -14261091.83644  21783651.2354   21783652.3914
   -474592.89644   -369807.77644  23786374.5364   23786376.3014
 96  7 10  0 48  0.0000000  0  8G17G31G 3G28G21G 1G23G 9
 -10913043.71544  -8503662.72644  22048442.1044   22048444.3394
  -4922576.06044  -3835770.94544  22989019.9104   22989021.2134
 -20709849.99944 -16137539.69144  21360337.8214   21360339.7564
 -20524445.821 4 -15993070.535 4  21437944.782    21437943.335
 -25116015.87844 -19570899.14544  20828413.3604   20828414.8174
 -21836110.57644 -17015129.16344  21030543.9764   21030546.0194
 -18254844.54744 -14224528.74244  21792580.1944   21792581.5644
   -479301.36644   -373476.69744  23785477.8604   23785479.9344
 96  7 10  0 48 30.0000000  0  8G17G31G 3G28G21G 1G23G 9
 -10843983.69944  -8449849.75744  22061583.6064   22061586.0614
  -4979635.47844  -3880232.82044  22978161.5534   22978164.0314
 -20705624.61144 -16134247.19644  21361141.9264   21361143.4894
 -20453978.231 4 -15938160.757 4  21451354.278    21451352.918
 -25126001.46544 -19578680.12344  20826513.0644   20826514.5894
 -21900770.86144 -17065513.77844  21018239.5344   21018241.3444
 -18207813.36744 -14187881.07644  21801529.8074   21801531.3494
   -483529.04144   -376770.99744  23784673.9884   23784674.5424
 96  7 10  0 49  0.0000000  0  8G17G31G 3G28G21G 1G23G 9
 -10774569.44244  -8395760.75644  22074792.6714   22074794.9304
  -5036185.48344  -3924297.74244  22967400.0794   22967402.4444
 -20700807.33044 -16130493.49244  21362058.7124   21362060.3194
 -20383062.579 4 -15882901.842 4  21464849.025    21464847.710
 -25135804.11044 -19586318.55344  20824647.6434   20824649.1684
 -21964967.77644 -17115537.32044  21006023.3824   21006025.2684
 -18160698.29744 -14151168.04644  21810495.4194   21810496.8574
   -487268.32044   -379684.69344  23783962.2864   23783964.8914
 96  7 10  0 49 30.0000000  0  8G17G31G 3G28G21G 1G23G 9
 -10704845.45944  -8341430.41944  22088060.9784   22088063.0864
  -5092251.88944  -3967985.83944  22956731.1584   22956733.5154
 -20695426.55744 -16126300.70544  21363082.6744   21363084.3964
 -20311710.772 4 -15827303.069 4  21478426.838    21478425.574
 -25145424.25444 -19593814.77544  20822817.1034   20822818.6074
 -22028727.74844 -17165220.39144  20993890.2764   20993892.1264
 -18113514.57744 -14114401.52244  21819474.3624   21819475.9344
   -490509.40144   -382210.20944  23783345.5794   23783346.9764
 96  7 10  0 50  0.0000000  0  8G17G31G 3G28G21G 1G23G 9
 -10634819.40244  -8286864.69244  22101386.3884   22101389.1074
  -5147825.57944  -4011289.99244  22946155.6774   22946158.5454
 -20689481.77744 -16121668.42944  21364213.9034   21364215.6244
 -20239915.344 4 -15771358.614 4  21492089.142    21492087.855
 -25154842.34244 -19601153.55044  20821024.8354   20821026.2864
 -22092039.45244 -17214554.16744  20981842.4094   20981844.2104
 -18066234.19144 -14077559.67344  21828471.5124   21828473.0454
   -493217.37744   -384320.30944  23782830.1564   23782830.7534
 96  7 10  0 50 30.0000000  0  8G17G31G 3G28G21G 1G23G 9
 -10564496.92444  -8232067.98644  22114768.3614   22114770.5664
  -5202918.32244  -4054219.39444  22935671.9714   22935673.9334
 -20682965.91744 -16116591.15644  21365453.6994   21365455.7364
 -20167689.798 4 -15715079.003 4  21505833.288    21505831.982
 -25164059.60244 -19608335.83244  20819270.8334   20819272.3724
 -22154907.38944 -17263542.14744  20969878.9704   20969880.5094
 -18018854.43644 -14040640.39144  21837487.5634   21837489.0324
   -495379.52244   -386005.07944  23782418.8884   23782419.5454
 96  7 10  0 51  0.0000000  0  8G17G31G 3G28G21G 1G23G 9
 -10493880.98244  -8177042.60644  22128206.0904   22128208.3054
  -5257531.26344  -4096774.91044  22925279.4734   22925281.5564
 -20675857.15644 -16111051.88344  21366806.4294   21366808.5654
 -20095038.797 4 -15658467.871 4  21519658.380    21519657.045
 -25173077.38644 -19615362.67644  20817554.7824   20817556.2864
 -22217337.43944 -17312188.91544  20957998.9514   20958000.7394
 -17971368.35644 -14003638.25544  21846523.8824   21846525.1584
   -496990.33944   -387260.23444  23782112.6204   23782113.8054
 96  7 10  0 51 30.0000000  0  8G17G31G 3G28G21G 1G23G 9
 -10422968.25644  -8121785.97444  22141700.4184   22141702.5104
  -5311656.62244  -4138950.51244  22914979.7904   22914981.7824
 -20668133.91544 -16105033.79344  21368275.9754   21368277.8914
 -20021965.890 4 -15601527.980 4  21533563.711    21533562.432
 -25181908.39044 -19622243.97744  20815874.3534   20815875.7564
 -22279328.58344 -17360493.68144  20946202.2694   20946204.4024
 -17923769.37744 -13966548.14744  21855581.6554   21855583.2444
   -498051.54344   -388087.13344  23781910.1744   23781912.4914
 96  7 10  0 52  0.0000000  0  8G17G31G 3G28G21G 1G23G 9
 -10351734.94344  -8066279.53344  22155255.5874   22155258.2784
  -5365285.88144  -4180739.52944  22904774.5664   22904776.1904
 -20659785.82344 -16098528.80744  21369864.7434   21369866.7114
 -19948478.508 4 -15544265.121 4  21547547.910    21547546.702
 -25190549.82444 -19628977.55944  20814229.8394   20814231.4024
 -22340878.61244 -17408454.72144  20934489.6754   20934491.7124
 -17876067.28844 -13929377.69544  21864659.0334   21864660.4414
   -498584.36444   -388502.28644  23781809.1234   23781811.3714
 96  7 10  0 52 30.0000000  0  8G17G31G 3G28G21G 1G23G 9
 -10280175.22444  -8010518.73744  22168873.0364   22168875.3024
  -5418409.48644  -4222134.53444  22894665.6814   22894666.9074
 -20650809.90644 -16091534.60944  21371572.8714   21371574.9484
 -19874576.113 4 -15486678.879 4  21561611.185    21561609.781
 -25198998.32544 -19635560.80844  20812622.1874   20812623.7804
 -22401978.27344 -17456064.82844  20922862.9614   20922864.7804
 -17828279.95644 -13892140.82344  21873752.6574   21873754.0654
   -498603.72444   -388517.35544  23781805.3614   23781806.1754
 96  7 10  0 53  0.0000000  0  8G17G31G 3G28G21G 1G23G 9
 -10208326.70044  -7954532.90244  22182545.5404   22182547.5614
  -5471050.42544  -4263153.43944  22884648.6434   22884650.1664
 -20641253.78944 -16084088.31044  21373391.4094   21373393.2954
 -19800297.109 4 -15428799.174 4  21575746.044    21575744.517
 -25207298.30144 -19642028.32244  20811042.7594   20811044.2764
 -22462659.65544 -17503348.99944  20911315.6104   20911317.3954
 -17780446.83744 -13854868.27144  21882855.0674   21882856.3404
   -498162.37844   -388173.44644  23781888.9534   23781889.7844
 96  7 10  0 53 30.0000000  0  8G17G31G 3G28G21G 1G23G 9
 -10136171.85844  -7898308.38444  22196276.1924   22196277.9574
  -5523194.20844  -4303784.95044  22874725.8134   22874727.6254
 -20631114.99244 -16076187.97344  21375320.8044   21375322.6274
 -19725630.585 4 -15370617.510 4  21589954.671    21589953.142
 -25215439.37544 -19648372.01444  20809493.6444   20809495.2614
 -22522897.78044 -17550287.77744  20899852.5944   20899854.4424
 -17732556.87944 -13817551.43244  21891968.3024   21891969.4444
   -497252.73644   -387464.61844  23782062.3174   23782062.9594
 96  7 10  0 54  0.0000000  0  8G17G31G 3G28G21G 1G23G 9
 -10063652.04244  -7841799.47444  22210076.1414   22210078.2054
  -5574775.50844  -4343978.16144  22864910.1474   22864911.9874
 -20620343.53644 -16067794.66644  21377370.7154   21377372.3214
 -19650514.749 4 -15312085.725 4  21604248.750    21604247.260
 -25223352.60044 -19654538.16344  20807987.8194   20807989.4114
 -22582614.27644 -17596820.09244  20888488.9184   20888490.8524
 -17684559.90044 -13780151.19844  21901101.7674   21901103.0144
   -495817.22844   -386346.03044  23782335.6344   23782337.2854
 96  7 10  0 54 30.0000000  0  8G17G31G 3G28G21G 1G23G 9
  -9990820.74844  -7785047.84644  22223935.5074   22223937.4664
  -5625839.98844  -4383768.65744  22855192.8104   22855194.5104
 -20608998.52844 -16058954.42544  21379529.5134   21379531.1424
 -19574995.821 4 -15253239.849 4  21618619.540    21618618.013
 -25231098.77144 -19660574.14144  20806513.7434   20806515.1584
 -22641855.35544 -17642981.95144  20877215.7814   20877217.6094
 -17636501.27444 -13742702.93444  21910247.0374   21910248.3834
   -493889.90844   -384844.21544  23782702.2004   23782704.0714
 96  7 10  0 55  0.0000000  0  8G17G31G 3G28G21G 1G23G 9
  -9917672.65244  -7728049.36444  22237855.2164   22237857.7134
  -5676381.35344  -4423151.52844  22845575.2014   22845577.1554
 -20597072.52744 -16049661.45944  21381799.0004   21381800.7434
 -19499066.654 4 -15194074.307 4  21633068.445    21633066.801
 -25238673.15044 -19666476.25344  20805072.3774   20805073.8384
 -22700614.00744 -17688767.89444  20866034.2984   20866036.0484
 -17588360.56144 -13705190.69844  21919407.9864   21919409.4734
   -491449.79744   -382942.82144  23783166.7634   23783167.6224
 96  7 10  0 55 30.0000000  0  8G17G31G 3G28G21G 1G23G 9
  -9844203.69044  -7670800.85644  22251835.8914   22251837.6604
  -5726399.32244  -4462126.55644  22836057.0924   22836058.3304
 -20584560.66244 -16039911.97544  21384179.7714   21384181.6714
 -19422723.398 4 -15134586.099 4  21647596.102    21647594.471
 -25246054.17344 -19672227.69544  20803667.8444   20803669.4174
 -22758888.35544 -17734176.45644  20854945.0474   20854946.7394
 -17540139.80344 -13667616.10044  21928584.1304   21928585.3534
   -488476.88544   -380626.26544  23783731.9354   23783734.8174
 96  7 10  0 56  0.0000000  0  8G17G31G 3G28G21G 1G23G 9
  -9770481.57244  -7613355.08944  22265864.6384   22265867.2084
  -5775958.29944  -4500743.94044  22826626.1844   22826627.9654
 -20571524.00944 -16029753.56044  21386660.5874   21386662.4584
 -19346028.127 4 -15074823.594 4  21662190.714    21662189.236
 -25253293.07444 -19677868.39344  20802290.2384   20802291.8004
 -22816741.74044 -17779256.99444  20843935.9964   20843937.6314
 -17491894.72844 -13630022.54844  21937764.8624   21937766.0334
   -485024.32044   -377935.93944  23784389.3814   23784389.6654
 96  7 10  0 56 30.0000000  0  8G17G31G 3G28G21G 1G23G 9
  -9696474.76044  -7555687.47944  22279947.6774   22279949.9944
  -5825037.72744  -4538987.64044  22817286.5514   22817288.6544
 -20557929.07444 -16019160.12944  21389247.7044   21389249.5294
 -19268959.657 4 -15014770.284 4  21676856.412    21676854.933
 -25260363.42944 -19683377.75844  20800944.7794   20800946.4324
 -22874151.02444 -17823991.47944  20833011.2324   20833013.0364
 -17443571.47044 -13592368.07644  21946960.4644   21946961.8184
   -481063.83544   -374849.81644  23785142.7494   23785145.2244
 96  7 10  0 57  0.0000000  0  8G17G31G 3G28G21G 1G23G 9
  -9622127.54844  -7497754.63144  22294095.6384   22294097.8134
  -5873584.44544  -4576816.24144  22808048.5934   22808050.5414
 -20543693.81344 -16008067.73644  21391956.5214   21391958.4004
 -19191461.223 4 -14954381.935 4  21691603.907    21691602.404
 -25267182.38044 -19688691.22644  20799647.2764   20799648.7164
 -22931049.81044 -17868328.17344  20822183.6164   20822185.5564
 -17395103.28944 -13554600.67244  21956183.6084   21956185.1024
   -476536.48944   -371321.99644  23786004.7044   23786005.0904
 96  7 10  0 57 30.0000000  0  8G17G31G 3G28G21G 1G23G 9
  -9547471.15444  -7439580.85744  22308302.1324   22308304.4644
  -5921633.24744  -4614256.87544  22798905.4434   22798906.4384
 -20528848.08244 -15996499.65544  21394781.5794   21394783.5494
 -19113564.105 4 -14893682.923 4  21706427.320    21706425.772
 -25273771.15244 -19693825.33544  20798393.3984   20798394.8504
 -22987469.63844 -17912291.65244  20811447.3264   20811449.0914
 -17346518.64444 -13516742.51844  21965428.9364   21965430.1804
   -471470.65944   -367374.59144  23786968.3334   23786969.4324
 96  7 10  0 58  0.0000000  0  8G17G31G 3G28G21G 1G23G 9
  -9472508.38644  -7381168.35144  22322566.9714   22322569.3884
  -5969184.59144  -4651309.86644  22789856.5254   22789858.6344
 -20513382.80044 -15984448.80244  21397724.6764   21397726.7884
 -19035270.410 4 -14832674.892 4  21721326.201    21721324.648
 -25280146.33144 -19698793.00444  20797180.2944   20797181.6054
 -23043425.43144 -17955893.54644  20800799.2654   20800801.0894
 -17297802.18944 -13478781.66344  21974699.3904   21974700.4664
   -465873.04844   -363012.81244  23788033.3674   23788034.9314
 96  7 10  0 58 30.0000000  0  8G17G31G 3G28G21G 1G23G 9
  -9397238.88044  -7322516.83144  22336890.5534   22336892.4804
  -6016230.91444  -4687969.34544  22780903.8304   22780905.5514
 -20497287.48744 -15971907.02244  21400787.3654   21400789.3754
 -18956580.568 4 -14771358.173 4  21736300.369    21736298.901
 -25286308.50544 -19703594.69544  20796007.6734   20796009.1204
 -23098930.40644 -17999144.15444  20790237.0284   20790238.9624
 -17248957.48244 -13440720.86744  21983994.2354   21983995.7984
   -459748.65544   -358240.54144  23789199.0084   23789199.3984
 96  7 10  0 59  0.0000000  0  8G17G31G 3G28G21G 1G23G 9
  -9321665.58844  -7263628.59844  22351271.8704   22351274.0004
  -6062754.30744  -4724221.34144  22772050.4194   22772052.3944
 -20480563.56744 -15958875.41344  21403969.7844   21403971.8934
 -18877489.187 4 -14709728.564 4  21751350.976    21751349.555
 -25292256.13044 -19708229.20644  20794875.8664   20794877.3464
 -23153979.60644 -18042039.61344  20779761.5364   20779763.2544
 -17199994.63344 -13402568.01744  21993311.6144   21993312.9564
   -453084.70744   -353047.83444  23790467.1844   23790467.6844
 96  7 10  0 59 30.0000000  0  8G17G31G 3G28G21G 1G23G 9
  -9245791.27444  -7204505.79544  22365710.0324   22365712.6964
  -6108752.03244  -4760063.72944  22763297.7164   22763299.4774
 -20463248.76844 -15945383.38344  21407264.7844   21407266.7664
 -18798014.967 4 -14647800.643 4  21766474.388    21766472.991
 -25298026.49044 -19712725.59144  20793777.7244   20793779.2144
 -23208590.13944 -18084593.25344  20769369.4374   20769371.1264
 -17150934.46644 -13364339.32744  22002647.4194   22002648.9114
   -445909.62744   -347456.85844  23791832.5364   23791833.7194
 96  7 10  1  0  0.0000000  0  8G17G31G 3G28G21G 1G23G 9
  -9169593.12844  -7145130.65644  22380209.9214   22380212.5984
  -6154188.05344  -4795468.42444  22754651.4244   22754653.0444
 -20445338.74544 -15931427.54244  21410672.8494   21410674.8874
 -18718151.069 4 -14585569.078 4  21781672.108    21781670.539
 -25303618.35744 -19717082.88744  20792713.5684   20792715.0844
 -23262740.76344 -18126788.52344  20759064.8684   20759066.6594
 -17101774.13144 -13326032.59144  22012002.3564   22012003.6954
   -438223.78644   -341467.87844  23793295.0894   23793297.0794
 96  7 10  1  0 30.0000000  0  8G17G31G 3G28G21G 1G23G 9
  -9093046.52544  -7085483.99544  22394776.7524   22394778.5944
  -6199029.28644  -4830409.65744  22746118.5684   22746120.2164
 -20426827.57944 -15917003.27444  21414195.4714   21414197.3814
 -18637881.454 4 -14523021.368 4  21796947.003    21796945.310
 -25309008.57644 -19721283.05444  20791688.0294   20791689.4844
 -23316365.95244 -18168574.36344  20748860.2644   20748862.0224
 -17052509.64944 -13287644.68944  22021377.1524   22021378.3334
   -429999.86144   -335059.60944  23794859.7684   23794861.5674
 96  7 10  1  1  0.0000000  0  8G17G31G 3G28G21G 1G23G 9
  -9016211.34044  -7025612.47444  22409398.0654   22409399.9974
  -6243320.33844  -4864922.15844  22737689.9914   22737692.4144
 -20407787.77744 -15902167.08844  21417818.6794   21417820.5404
 -18557269.006 4 -14460206.514 4  21812287.078    21812285.380
 -25314258.29544 -19725373.73944  20790688.9124   20790690.4814
 -23369500.48044 -18209977.86844  20738749.1734   20738750.9944
 -17003200.23744 -13249221.78244  22030760.3624   22030761.6544
   -421289.55744   -328272.38144  23796517.0494   23796518.9564
 96  7 10  1  1 30.0000000  0  8G17G31G 3G28G21G 1G23G 9
  -8939060.40444  -6965494.89744  22424079.0924   22424081.6314
  -6287044.00544  -4898992.54544  22729369.6654   22729372.2034
 -20388193.00844 -15886898.45744  21421547.4554   21421549.1744
 -18476291.470 4 -14397107.177 4  21827696.550    21827694.962
 -25319333.83644 -19729328.70644  20789723.0684   20789724.4714
 -23422123.37544 -18250982.69844  20728735.3594   20728737.0034
 -16953820.58744 -13210744.15544  22040156.9664   22040158.2324
   -412075.82744   -321092.82944  23798270.3094   23798271.4084
 96  7 10  1  2  0.0000000  0  8G17G31G 3G28G21G 1G23G 9
  -8861602.58644  -6905138.19644  22438818.8844   22438821.1804
  -6330217.86844  -4932634.51844  22721154.0984   22721155.7094
 -20368027.90844 -15871185.41544  21425384.8604   21425386.9474
 -18394951.660 4 -14333725.547 4  21843174.957    21843173.418
 -25324229.98444 -19733143.88744  20788791.3714   20788792.8214
 -23474231.76944 -18291586.61944  20718819.3544   20718821.1154
 -16904370.97644 -13172212.01244  22049566.9894   22049568.1974
   -402335.74444   -313503.16044  23800123.7964   23800126.1944
 96  7 10  1  2 30.0000000  0  8G17G31G 3G28G21G 1G23G 9
  -8783847.55244  -6844549.90544  22453615.4514   22453617.5684
  -6372871.06644  -4965870.76844  22713037.3464   22713039.0804
 -20347276.35644 -15855015.39644  21429333.7834   21429335.9334
 -18313254.469 4 -14270065.439 4  21858721.450    21858719.801
 -25328946.32444 -19736818.95544  20787893.8794   20787895.3344
 -23525840.04244 -18331800.83744  20708998.6434   20709000.4234
 -16854848.27844 -13133622.91644  22058990.8664   22058992.0954
   -392060.22844   -305496.25044  23802079.3444   23802081.5954
 96  7 10  1  3  0.0000000  0  8G17G31G 3G28G21G 1G23G 9
  -8705810.65344  -6783741.97944  22468465.2264   22468467.2884
  -6415030.36644  -4998722.17444  22705014.4984   22705016.3624
 -20325941.95344 -15838391.20544  21433393.5244   21433395.5944
 -18231215.273 4 -14206138.834 4  21874333.133    21874331.289
 -25333491.61944 -19740360.73844  20787028.9704   20787030.3634
 -23576996.15244 -18371662.71944  20699263.9744   20699265.6094
 -16805258.52344 -13094981.56144  22068427.4804   22068428.8414
   -381267.90844   -297086.64444  23804133.2224   23804134.1584
 96  7 10  1  3 30.0000000  0  8G17G31G 3G28G21G 1G23G 9
  -8627456.43444  -6722686.78644  22483375.2024   22483377.5934
  -6456692.36444  -5031186.06344  22697086.6044   22697088.1154
 -20303995.31844 -15821289.95744  21437569.9364   21437571.9194
 -18148816.178 4 -14141931.788 4  21890013.159    21890011.426
 -25337859.12444 -19743763.98144  20786197.8484   20786199.1094
 -23627688.81144 -18411163.47144  20689617.5734   20689619.2454
 -16755580.02544 -13056271.05544  22077881.0074   22077882.3844
   -369941.30644   -288260.68344  23806288.6944   23806289.8634
 96  7 10  1  4  0.0000000  0  8G17G31G 3G28G21G 1G23G 9
  -8548790.24244  -6661388.48744  22498345.2404   22498347.7684
  -6497841.73744  -5063250.50644  22689256.2704   22689258.2214
 -20281429.71144 -15803706.38944  21441864.0274   21441865.9584
 -18066058.014 4 -14077444.954 4  21905761.590    21905759.968
 -25342056.80044 -19747034.89044  20785399.0244   20785400.5464
 -23677905.09344 -18450293.02344  20680061.6704   20680063.3124
 -16705809.46244 -13017488.81444  22087352.0354   22087353.4474
   -358069.12244   -279009.62144  23808547.9454   23808549.2534
 96  7 10  1  4 30.0000000  0  8G17G31G 3G28G21G 1G23G 9
  -8469822.74944  -6599855.41644  22513372.4644   22513374.5184
  -6538464.10344  -5094904.28744  22681526.1304   22681528.1624
 -20258266.89544 -15785657.46544  21446271.7564   21446273.5114
 -17982946.506 4 -14012682.788 4  21921577.158    21921575.711
 -25346084.03344 -19750172.98944  20784632.6854   20784634.2734
 -23727644.64144 -18489051.09344  20670596.5194   20670598.1944
 -16655952.81944 -12978639.49644  22096839.5474   22096840.6344
   -345668.29244   -269346.63544  23810908.0814   23810909.2504
 96  7 10  1  5  0.0000000  0  8G17G31G 3G28G21G 1G23G 9
  -8390559.08144  -6538091.56144  22528455.7284   22528457.7764
  -6578553.88944  -5126143.07444  22673897.1224   22673898.4484
 -20234530.72544 -15767161.77344  21450788.5754   21450790.5794
 -17899486.915 4 -13947649.387 4  21937459.063    21937457.421
 -25349939.04644 -19753176.89144  20783899.0404   20783900.5554
 -23776897.32244 -18527429.78944  20661224.0274   20661225.7494
 -16606016.68644 -12939728.23744  22106341.9944   22106343.4804
   -332746.44144   -259277.65144  23813366.8554   23813369.0384
 96  7 10  1  5 30.0000000  0  8G17G31G 3G28G21G 1G23G 9
  -8310980.79244  -6476082.54244  22543598.8454   22543602.0544
  -6618086.02744  -5156947.33544  22666374.3754   22666375.5144
 -20210210.43844 -15748210.92344  21455416.5954   21455418.5614
 -17815664.884 4 -13882333.569 4  21953409.955    21953408.187
 -25353592.86344 -19756024.01844  20783203.6894   20783205.3104
 -23825631.45844 -18565404.42344  20651950.2204   20651951.8664
 -16555984.08944 -12900741.81244  22115862.9254   22115863.9854
   -319285.37944   -248788.49844  23815928.2074   23815928.7974
 96  7 10  1  6  0.0000000  0  8G17G31G 3G28G21G 1G23G 9
  -8231160.51244  -6413884.96244  22558788.2714   22558791.1644
  -6657105.54244  -5187352.14644  22658949.3634   22658951.3454
 -20185375.77844 -15728859.26744  21460142.4874   21460144.5454
 -17731540.044 4 -13816781.791 4  21969418.510    21969416.582
 -25357073.83644 -19758736.46244  20782541.3024   20782542.7854
 -23873904.53144 -18603019.78844  20642764.0774   20642765.8564
 -16505916.47344 -12861728.09344  22125390.3884   22125391.4554
   -305340.03844   -237921.97944  23818581.8684   23818583.4964
 96  7 10  1  6 30.0000000  0  8G17G31G 3G28G21G 1G23G 9
  -8151064.20944  -6351472.29744  22574030.1374   22574032.7044
  -6695607.66344  -5217353.79244  22651622.7674   22651623.8574
 -20160021.98344 -15709103.08944  21464967.0944   21464969.1804
 -17647094.393 4 -13750980.033 4  21985488.134    21985486.219
 -25360343.74644 -19761284.44244  20781919.0674   20781920.4964
 -23921699.62544 -18640262.70044  20633668.9544   20633670.5094
 -16455792.62544 -12822670.56244  22134928.7764   22134930.1504
   -290895.79944   -226666.72444  23821330.7674   23821332.6754
 96  7 10  1  7  0.0000000  0  8G17G31G 3G28G21G 1G23G 9
  -8070615.14644  -6288784.76044  22589339.1174   22589341.9794
  -6733524.31844  -5246899.22944  22644407.2984   22644409.3784
 -20134071.94544 -15688882.30844  21469905.2074   21469907.3654
 -17562261.808 4 -13684876.769 4  22001631.212    22001629.336
 -25363328.63044 -19763610.32144  20781351.1074   20781352.5904
 -23968951.68644 -18677082.47044  20624677.2064   20624678.7814
 -16405535.23744 -12783508.97144  22144492.4544   22144493.7594
   -275875.24044   -214962.37744  23824188.7674   23824190.7764
 96  7 10  1  7 30.0000000  0  8G17G31G 3G28G21G 1G23G 9
  -7989859.84544  -6225858.59244  22604706.3644   22604708.8234
  -6770889.17044  -5276014.68444  22637296.9494   22637299.2744
 -20107560.24444 -15668223.87344  21474950.1364   21474952.3014
 -17477090.913 4 -13618509.886 4  22017838.745    22017836.872
 -25366083.06144 -19765756.62844  20780826.8874   20780828.3644
 -24015712.25344 -18713519.25744  20615778.9914   20615780.6044
 -16355188.97944 -12744278.13244  22154072.9664   22154074.6074
   -260319.90744   -202841.32244  23827148.5714   23827150.6904
 96  7 10  1  8  0.0000000  0  8G17G31G 3G28G21G 1G23G 9
  -7908786.93644  -6162684.93444  22620134.0564   22620137.1124
  -6807688.22344  -5304689.26644  22630294.4014   22630296.7114
 -20080468.71844 -15647113.62644  21480105.4754   21480107.6074
 -17391568.879 4 -13551869.390 4  22034113.006    22034111.306
 -25368615.82244 -19767730.20744  20780345.0154   20780346.4934
 -24061965.70444 -18749560.88644  20606977.3014   20606978.7234
 -16304738.04244 -12704965.71944  22163673.4664   22163674.7844
   -244208.83444   -190287.24244  23830214.5324   23830215.6214
 96  7 10  1  8 30.0000000  0  8G17G31G 3G28G21G 1G23G 9
  -7827413.31944  -6099276.96744  22635619.0334   22635621.6104
  -6843941.42844  -5332938.49944  22623395.6824   22623397.3664
 -20052799.60844 -15625553.31644  21485370.8314   21485372.7544
 -17305715.769 4 -13484970.913 4  22050450.353    22050448.697
 -25370972.93244 -19769566.91444  20779896.4444   20779897.8904
 -24107727.81444 -18785219.65144  20598268.9584   20598270.5844
 -16254186.66744 -12665575.05044  22173293.0814   22173294.4714
   -227560.75544   -177314.69944  23833382.6424   23833384.2884
 96  7 10  1  9  0.0000000  0  8G17G31G 3G28G21G 1G23G 9
  -7745740.47544  -6035635.81944  22651161.1024   22651162.6494
  -6879627.64644  -5360745.93944  22616604.5364   22616606.5984
 -20024524.22744 -15603520.59444  21490751.5294   21490753.4324
 -17219522.961 4 -13417807.740 4  22066852.364    22066850.665
 -25373162.31144 -19771272.92444  20779479.8324   20779481.2074
 -24152987.09244 -18820486.60344  20589656.2594   20589658.1494
 -16203526.36944 -12626099.50044  22182933.4094   22182934.8284
   -210369.45344   -163918.87844  23836654.1994   23836656.0914
 96  7 10  1  9 30.0000000  0  8G17G31G 3G28G21G 1G23G 9
  -7663796.75144  -5971783.61344  22666754.3754   22666756.4744
  -6914776.60944  -5388134.73144  22609915.9924   22609918.6064
 -19995671.90844 -15581038.30744  21496241.9744   21496244.1544
 -17133017.894 4 -13350401.247 4  22083313.756    22083312.063
 -25375209.64844 -19772868.25344  20779090.2374   20779091.6214
 -24197765.96144 -18855379.21344  20581135.1494   20581136.9704
 -16152787.32944 -12586562.59344  22192588.5974   22192589.9654
   -192673.90644   -150130.11944  23840021.2694   23840022.7104
 96  7 10  1 10  0.0000000  0  8G17G31G 3G28G21G 1G23G 9
  -7581554.56044  -5907698.83244  22682404.4154   22682407.3024
  -6949361.22244  -5415083.77644  22603335.1104   22603336.9554
 -19966233.94744 -15558099.67544  21501843.9714   21501846.2184
 -17046177.889 4 -13282733.765 4  22099838.988    22099837.165
 -25377077.11944 -19774323.42644  20778734.8624   20778736.2074
 -24242038.20444 -18889877.04544  20572710.5394   20572712.0744
 -16101939.82444 -12546941.17544  22202264.5844   22202265.8264
   -174446.93744   -135927.28644  23843489.5104   23843491.5944
 96  7 10  1 10 30.0000000  0  8G17G31G 3G28G21G 1G23G 9
  -7499029.23544  -5843393.43244  22698108.5434   22698110.8904
  -6983396.37844  -5441604.67144  22596858.6424   22596859.8334
 -19936237.98344 -15534726.23244  21507552.0204   21507553.9804
 -16959026.939 4 -13214823.989 4  22116423.235    22116421.570
 -25378771.03844 -19775643.36144  20778412.5134   20778413.8814
 -24285829.32144 -18923999.97444  20564377.2264   20564378.8954
 -16051011.95144 -12507257.13444  22211955.9314   22211957.1604
   -155717.30644   -121332.74244  23847053.4814   23847056.8524
 96  7 10  1 11  0.0000000  0  8G17G31G 3G28G21G 1G23G 9
  -7416215.46944  -5778863.27644  22713867.4574   22713870.3484
  -7016873.81244  -5467690.98044  22590487.7464   22590489.8454
 -19905703.72144 -15510933.34044  21513362.4264   21513364.6954
 -16871567.405 4 -13146673.757 4  22133066.263    22133064.574
 -25380272.44944 -19776813.29244  20778126.8714   20778128.1274
 -24329139.48244 -18957748.13244  20556135.5704   20556137.3264
 -16000022.39044 -12467525.02744  22221658.9524   22221660.2754
   -136482.85444   -106344.85244  23850713.8824   23850715.2154
 96  7 10  1 11 30.0000000  0  8G17G31G 3G28G21G 1G23G 9
  -7333114.07944  -5714109.00244  22729681.2514   22729684.3264
  -7049790.83744  -5493340.61044  22584223.7374   22584225.3974
 -19874641.22444 -15486728.83244  21519273.4674   21519275.6054
 -16783809.437 4 -13078290.981 4  22149766.188    22149764.383
 -25381582.80444 -19777834.35044  20777877.4434   20777878.8494
 -24371976.50544 -18991127.61244  20547984.1054   20547985.6254
 -15948976.03844 -12427748.65944  22231372.6924   22231373.7134
   -116729.09944    -90952.31544  23854473.4134   23854474.0534
 96  7 10  1 12  0.0000000  0  8G17G31G 3G28G21G 1G23G 9
  -7249698.78644  -5649110.12344  22745554.6534   22745557.5774
  -7082123.83844  -5518535.15444  22578071.0134   22578072.9944
 -19843021.29244 -15462089.95644  21525290.7294   21525292.7304
 -16695731.691 4 -13009659.029 4  22166526.809    22166524.828
 -25382689.42644 -19778696.65644  20777666.8744   20777668.3904
 -24414308.24844 -19024113.36844  20539928.4824   20539930.0484
 -15897848.34244 -12387908.91544  22241101.9484   22241103.5854
    -96423.90344    -75130.06444  23858337.3464   23858337.4784
 96  7 10  1 12 30.0000000  0  8G17G31G 3G28G21G 1G23G 9
  -7165987.05944  -5583880.25844  22761484.3154   22761486.8504
  -7113894.81244  -5543291.76744  22572025.2914   22572027.1774
 -19810847.88644 -15437019.80744  21531413.1984   21531415.2594
 -16607353.155 4 -12940792.691 4  22183344.839    22183342.827
 -25383618.73144 -19779420.79244  20777489.9664   20777491.4534
 -24456141.55244 -19056710.72944  20531967.8234   20531969.4854
 -15846661.66844 -12348023.21144  22250842.4394   22250843.9784
    -75588.42844    -58894.61544  23862301.8544   23862303.2994
 96  7 10  1 13  0.0000000  0  8G17G31G 3G28G21G 1G23G 9
  -7081995.31644  -5518432.18944  22777467.4434   22777470.2734
  -7145112.44144  -5567617.20744  22566084.6444   22566086.7104
 -19778119.04044 -15411516.84844  21537641.1464   21537643.4274
 -16518685.089 4 -12871700.750 4  22200217.898    22200215.846
 -25384382.99744 -19780016.32544  20777344.4784   20777345.9374
 -24497470.09044 -19088914.76544  20524103.4214   20524104.8574
 -15795420.92144 -12308095.37644  22260593.2814   22260594.4604
    -54224.04544    -42247.05344  23866367.1074   23866367.7134
 96  7 10  1 13 30.0000000  0  8G17G31G 3G28G21G 1G23G 9
  -6997727.59344  -5452769.08344  22793503.2964   22793505.6334
  -7175792.28844  -5591523.59344  22560246.3424   22560248.3354
 -19744830.73344 -15385577.93844  21543975.7584   21543978.0864
 -16429738.947 4 -12802392.125 4  22217143.721    22217141.824
 -25385003.27744 -19780499.65944  20777226.4994   20777227.9924
 -24538289.22044 -19120721.86044  20516335.6874   20516337.2694
 -15744127.75644 -12268126.69044  22270354.1564   22270355.3934
    -32335.73444    -25191.21544  23870532.6374   23870532.9054
 96  7 10  1 14  0.0000000  0  8G17G31G 3G28G21G 1G23G 9
  -6913164.43844  -5386875.76444  22809595.1404   22809597.8364
  -7205931.38044  -5615008.61444  22554511.2104   22554512.9424
 -19710988.83144 -15359207.66144  21550415.6084   21550417.7054
 -16340499.639 4 -12732855.059 4  22234125.500    22234123.469
 -25385460.62844 -19780856.03444  20777139.4374   20777140.9614
 -24578584.24444 -19152120.56044  20508667.6814   20508669.4274
 -15692766.77244 -12228105.16344  22280127.7334   22280129.0354
     -9915.86244     -7721.18944  23874799.0374   23874800.8934
 96  7 10  1 14 30.0000000  0  8G17G31G 3G28G21G 1G23G 9
  -6828315.56644  -5320759.80844  22825741.3004   22825744.3054
  -7235531.37144  -5638073.56444  22548878.7474   22548880.6084
 -19676604.08944 -15332414.38844  21556958.6804   21556961.0074
 -16250975.803 4 -12663096.288 4  22251161.224    22251159.376
 -25385746.34844 -19781078.67344  20777085.0544   20777086.6614
 -24618366.41944 -19183119.63944  20501097.4814   20501098.9864
 -15641342.74644 -12188034.50644  22289913.4804   22289915.0144
     13037.30744     10164.39344  23879167.0824   23879167.5404
 96  7 10  1 15  0.0000000  0  8G17G31G 3G28G21G 1G23G 9
  -6743179.66544  -5254420.21044  22841942.2204   22841944.9354
  -7264585.59044  -5660713.22944  22543349.8374   22543351.5874
 -19641676.09744 -15305197.80244  21563605.3764   21563607.4944
 -16161167.441 4 -12593115.802 4  22268251.233    22268249.402
 -25385851.18444 -19781160.36744  20777065.0104   20777066.5994
 -24657641.65544 -19213723.69944  20493623.5154   20493625.1264
 -15589849.23644 -12147909.71344  22299712.3744   22299713.9264
     36533.75144     28473.32944  23883637.8624   23883639.3634
 96  7 10  1 15 30.0000000  0  8G17G31G 3G28G21G 1G23G 9
  -6657742.85644  -5187846.12344  22858200.4174   22858203.5354
  -7293080.98644  -5682917.45644  22537927.3714   22537929.3554
 -19606216.04144 -15277566.62244  21570353.3814   21570355.7444
 -16071063.414 4 -12522904.934 4  22285397.639    22285395.790
 -25385760.17444 -19781089.45144  20777082.4144   20777083.9424
 -24696417.88444 -19243938.92544  20486244.6444   20486246.3274
 -15538267.36444 -12107716.05844  22309527.9714   22309528.9864
     60585.99444     47215.32044  23888215.3604   23888215.8664
 96  7 10  1 16  0.0000000  0  8G17G31G 3G28G21G 1G23G 9
  -6572032.48444  -5121058.88744  22874510.6044   22874513.4224
  -7321013.56444  -5704683.12144  22532612.1964   22532614.2424
 -19570241.50344 -15249534.54344  21577198.8774   21577201.2944
 -15980673.733 4 -12452471.475 4  22302598.277    22302596.349
 -25385475.73744 -19780867.81344  20777136.6314   20777138.0404
 -24734709.33744 -19273776.40244  20478958.0764   20478959.6684
 -15486599.73844 -12067455.58944  22319360.0994   22319361.5294
     85178.34944     66378.21444  23892895.1864   23892896.2094
 96  7 10  1 16 30.0000000  0  8G17G31G 3G28G21G 1G23G 9
  -6486086.06944  -5054087.72644  22890865.5784   22890868.7374
  -7348395.31544  -5726019.57844  22527401.3644   22527403.6444
 -19533760.28644 -15221107.65144  21584141.1254   21584143.4354
 -15890030.271 4 -12381840.267 4  22319847.326    22319845.199
 -25385029.92044 -19780520.42244  20777221.5104   20777222.8744
 -24772525.24244 -19303243.32244  20471761.8814   20471763.4784
 -15434876.15944 -12027151.51244  22329202.8224   22329203.9634
    110275.63944     85934.55244  23897670.8154   23897671.8574
 96  7 10  1 17  0.0000000  0  7G17G31G 3G28G21G 1G23
  -6399880.87744  -4986914.91144  22907270.0204   22907272.8844
  -7375198.11844  -5746904.90444  22522300.8444   22522302.9704
 -19496751.07244 -15192269.33544  21591184.0084   21591186.1844
 -15799114.057 4 -12310996.524 4  22337148.054    22337145.967
 -25384415.25244 -19780041.46044  20777338.3554   20777339.8044
 -24809846.08344 -19332324.47744  20464659.9234   20464661.5934
 -15383071.40844 -11986784.18344  22339060.9214   22339062.2444
 96  7 10  1 17 30.0000000  0  7G17G31G 3G28G21G 1G23
  -6313404.41844  -4919530.71844  22923725.9134   22923728.1294
  -7401420.95444  -5767338.30544  22517310.5704   22517312.7664
 -19459210.79844 -15163017.20344  21598327.6074   21598329.6624
 -15707923.782 4 -12239939.227 4  22354501.020    22354498.964
 -25383634.43844 -19779433.03844  20777486.9004   20777488.3834
 -24846657.97744 -19361009.05244  20457654.9444   20457656.4554
 -15331178.52844 -11946348.18744  22348935.7594   22348937.1934
 96  7 10  1 18  0.0000000  0  8G17G31G 3G28G21G 1G23G25
  -6226643.61544  -4851924.95544  22940235.7614   22940238.9334
  -7427065.81144  -5787321.33144  22512430.6774   22512432.2974
 -19421113.86444 -15133331.30944  21605577.2134   21605579.4694
 -15616459.523 4 -12168668.442 4  22371906.128    22371904.117
 -25382678.48644 -19778688.14744  20777668.9534   20777670.4044
 -24882938.31244 -19389279.42444  20450750.9324   20450752.4924
 -15279191.58444 -11905838.89144  22358828.7384   22358830.4514
         0.04054         1.17054  25378200.9014
 96  7 10  1 18 30.0000000  0  8G17G31G 3G28G21G 1G23G25
  -6139574.66244  -4784079.07644  22956804.3974   22956807.3394
  -7452147.40244  -5806865.45644  22507657.8954   22507660.3004
 -19382443.99344 -15103198.96844  21612935.8894   21612938.3344
 -15524721.848 4 -12097184.605 4  22389363.236    22389361.292
 -25381534.04744 -19777796.37844  20777886.7504   20777888.1474
 -24918689.47644 -19417137.45544  20443947.7294   20443949.3654
 -15227112.09044 -11865257.47844  22368738.9524   22368740.2174
    -92221.42944    -71859.49144  25360651.7654   25360658.9474
 96  7 10  1 19  0.0000000  0  8G17G31G 3G28G21G 1G23G25
  -6052209.04244  -4716002.02944  22973429.8674   22973432.4234
  -7476697.59644  -5825995.50344  22502986.1534   22502988.5594
 -19343228.25544 -15072641.27944  21620398.2204   21620400.3324
 -15432727.409 4 -12025500.689 4  22406869.387    22406867.195
 -25380203.81644 -19776759.83744  20778139.8614   20778141.2384
 -24953953.23944 -19444615.69444  20437237.2904   20437238.8734
 -15174953.22944 -11824614.22244  22378664.6594   22378665.5284
   -184603.84044   -143845.61244  25343071.6944   25343079.8854
 96  7 10  1 19 30.0000000  0  8G17G31G 3G28G21G 1G23G25
  -5964539.60044  -4647688.24944  22990112.7704   22990115.7454
  -7500710.01144  -5844706.50244  22498416.6844   22498418.8194
 -19303470.61044 -15041661.32144  21627963.9474   21627966.2814
 -15340466.291 4 -11953608.973 4  22424426.308    22424423.933
 -25378661.86044 -19775558.31144  20778433.2784   20778434.6894
 -24988713.10344 -19471701.28544  20430622.6914   20430624.1154
 -15122706.25044 -11783902.30344  22388606.8024   22388608.2034
   -277128.30544   -215942.35744  25325464.1484   25325472.3394
 96  7 10  1 20  0.0000000  0  8G17G31G 3G28G21G 1G23G25
  -5876572.40944  -4579142.44044  23006852.3944   23006855.6634
  -7524167.43744  -5862985.03244  22493953.1024   22493954.6744
 -19263168.58144 -15010257.17044  21635633.1504   21635635.7304
 -15247934.344 4 -11881506.222 4  22442034.606    22442032.284
 -25376893.05244 -19774180.01944  20778769.8784   20778771.2734
 -25022959.14144 -19498386.49144  20424105.8814   20424107.3874
 -15070366.75544 -11743118.29144  22398566.6474   22398568.2354
   -369790.40644   -288146.40944  25307831.5274   25307842.2004
 96  7 10  1 20 30.0000000  0  8G17G31G 3G28G21G 1G23G25
  -5788321.15544  -4510375.29944  23023646.3234   23023648.6494
  -7547059.32044  -5880822.89044  22489597.0914   22489599.4914
 -19222341.67344 -14978444.02344  21643402.3324   21643404.3944
 -15155131.908 4 -11809192.705 4  22459694.530    22459692.206
 -25374903.80144 -19772629.95544  20779148.3954   20779149.7144
 -25056698.84744 -19524677.15344  20417685.3854   20417686.9314
 -15017936.50844 -11702263.56844  22408543.7994   22408544.8224
   -462586.82344   -360455.09344  25290172.9194   25290181.6074
 96  7 10  1 21  0.0000000  0  8G17G31G 3G28G21G 1G23G25
  -5699829.18844  -4441420.57644  23040485.9964   23040488.5794
  -7569395.54144  -5898227.76644  22485346.6234   22485348.2164
 -19181045.00744 -14946264.83244  21651260.9174   21651263.2854
 -15062093.252 4 -11736695.122 4  22477399.117    22477397.001
 -25372732.08544 -19770937.71344  20779561.7084   20779563.1004
 -25089956.30844 -19550592.04144  20411356.7334   20411358.2534
 -14965432.52344 -11661351.37944  22418534.8284   22418536.5974
   -555540.84544   -432886.58144  25272484.1314   25272494.0604
 96  7 10  1 21 30.0000000  0  8G17G31G 3G28G21G 1G23G25
  -5611078.80144  -4372264.50044  23057374.5594   23057377.4764
  -7591146.03044  -5915176.21744  22481207.5244   22481209.6974
 -19139248.68744 -14913696.30344  21659214.4194   21659216.7344
 -14968807.888 4 -11664005.296 4  22495150.703    22495148.699
 -25370371.93244 -19769098.63544  20780010.7904   20780012.3024
 -25122691.35544 -19576099.85644  20405127.4464   20405128.9844
 -14912828.40644 -11620361.16844  22428545.2524   22428546.1774
   -648650.23144   -505439.10744  25254765.5704   25254774.2584
 96  7 10  1 22  0.0000000  0  8G17G31G 3G28G21G 1G23G25
  -5522065.45644  -4302903.50844  23074313.2824   23074315.4904
  -7612303.73344  -5931662.75844  22477181.3524   22477183.0014
 -19096933.27944 -14880723.28644  21667266.8554   21667269.4414
 -14875274.020 4 -11591121.834 4  22512949.705    22512947.619
 -25367824.90144 -19767113.93644  20780495.5044   20780496.8904
 -25154901.56844 -19601198.70744  20398997.9124   20398999.4214
 -14860120.93544 -11579290.42644  22438575.1394   22438577.0124
   -741923.53144   -578119.38244  25237015.8254   25237021.2524
 96  7 10  1 22 30.0000000  0  8G17G31G 3G28G21G 1G23G25
  -5432807.32944  -4233351.77444  23091298.4594   23091301.1884
  -7632893.87244  -5947707.03744  22473263.3334   22473264.9674
 -19054112.98044 -14847356.85244  21675415.3824   21675417.8504
 -14781519.204 4 -11518066.204 4  22530790.613    22530788.652
 -25365117.01344 -19765003.89044  20781010.7704   20781012.2524
 -25186622.92944 -19625916.63644  20392961.5894   20392963.0734
 -14807331.91644 -11538156.13944  22448620.6354   22448621.6204
   -835387.89344   -650948.51744  25219230.2424   25219235.0024
 96  7 10  1 23  0.0000000  0  8G17G31G 3G28G21G 1G23G25
  -5343294.34144  -4163601.45344  23108332.2264   23108335.7584
  -7652917.55444  -5963309.92744  22469452.9654   22469454.7294
 -19010765.01944 -14813579.25244  21683664.1074   21683666.6054
 -14687542.757 4 -11444837.865 4  22548673.830    22548671.783
 -25362245.23544 -19762766.13544  20781557.2574   20781558.7024
 -25217845.48044 -19650245.88044  20387020.0814   20387021.6104
 -14754463.99444 -11496960.37144  22458680.9804   22458682.3504
   -929046.89944   -723929.28344  25201407.1994   25201413.7694
 96  7 10  1 23 30.0000000  0  8G17G31G 3G28G21G 1G23G25
  -5253510.48644  -4093640.06744  23125417.4144   23125420.5264
  -7672366.89444  -5978465.28044  22465751.7614   22465754.0694
 -18966871.31344 -14779376.39044  21692016.7164   21692019.2364
 -14593330.338 4 -11371425.658 4  22566601.927    22566599.768
 -25359201.07544 -19760394.05944  20782136.5254   20782137.9804
 -25248555.09344 -19674175.43644  20381176.2984   20381177.7964
 -14701525.73644 -11455709.80144  22468754.7094   22468756.5744
  -1022882.72744   -797047.84744  25183550.8624   25183560.5434
 96  7 10  1 24  0.0000000  0  8G17G31G 3G28G21G 1G23G25
  -5163457.48944  -4023468.95644  23142553.9504   23142557.1624
  -7691245.29544  -5993175.72644  22462159.2844   22462160.8434
 -18922445.24544 -14744758.70644  21700470.9594   21700473.1944
 -14498882.890 4 -11297830.310 4  22584574.672    22584572.541
 -25355982.09844 -19757885.76044  20782749.0974   20782750.4694
 -25278758.60044 -19697710.61944  20375428.8374   20375430.0604
 -14648532.17344 -11414416.14144  22478839.0914   22478840.3144
  -1116872.50644   -870286.38244  25165665.3134   25165671.5564
 96  7 10  1 24 30.0000000  0  8G17G31G 3G28G21G 1G23G25
  -5073139.93144  -3953091.68644  23159740.8424   23159743.8764
  -7709566.62944  -6007452.10544  22458672.9614   22458675.0814
 -18877504.09944 -14709739.66244  21709023.1684   21709025.2494
 -14404211.519 4 -11224060.483 4  22602590.116    22602587.843
 -25352593.68844 -19755245.43844  20783393.8434   20783395.2594
 -25308456.29344 -19720851.66144  20369777.4444   20369778.8994
 -14595491.30444 -11373085.61044  22488932.5064   22488933.6514
  -1211000.64644   -943632.74144  25147753.4124   25147759.5574
 96  7 10  1 25  0.0000000  0  8G17G31G 3G28G21G 1G23G25
  -4982564.41444  -3882513.41344  23176977.0834   23176980.7464
  -7727338.63444  -6021300.43044  22455290.9804   22455292.7824
 -18832077.67844 -14674342.48044  21717667.2744   21717669.7514
 -14309322.800 4 -11150121.293 4  22620646.880    22620644.587
 -25349044.44044 -19752479.78644  20784069.2754   20784070.6814
 -25337643.86244 -19743595.20644  20364223.1004   20364224.6884
 -14542413.19144 -11331726.06544  22499032.9284   22499034.8154
  -1305262.84744  -1017083.53244  25129815.6124   25129824.7964
 96  7 10  1 25 30.0000000  0  8G17G31G 3G28G21G 1G23G25
  -4891715.11744  -3811721.80044  23194265.2304   23194268.2594
  -7744534.87244  -6034700.10944  22452018.8244   22452020.3154
 -18786163.21044 -14638565.00044  21726404.6694   21726406.7144
 -14214200.730 4 -11076000.271 4  22638748.046    22638745.718
 -25345309.98344 -19749569.81644  20784779.9464   20784781.3834
 -25366298.69444 -19765923.63244  20358770.3824   20358771.8134
 -14489263.93844 -11290311.08144  22509146.9034   22509148.0224
  -1399623.65244  -1090611.10844  25111859.5774   25111866.7514
 96  7 10  1 26  0.0000000  0  8G17G31G 3G28G21G 1G23G25
  -4800602.64544  -3740725.12844  23211603.4214   23211606.6704
  -7761168.41744  -6047661.31844  22448853.4374   22448855.5974
 -18739761.49544 -14602407.85344  21735234.6594   21735237.1824
 -14118860.022 4 -11001708.884 4  22656890.951    22656888.585
 -25341387.35344 -19746513.21744  20785526.4104   20785527.7394
 -25394427.25444 -19787841.97544  20353417.5674   20353418.9804
 -14436036.79144 -11248835.40244  22519275.7154   22519277.4214
  -1494092.12044  -1164222.61744  25093882.7004   25093886.5214
 96  7 10  1 26 30.0000000  0  8G17G31G 3G28G21G 1G23G25
  -4709236.38844  -3669530.69144  23228989.8224   23228993.0334
  -7777245.00744  -6060188.55144  22445794.0724   22445796.4334
 -18692874.86544 -14565872.85244  21744156.8674   21744159.3624
 -14023309.616 4 -10927254.096 4  22675073.616    22675071.245
 -25337284.42844 -19743316.12744  20786307.0974   20786308.4184
 -25422043.89544 -19809361.42344  20348162.3224   20348163.6774
 -14382727.36744 -11207295.61044  22529420.2554   22529421.3034
  -1588695.11144  -1237938.89644  25075879.9184   25075885.0074
 96  7 10  1 27  0.0000000  0  8G17G31G 3G28G21G 1G23G25
  -4617592.68344  -3598120.06244  23246429.1754   23246432.3374
  -7792723.68344  -6072249.87044  22442848.6014   22442850.4334
 -18645472.42744 -14528935.91944  21753177.2814   21753179.8424
 -13927527.808 4 -10852618.995 4  22693300.327    22693298.214
 -25332975.99644 -19739958.90344  20787126.9154   20787128.2084
 -25449129.46844 -19830467.05044  20343008.1674   20343009.5974
 -14329308.56944 -11165670.59744  22539585.5044   22539587.0424
  -1683419.67144  -1311749.91744  25057854.2964   25057861.0094
 96  7 10  1 27 30.0000000  0  8G17G31G 3G28G21G 1G23G25
  -4525703.44744  -3526518.12144  23263915.1044   23263918.2704
  -7807622.30844  -6083859.20744  22440013.5394   22440015.5134
 -18597559.22044 -14491600.98944  21762294.7454   21762297.3504
 -13831538.170 4 -10777821.953 4  22711566.675    22711564.609
 -25328482.49644 -19736457.47344  20787981.9914   20787983.4924
 -25475712.13544 -19851180.80544  20337949.5694   20337951.1184
 -14275797.33244 -11123973.54744  22549768.2874   22549769.9994
  -1778290.09044  -1385674.57044  25039800.8684   25039807.3624
 96  7 10  1 28  0.0000000  0  8G17G31G 3G28G21G 1G23G25
  -4433552.43944  -3454712.20244  23281450.9474   23281454.0444
  -7821930.55944  -6095008.51144  22437290.6764   22437292.8344
 -18549112.68644 -14453850.48144  21771513.8024   21771516.4764
 -13735327.197 4 -10702852.448 4  22729875.053    22729873.230
 -25323801.24844 -19732809.74944  20788872.7114   20788874.2944
 -25501792.08544 -19871502.83244  20332986.7154   20332988.2694
 -14222192.54344 -11082203.60244  22559968.9894   22559970.1724
  -1873306.27844  -1459712.80744  25021719.1654   25021725.8554
 96  7 10  1 28 30.0000000  0  8G17G31G 3G28G21G 1G23G25
  -4341166.38144  -3382723.13244  23299031.2164   23299034.1114
  -7835664.14844  -6105710.02744  22434677.2604   22434679.0624
 -18500161.99944 -14415707.11744  21780828.8644   21780831.4284
 -13638924.805 4 -10627733.782 4  22748219.989    22748217.935
 -25318966.48544 -19729042.40144  20789792.8094   20789794.3624
 -25527399.87844 -19891456.94644  20328113.7954   20328115.2054
 -14168527.30644 -11040386.55144  22570181.1654   22570182.8514
  -1968489.19944  -1533880.99044  25003606.6064   25003610.8884
 96  7 10  1 29  0.0000000  0  8G17G31G 3G28G21G 1G23G25
  -4248539.10044  -3310546.09144  23316657.4344   23316660.9784
  -7848813.37044  -6115956.19144  22432175.2354   22432177.3504
 -18450721.97344 -14377182.45344  21790237.2094   21790239.4084
 -13542330.282 4 -10552465.405 4  22766601.425    22766599.206
 -25313967.61044 -19725147.17544  20790744.0124   20790745.5854
 -25552523.90644 -19911034.09844  20323332.8384   20323334.2304
 -14114806.18444 -10998525.95744  22580404.0474   22580405.8524
  -2063806.63544  -1608154.01544  24985468.1434   24985475.1514
 96  7 10  1 29 30.0000000  0  8G17G31G 3G28G21G 1G23G25
  -4155655.12544  -3238169.01644  23334332.8724   23334336.4594
  -7861387.81944  -6125754.47744  22429782.5224   22429784.4104
 -18400794.17344 -14338277.71144  21799738.0554   21799740.9874
 -13445538.076 4 -10477042.979 4  22785020.420    22785017.877
 -25308787.63744 -19721110.83444  20791729.7794   20791731.3974
 -25577155.61244 -19930227.62444  20318645.5274   20318646.9594
 -14061020.91444 -10956615.38044  22590639.1364   22590640.9564
  -2159240.02144  -1682517.42244  24967307.5884   24967312.4584
 96  7 10  1 30  0.0000000  0  8G17G31G 3G28G21G 1G23G25
  -4062508.89944  -3165587.60244  23352058.1254   23352061.0044
  -7873410.12644  -6135122.52944  22427494.4304   22427496.3204
 -18350405.26744 -14299013.66544  21809326.6404   21809329.4814
 -13348567.965 4 -10401481.935 4  22803473.457    22803470.656
 -25303429.22544 -19716935.45244  20792749.4404   20792750.8114
 -25601298.80744 -19949040.49144  20314051.2094   20314052.5834
 -14007192.36344 -10914671.07144  22600882.3164   22600883.5084
  -2254800.67044  -1756980.04044  24949122.5684   24949127.3894
 96  7 10  1 30 30.0000000  0  8G17G31G 3G28G21G 1G23G25
  -3969097.07944  -3092799.23244  23369833.9604   23369836.3114
  -7884875.90844  -6144056.91744  22425312.4004   22425314.8304
 -18299562.39844 -14259395.88044  21819001.9584   21819004.1234
 -13251419.935 4 -10325782.247 4  22821960.069    22821957.363
 -25297867.12744 -19712601.34944  20793807.9294   20793809.4564
 -25624933.95844 -19967457.47944  20309553.5234   20309554.9464
 -13953314.50444 -10872688.34344  22611134.9774   22611136.5484
  -2350474.49044  -1831530.78144  24930916.5084   24930921.8574
 96  7 10  1 31  0.0000000  0  8G17G31G 3G28G21G 1G23G25
  -3875403.78944  -3019791.54144  23387663.1354   23387665.1414
  -7895782.53244  -6152555.59744  22423237.1414   22423239.2664
 -18248259.96644 -14219419.99544  21828764.4504   21828766.5854
 -13154086.374 4 -10249937.991 4  22840481.893    22840479.259
 -25292083.88844 -19708094.92944  20794908.4584   20794909.9334
 -25648048.88444 -19985469.09844  20305154.9154   20305156.3154
 -13899369.07044 -10830652.95344  22621400.5714   22621402.0294
  -2446254.00244  -1906163.92744  24912690.0014   24912694.7454
 96  7 10  1 31 30.0000000  0  8G17G31G 3G28G21G 1G23G25
  -3781431.93144  -2946566.75744  23405545.4224   23405549.5774
  -7906144.91744  -6160630.20244  22421265.2734   22421267.4974
 -18196483.25044 -14179074.53644  21838617.1704   21838619.5834
 -13056572.349 4 -10173953.111 4  22859038.426    22859035.702
 -25286088.60544 -19703423.28444  20796049.3564   20796050.8174
 -25670641.97444 -20003074.09244  20300855.6194   20300856.9854
 -13845345.30244 -10788556.53444  22631680.8744   22631682.3214
  -2542160.41144  -1980896.01344  24894439.0904   24894442.9784
 96  7 10  1 32  0.0000000  0  8G17G31G 3G28G21G 1G23G25
  -3687208.85844  -2873146.24944  23423475.4544   23423478.2884
  -7915956.81844  -6168275.84644  22419398.1854   22419400.3594
 -18144232.40944 -14138359.63344  21848560.3824   21848562.5374
 -12958888.781 4 -10097836.129 4  22877626.955    22877624.161
 -25279903.62644 -19698603.82644  20797226.2224   20797227.7014
 -25692725.41244 -20020281.95444  20296653.3184   20296654.7344
 -13791246.41744 -10746401.57244  22641975.3654   22641976.6944
  -2638208.46544  -2055738.45944  24876161.5144   24876164.6204
 96  7 10  1 32 30.0000000  0  8G17G31G 3G28G21G 1G23G25
  -3592728.90944  -2799525.57744  23441454.4854   23441458.0724
  -7925186.98344  -6175468.19844  22417641.9504   22417643.6344
 -18091479.65544 -14097253.62744  21858599.1214   21858601.1254
 -12861016.244 4 -10021571.884 4  22896251.498    22896249.068
 -25273518.88044 -19693628.70344  20798441.1974   20798442.6524
 -25714283.86744 -20037080.73944  20292550.7864   20292552.2384
 -13737034.08244 -10704158.21244  22652291.6504   22652293.0754
  -2734369.59344  -2130669.01244  24857862.6664   24857867.7034
 96  7 10  1 33  0.0000000  0  8G17G31G 3G28G21G 1G23G25
  -3498002.58744  -2725712.93444  23459480.3504   23459483.5464
  -7933842.19944  -6182212.53644  22415994.9164   22415996.5514
 -18038229.05144 -14055759.68244  21868732.1254   21868734.8464
 -12762961.784 4  -9945165.891 4  22914911.001    22914908.269
 -25266959.51344 -19688517.51444  20799689.4954   20799690.8784
 -25735322.53244 -20053474.49244  20288547.2494   20288548.7324
 -13682706.25544 -10661824.85444  22662629.9294   22662630.6824
  -2830641.45444  -2205685.87144  24839542.1004   24839547.1564
 96  7 10  1 33 30.0000000  0  8G17G31G 3G28G21G 1G23G25
  -3403047.45444  -2651721.98244  23477549.5894   23477553.0074
  -7941930.27244  -6188514.94044  22414455.6534   22414458.0634
 -17984493.87244 -14013888.13944  21878957.4674   21878960.2504
 -12664730.710 4  -9868622.281 4  22933603.577    22933601.287
 -25260247.89744 -19683287.68544  20800966.6764   20800968.0984
 -25755853.88044 -20069472.93344  20284640.3164   20284641.6394
 -13628268.55544 -10619405.88744  22672989.1594   22672990.4174
  -2927017.77944  -2280784.09244  24821201.9764   24821206.6414
 96  7 10  1 34  0.0000000  0  8G17G31G 3G28G21G 1G23G25
  -3307880.46344  -2577565.94144  23495659.1774   23495664.5084
  -7949443.96044  -6194369.77844  22413025.9854   22413028.1134
 -17930296.96744 -13971656.82144  21889270.8284   21889273.3644
 -12566337.660 4  -9791952.440 4  22952327.048    22952324.922
 -25253394.07844 -19677947.04544  20802270.8844   20802272.2534
 -25775896.61044 -20085090.63244  20280826.3384   20280827.6714
 -13573742.78244 -10576918.22844  22683364.9254   22683367.0284
  -3023499.81444  -2355964.72044  24802842.0284   24802846.6204
 96  7 10  1 34 30.0000000  0  8G17G31G 3G28G21G 1G23G25
  -3212477.48444  -2503226.02644  23513814.1284   23513816.3374
  -7956367.39244  -6199764.67244  22411708.4794   22411709.8504
 -17875632.66844 -13929061.28044  21899673.1134   21899675.8204
 -12467773.124 4  -9715148.996 4  22971083.514    22971081.211
 -25246386.30644 -19672486.44344  20803604.4864   20803605.7614
 -25795427.56244 -20100309.55044  20277109.6974   20277111.1134
 -13519125.94344 -10534359.76344  22693758.3364   22693759.7244
  -3120065.05644  -2431210.15844  24784465.8964   24784472.9234
 96  7 10  1 35  0.0000000  0  8G17G31G 3G28G21G 1G23G25
  -3116852.79844  -2428713.36244  23532011.2094   23532015.1284
  -7962719.16844  -6204714.11744  22410499.6464   22410501.5904
 -17820521.31344 -13886117.39444  21910160.4084   21910163.4504
 -12369051.546 4  -9638223.175 4  22989869.587    22989867.313
 -25239230.20444 -19666910.26244  20804966.2524   20804967.6824
 -25814459.26644 -20115139.44144  20273488.0444   20273489.4084
 -13464449.52544 -10491754.76444  22704162.7634   22704164.3254
  -3216718.62444  -2506524.40644  24766073.5034   24766079.6464
 96  7 10  1 35 30.0000000  0  8G17G31G 3G28G21G 1G23G25
  -3021028.73344  -2354045.33844  23550245.8354   23550248.7174
  -7968508.86744  -6209225.58244  22409397.7814   22409400.2324
 -17764981.22244 -13842839.42844  21920729.2984   21920732.3944
 -12270193.886 4  -9561191.316 4  23008681.708    23008679.354
 -25231924.38844 -19661217.41444  20806356.3854   20806357.7794
 -25833013.47644 -20129597.26044  20269957.2634   20269958.6954
 -13409741.89744 -10449125.46344  22714573.5314   22714575.3484
  -3313486.85144  -2581928.02644  24747659.0854   24747666.8404
 96  7 10  1 36  0.0000000  0  8G17G31G 3G28G21G 1G23G25
  -2924987.92644  -2279208.42644  23568521.5824   23568525.1364
  -7973707.55544  -6213276.50744  22408408.6254   22408411.0084
 -17708998.10244 -13799216.24344  21931382.8164   21931385.8424
 -12171192.105 4  -9484047.159 4  23027521.522    23027519.129
 -25224439.80044 -19655385.26944  20807780.6984   20807782.0644
 -25851056.64644 -20143656.86544  20266523.7734   20266525.2704
 -13355000.91444 -10406470.17444  22724990.2224   22724991.8124
  -3410362.72244  -2657415.50744  24729224.0124   24729231.1574
 96  7 10  1 36 30.0000000  0  8G17G31G 3G28G21G 1G23G25
  -2828720.11044  -2204194.61844  23586840.9204   23586843.7314
  -7978321.69444  -6216871.95844  22407530.9024   22407532.6334
 -17652578.99044 -13755253.32944  21942118.9014   21942121.8254
 -12072038.499 4  -9406784.694 4  23046389.752    23046387.031
 -25216758.85644 -19649400.11944  20809242.3034   20809243.6624
 -25868570.55944 -20157304.06044  20263190.9594   20263192.4854
 -13300214.55844 -10363779.52744  22735415.9064   22735417.2094
  -3507327.02044  -2732971.89344  24710772.3614   24710776.4894
 96  7 10  1 37  0.0000000  0  8G17G31G 3G28G21G 1G23G25
  -2732232.16444  -2129009.27344  23605202.3364   23605204.9244
  -7982364.33244  -6220022.07944  22406761.6564   22406763.2064
 -17595737.65344 -13710961.41044  21952935.3714   21952938.0614
 -11972738.298 4  -9329407.996 4  23065286.151    23065283.325
 -25208874.19544 -19643256.23144  20810742.7244   20810744.1304
 -25885573.28444 -20170552.92544  20259955.3314   20259956.8214
 -13245382.82144 -10321053.52644  22745849.9224   22745851.3854
  -3604387.65244  -2808603.35944  24692302.3544   24692306.4114
 96  7 10  1 37 30.0000000  0  8G17G31G 3G28G21G 1G23G25
  -2635505.40244  -2053637.85344  23623608.9144   23623612.3964
  -7985823.18344  -6222717.30344  22406103.4154   22406105.4634
 -17538470.35744 -13666337.56944  21963833.1254   21963836.0844
 -11873287.814 4  -9251914.196 4  23084211.250    23084207.840
 -25200784.04444 -19636952.21644  20812282.2324   20812283.6404
 -25902061.14444 -20183400.59544  20256817.8534   20256819.1844
 -13190487.05244 -10278277.63144  22756296.4674   22756297.8514
  -3701542.19244  -2884308.01444  24673814.2034   24673817.2264
 96  7 10  1 38  0.0000000  0  8G17G31G 3G28G21G 1G23G25
  -2538542.25544  -1978082.22244  23642060.1904   23642064.0824
  -7988723.76244  -6224977.50644  22405551.1424   22405553.4314
 -17480786.43444 -13621389.08244  21974810.2454   21974813.0444
 -11773699.035 4  -9174312.640 4  23103162.162    23103159.034
 -25192512.63344 -19630506.95844  20813856.2684   20813857.4724
 -25918048.76044 -20195858.46444  20253775.5774   20253776.8714
 -13135524.10844 -10235449.39344  22766755.5044   22766757.3954
  -3798776.17744  -2960074.56944  24655310.9484   24655314.1774
 96  7 10  1 38 30.0000000  0  8G17G31G 3G28G21G 1G23G25
  -2441335.63744  -1902336.87944  23660557.8824   23660561.4914
  -7991082.61044  -6226815.58644  22405102.3874   22405104.8864
 -17422663.42044 -13576098.45244  21985870.7184   21985872.6584
 -11673965.251 4  -9096598.077 4  23122140.941    23122137.891
 -25184057.35444 -19623918.42544  20815465.2344   20815466.6114
 -25933548.78244 -20207936.39144  20250825.9724   20250827.4074
 -13080477.36644 -10192555.85744  22777230.5964   22777232.2754
  -3896073.29944  -3035890.33444  24636795.6474   24636801.8644
 96  7 10  1 39  0.0000000  0  8G17G31G 3G28G21G 1G23G25
  -2343879.22744  -1826396.91344  23679103.3704   23679106.4464
  -7992893.47244  -6228226.66544  22404758.0354   22404759.5244
 -17364072.71544 -13530443.38244  21997019.9614   21997022.5804
 -11574087.539 4  -9018771.381 4  23141147.209    23141144.044
 -25175427.95944 -19617194.21944  20817107.3164   20817108.7734
 -25948559.92744 -20219633.37344  20247969.4274   20247970.7874
 -13025336.50544 -10149588.98644  22787723.4244   22787724.8574
  -3993429.85144  -3111752.39544  24618269.3134   24618273.0224
 96  7 10  1 39 30.0000000  0  8G17G31G 3G28G21G 1G23G25
  -2246164.10444  -1750255.33744  23697698.0544   23697700.7904
  -7994140.86244  -6229198.66944  22404520.3424   22404522.3704
 -17304996.24144 -13484409.79244  22008261.9864   22008264.4154
 -11474057.617 4  -8940826.078 4  23160182.125    23160179.641
 -25166618.23844 -19610329.50044  20818783.7394   20818785.1474
 -25963055.22144 -20230928.39344  20245211.0884   20245212.3854
 -12970072.23744 -10106525.94444  22798239.7584   22798241.5204
  -4090810.70244  -3187633.42244  24599738.2764   24599741.7554
 96  7 10  1 40  0.0000000  0  8G17G31G 3G28G21G 1G23G25
  -2148239.29944  -1673950.37644  23716332.2744   23716336.5504
  -7994856.82644  -6229756.57644  22404384.2784   22404385.8094
 -17245478.66044 -13438032.48844  22019587.9734   22019590.2154
 -11373916.143 4  -8862793.843 4  23179238.551    23179235.870
 -25157664.68744 -19603352.70444  20820487.5604   20820488.9244
 -25977063.89944 -20241844.23344  20242545.3144   20242546.6634
 -12914725.41444 -10063398.57144  22808772.0054   22808773.6464
  -4188254.38544  -3263563.39944  24581195.5154   24581201.1284
 96  7 10  1 40 30.0000000  0  8G17G31G 3G28G21G 1G23G25
  -2050094.22244  -1597473.77244  23735008.6054   23735011.7854
  -7995011.52844  -6229877.13944  22404354.9884   22404357.1014
 -17185517.57744 -13391309.59944  22030998.0194   22031000.4004
 -11273655.404 4  -8784668.687 4  23198317.959    23198315.078
 -25148540.61944 -19596243.04044  20822223.7764   20822225.1584
 -25990570.89844 -20252369.15544  20239975.0114   20239976.3654
 -12859291.05044 -10020202.98944  22819320.7874   22819322.1524
  -4285764.63544  -3339545.26544  24562639.9764   24562646.3434
 96  7 10  1 41  0.0000000  0  8G17G31G 3G28G21G 1G23G25
  -1951720.80244  -1520819.22244  23753728.9204   23753732.4214
  -7994575.02844  -6229537.02644  22404437.9374   22404440.1754
 -17125125.45744 -13344250.83644  22042490.2694   22042493.0384
 -11173269.242 4  -8706445.796 4  23217420.674    23217417.944
 -25139227.54844 -19588986.09944  20823996.0174   20823997.4284
 -26003560.34844 -20262490.79444  20237503.2254   20237504.6014
 -12803755.03544  -9976928.19244  22829889.1424   22829890.2974
  -4383334.93644  -3415573.94344  24544072.7974   24544074.6604
 96  7 10  1 41 30.0000000  0  8G17G31G 3G28G21G 1G23G25
  -1853153.56144  -1444013.66244  23772486.1044   23772487.9764
  -7993573.18344  -6228756.39744  22404628.5834   22404630.6854
 -17064353.95344 -13296896.44944  22054054.7944   22054057.1004
 -11072789.024 4  -8628149.611 4  23236541.332    23236538.626
 -25129734.13644 -19581588.63644  20825802.5824   20825803.8594
 -26016063.36144 -20272233.39044  20235123.9754   20235125.2084
 -12748165.59644  -9933611.76844  22840467.5684   22840468.5364
  -4481014.69344  -3491687.91344  24525484.5584   24525486.6934
 96  7 10  1 42  0.0000000  0  8G17G31G 3G28G21G 1G23G25
  -1754347.17344  -1367021.74744  23791288.3254   23791290.3254
  -7991969.00544  -6227506.40044  22404934.0284   22404936.1804
 -17003158.64744 -13249211.83744  22065699.9084   22065702.3034
 -10972174.866 4  -8549749.064 4  23255688.023    23255685.053
 -25120002.27244 -19574005.36844  20827654.4564   20827655.7904
 -26028044.04044 -20281568.97444  20232844.0834   20232845.3924
 -12692504.31344  -9890239.35444  22851059.5864   22851061.7104
  -4578789.59144  -3567875.98744  24506878.4374   24506879.9434
 96  7 10  1 42 30.0000000  0  8G17G31G 3G28G21G 1G23G25
  -1655321.00344  -1289858.56944  23810132.1304   23810136.6434
  -7989802.87744  -6225818.52044  22405346.1744   22405348.3114
 -16941553.16044 -13201207.60044  22077422.9634   22077425.7954
 -10871450.050 4  -8471262.301 4  23274855.242    23274852.299
 -25110048.65044 -19566249.30244  20829548.5834   20829549.9944
 -26039526.15044 -20290516.06144  20230659.0644   20230660.4454
 -12636788.23244  -9846824.24344  22861662.0164   22861664.3724
  -4676668.80344  -3644145.38344  24488252.4644   24488258.7814
 96  7 10  1 43  0.0000000  0  8G17G31G 3G28G21G 1G23G25
  -1556090.81944  -1212536.44244  23829014.9084   23829019.4324
  -7987109.24344  -6223719.60444  22405858.7074   22405860.3654
 -16879564.33444 -13152904.66544  22089219.0564   22089221.4204
 -10770634.830 4  -8392705.078 4  23294039.493    23294037.217
 -25099906.28744 -19558346.17044  20831478.6214   20831480.0564
 -26050514.13344 -20299078.11544  20228568.1964   20228569.4884
 -12581034.27244  -9803379.60244  22872271.4574   22872273.6034
  -4774658.89044  -3720501.14444  24469605.6874   24469609.4744
 96  7 10  1 43 30.0000000  0  8G17G31G 3G28G21G 1G23G25
  -1456626.37744  -1135031.74344  23847942.5524   23847948.9794
  -7983867.43644  -6221193.54544  22406475.6354   22406477.9914
 -16817157.37344 -13104275.90244  22101094.8194   22101097.2604
 -10669701.444 4  -8314055.776 4  23313247.011    23313244.105
 -25089552.24344 -19550278.08844  20833448.9294   20833450.3274
 -26060973.25944 -20307228.07044  20226577.7524   20226579.0564
 -12525210.11744  -9759880.26944  22882894.4344   22882895.7494
  -4872717.19844  -3796910.07744  24450945.9414   24450948.9854
 96  7 10  1 44  0.0000000  0  8G17G31G 3G28G21G 1G23G25
  -1356931.39444  -1057347.41044  23866913.9814   23866917.1354
  -7980080.77344  -6218242.90644  22407196.3604   22407197.9674
 -16754337.88644 -13055325.69844  22113048.8774   22113051.8794
 -10568656.511 4  -8235319.574 4  23332475.245    23332472.078
 -25079013.59344 -19542066.15344  20835454.3804   20835455.7434
 -26070914.35044 -20314974.36244  20224685.9524   20224687.2974
 -12469296.10044  -9716310.91244  22893534.5654   22893535.5794
  -4970808.13244  -3873344.46844  24432279.4504   24432281.5224
 96  7 10  1 44 30.0000000  0  7G17G 3G28G21G 1G23G25
  -1257014.68544   -979490.32244  23885927.2834   23885930.3514
 -16691115.90044 -13006061.85044  22125079.6134   22125082.2964
 -10467504.737 4  -8156500.100 4  23351723.492    23351720.708
 -25068308.57044 -19533724.58344  20837491.5224   20837492.7854
 -26080342.26844 -20322320.78044  20222891.9624   20222893.3984
 -12413276.47144  -9672659.25644  22904194.6194   22904196.6234
  -5068913.39244  -3949789.99144  24413610.7114   24413614.7054
 96  7 10  1 45  0.0000000  0  8G17G15G 3G28G21G 1G23G25
  -1156909.92644   -901486.66344  23904976.6764   23904981.7104
        -0.64054                  25093739.1094
 -16627516.19144 -12956503.68344  22137182.4744   22137185.1714
 -10366281.018 4  -8077624.561 4  23370986.190    23370982.782
 -25057462.14244 -19525272.82844  20839555.5134   20839556.8874
 -26089295.50844 -20329297.31944  20221188.2634   20221189.5984
 -12357188.09644  -9628954.03544  22914867.7784   22914869.9534
  -5167064.17244  -4026270.97244  24394932.5434   24394936.0084
 96  7 10  1 45 30.0000000  0  8G17G15G 3G28G21G 1G23G25
  -1056608.72244   -823329.94344  23924063.4334   23924066.9384
   -106950.88144    -83337.56644  25073387.0334   25073390.0914
 -16563508.00344 -12906627.22044  22149363.0854   22149365.5564
 -10264970.520 4  -7998681.427 4  23390265.162    23390261.958
 -25046442.49344 -19516686.09644  20841652.5424   20841653.8744
 -26097784.13944 -20335911.82544  20219572.9154   20219574.1114
 -12301010.37844  -9585179.19444  22925558.2284   22925560.2594
  -5265227.66144  -4102761.85244  24376252.5994   24376257.9274
 96  7 10  1 46  0.0000000  0  8G17G15G 3G28G21G 1G23G25
   -956059.64244   -744980.11744  23943197.6404   23943201.1034
   -213879.57844                  25053039.5104
 -16499037.52944 -12856390.53544  22161631.2324   22161634.0204
 -10163520.822 4  -7919629.801 4  23409570.201    23409567.230
 -25035196.48444 -19507922.98244  20843792.5934   20843793.8694
 -26105747.56544 -20342117.08244  20218057.5524   20218058.8334
 -12244694.96644  -9541297.06444  22936274.7354   22936276.1934
  -5363341.74244  -4179214.24844  24357581.9784   24357585.9354
 96  7 10  1 46 30.0000000  0  8G17G15G 3G28G21G 1G23G25
   -855321.55644   -666482.97544  23962367.3994   23962371.5834
   -320840.00844                  25032685.6184
 -16434143.86444 -12805824.09044  22173980.0904   22173983.0964
 -10061990.121 4  -7840515.062 4  23428891.164    23428888.010
 -25023764.26944 -19499014.77244  20845968.0994   20845969.4054
 -26113238.25744 -20347953.97844  20216632.0844   20216633.5094
 -12188316.57644  -9497365.85644  22947003.1774   22947005.1384
  -5461482.72944  -4255687.59244  24338906.1144   24338909.4404
 96  7 10  1 47  0.0000000  0  8G17G15G 3G28G21G 1G23G25
   -754374.99244   -587823.41244  23981576.9654   23981581.3694
   -427818.45844                  25012328.3104
 -16368814.71444 -12754918.30844  22186411.9604   22186414.3594
  -9960369.047 4  -7761329.915 4  23448229.469    23448226.160
 -25012133.75844 -19489952.04844  20848181.2964   20848182.6374
 -26120235.54344 -20353406.40444  20215300.5544   20215301.8644
 -12131872.97444  -9453383.84244  22957744.0644   22957745.3784
  -5559640.13044  -4332173.74344  24320228.0214   24320231.1094
 96  7 10  1 47 30.0000000  0  8G17G15G 3G28G21G 1G23G25
   -653227.32644   -509007.10944  24000824.7664   24000827.8814
   -534818.62444                  24991966.9564
 -16303084.82044 -12703700.26344  22198919.9444   22198922.8454
  -9858666.984 4  -7682081.662 4  23467582.572    23467579.049
 -25000323.53544 -19480749.28944  20850428.6284   20850429.9474
 -26126740.03044 -20358474.83444  20214062.7294   20214064.1494
 -12075361.71644  -9409349.10444  22968497.8774   22968499.5094
  -5657831.82944  -4408686.59144  24301541.9324   24301545.1534
 96  7 10  1 48  0.0000000  0  8G17G15G 3G28G21G 1G23G25
   -551884.58844   -430038.83444  24020109.9394   24020113.1404
   -641852.97544   -500144.23444  24971598.7074
 -16236983.26744 -12652192.62044  22211498.5484   22211501.4464
  -9756901.443 4  -7602783.934 4  23486947.869    23486944.671
 -24988347.91444 -19471417.64544  20852707.5714   20852708.8804
 -26132748.72344 -20363156.93144  20212919.4014   20212920.7304
 -12018800.85344  -9365275.71644  22979261.1114   22979262.0784
  -5756106.66444  -4485264.23344  24282841.3704   24282842.3374
 96  7 10  1 48 30.0000000  0  8G17G15G 3G28G21G 1G23G25
   -450329.59744   -350905.17844  24039435.1354   24039438.7264
   -748905.87844   -583562.04544  24951227.0694   24951227.5654
 -16170503.87044 -12600390.54944  22224149.1834   22224152.2184
  -9655060.987 4  -7523427.824 4  23506327.919    23506324.033
 -24976190.81344 -19461944.59044  20855021.0494   20855022.3284
 -26138265.01044 -20367455.33244  20211869.7434   20211870.9764
 -11962170.64144  -9321148.29544  22990037.4944   22990039.7364
  -5854461.45144  -4561904.19244  24264124.7634   24264126.0184
 96  7 10  1 49  0.0000000  0  8G17G15G 3G28G21G 1G23G25
   -348580.44344   -271620.22444  24058797.2724   24058800.0704
   -855996.46144   -667009.25244  24930848.3234   24930851.1584
 -16103698.99144 -12548334.84944  22236861.8384   22236864.7264
  -9553169.899 4  -7444032.288 4  23525717.076    23525713.120
 -24963876.88244 -19452349.32544  20857364.2844   20857365.5194
 -26143308.04644 -20371384.96444  20210909.9534   20210911.3914
 -11905471.75844  -9276967.36344  23000827.0284   23000828.6464
  -5952907.93644  -4638615.58844  24245390.8574   24245394.5904
 96  7 10  1 49 30.0000000  0  8G17G15G 3G28G21G 1G23G25
   -246616.35844   -192167.66644  24078200.3984   24078204.8864
   -963092.69944   -750460.85544  24910468.5014   24910471.5314
 -16036548.53744 -12496009.87944  22249640.0864   22249642.8564
  -9451201.368 4  -7364576.382 4  23545120.707    23545117.493
 -24951367.16144 -19442601.49844  20859744.7694   20859745.9704
 -26147848.25444 -20374922.78444  20210045.9664   20210047.3534
 -11848664.46444  -9232701.96544  23011636.8964   23011639.7534
  -6051401.75244  -4715363.89144  24226647.9314   24226651.5064
 96  7 10  1 50  0.0000000  0  8G17G15G 3G28G21G 1G23G25
   -144442.78944   -112552.03644  24097643.7864   24097645.7394
  -1070190.08944   -833913.37244  24890088.1814   24890096.3724
 -15969032.33444 -12443399.90544  22262487.8604   22262490.9554
  -9349155.527 4  -7285060.230 4  23564539.622    23564536.197
 -24938657.05744 -19432697.52644  20862163.4964   20862164.8034
 -26151884.61044 -20378067.99244  20209277.8984   20209279.1774
 -11791759.42244  -9188360.38944  23022465.5144   23022466.4754
  -6149916.21944  -4792128.28044  24207900.9964   24207905.9954
 96  7 10  1 50 30.0000000  0  8G17G15G 3G28G21G 1G23G25
    -42090.74644    -32797.29544  24117120.6794   24117123.6804
  -1177303.56844   -917378.38444  24869705.5394   24869708.5084
 -15901164.85144 -12390516.20444  22275402.8624   22275405.8104
  -9247052.276 4  -7205499.381 4  23583969.521    23583965.867
 -24925769.32144 -19422655.14244  20864615.8924   20864617.3084
 -26155440.61244 -20380838.89944  20208601.1044   20208602.5624
 -11734768.23244  -9143951.69144  23033310.7254   23033312.4134
  -6248440.34144  -4868900.20644  24189152.8464   24189156.4224
 96  7 10  1 51  0.0000000  0  8G17G15G 3G28G21G 1G23G25
     60440.73444     47097.28744  24136631.4264   24136634.8664
  -1284423.15744  -1000848.18944  24849321.0814   24849325.0064
 -15832939.00344 -12337353.25444  22288386.1004   22288388.9184
  -9144887.012 4  -7125890.187 4  23603410.685    23603407.400
 -24912687.46344 -19412461.49544  20867105.2764   20867106.6094
 -26158495.56444 -20383219.37544  20208019.8274   20208021.0734
 -11677695.22744  -9099479.24644  23044171.2884   23044172.7904
  -6346956.71644  -4945666.09144  24170405.1124   24170407.0864
 96  7 10  1 51 30.0000000  0  7G17G 3G28G21G 1G23G25
    163135.30244    127118.94144  24156173.7724   24156176.9674
 -15764355.67744 -12283911.76244  22301437.1544   22301439.7494
  -9042678.811 4  -7046247.534 4  23622860.318    23622856.751
 -24899426.15344 -19402128.01144  20869628.8624   20869630.3544
 -26161072.81344 -20385227.61044  20207529.4334   20207530.5674
 -11620572.44444  -9054968.00844  23055041.5444   23055042.6034
  -6445476.12644  -5022434.35044  24151658.4114   24151662.1874
 96  7 10  1 52  0.0000000  0  7G17G 3G28G21G 1G23G25
    265999.36344    207272.66344  24175748.1994   24175753.9264
 -15695394.29644 -12230175.67944  22314560.0374   22314562.8894
  -8940423.445 4  -6966568.153 4  23642319.324    23642315.733
 -24885986.44344 -19391655.51744  20872186.3514   20872187.8024
 -26163178.56944 -20386868.44544  20207128.6294   20207129.8384
 -11563397.97144  -9010416.49744  23065921.3804   23065923.0054
  -6544000.38344  -5099206.38144  24132909.3344   24132912.8804
 96  7 10  1 52 30.0000000  0  7G17G 3G28G21G 1G23G25
    369083.22844    287597.69144  24195364.3714   24195367.6184
 -15626017.18444 -12176115.65144  22327762.0474   22327764.7934
  -8838081.405 4  -6886821.232 4  23661794.340    23661790.822
 -24872326.94744 -19381011.76144  20874785.6324   20874787.0214
 -26164772.78344 -20388110.68144  20206825.2674   20206826.5364
 -11506118.22344  -8965782.96044  23076821.6284   23076823.0304
  -6642488.50644  -5175950.26344  24114167.9534   24114171.6084
 96  7 10  1 53  0.0000000  0  8G17G15G 3G28G21G 1G23G25
    472382.50544    368090.55544  24215021.3914   24215023.8064
        -1.19954         0.29654  24767779.0714   24767782.6284
 -15556240.86844 -12121744.55444  22341040.1804   22341043.2834
  -8735670.344 4  -6807020.528 4  23681282.417    23681278.849
 -24858463.71944 -19370209.25044  20877423.7394   20877425.1254
 -26165866.14644 -20388962.64544  20206617.2424   20206618.5464
 -11448747.76044  -8921078.72544  23087738.5674   23087740.7064
  -6740963.48044  -5252683.89444  24095428.0484   24095432.0014
 96  7 10  1 53 30.0000000  0  8G17G15G 3G28G21G 1G23G25
    575860.48744    448722.67744  24234712.7614   24234715.9624
   -107115.85444    -83465.65044  24747395.9444   24747401.4474
 -15486095.54244 -12067085.91444  22354388.2364   22354390.5414
  -8633232.821 4  -6727199.199 4  23700776.061    23700772.494
 -24844443.65344 -19359284.52844  20880091.7404   20880093.0374
 -26166503.24344 -20389459.07844  20206495.8784   20206497.3554
 -11391309.76544  -8876321.87744  23098668.6624   23098670.7314
  -6839463.79544  -5329437.26744  24076684.4984   24076687.5684
 96  7 10  1 54  0.0000000  0  8G17G15G 3G28G21G 1G23G25
    679455.97944    529446.36244  24254426.8314   24254433.1344
   -214296.90344   -166983.29844  24726999.9954   24727000.5834
 -15415631.67644 -12012179.05644  22367796.9954   22367800.0404
  -8530823.253 4  -6647399.658 4  23720264.329    23720260.578
 -24830322.20844 -19348280.80844  20882778.9164   20882780.2894
 -26166728.91744 -20389634.92744  20206452.8434   20206454.1524
 -11333849.79344  -8831547.89644  23109603.0294   23109605.3954
  -6938049.35544  -5406257.08344  24057923.7664   24057926.5694
 96  7 10  1 54 30.0000000  0  8G17G15G 3G28G21G 1G23G25
    783249.50444    610324.35844  24274178.5014   24274182.8874
   -321459.40744   -250486.50644  24706607.5344   24706612.9444
 -15344792.54144 -11956979.78044  22381277.2014   22381280.3664
  -8428361.419 4  -6567559.396 4  23739762.021    23739758.282
 -24816005.89244 -19337125.24344  20885503.2204   20885504.5634
 -26166447.22944 -20389415.43044  20206506.6224   20206507.8534
 -11276285.35244  -8786692.50944  23120557.3304   23120559.8844
  -7036645.24144  -5483084.93044  24039161.6884   24039164.8154
 96  7 10  1 55  0.0000000  0  8G17G15G 3G28G21G 1G23G25
    887226.19144    691345.10644  24293964.1874   24293968.7054
   -428602.34344   -333974.47344  24686218.8974   24686222.2184
 -15273583.67044 -11901492.40044  22394827.9204   22394831.0334
  -8325851.951 4  -6487681.999 4  23759268.890    23759265.457
 -24801483.05144 -19325808.75144  20888266.8014   20888268.3044
 -26165658.84744 -20388801.10544  20206656.6364   20206657.9344
 -11218620.07044  -8741758.54944  23131530.7264   23131532.5994
  -7135249.26144  -5559919.11344  24020397.6464   24020400.7564
 96  7 10  1 55 30.0000000  0  8G17G15G 3G28G21G 1G23G25
    991374.40344    772499.46644  24313782.3354   24313788.4964
   -535729.00644   -417449.74344  24665833.3524   24665837.4424
 -15202015.57944 -11845725.10444  22408446.9594   22408450.1364
  -8223302.850 4  -6407773.731 4  23778783.811    23778779.736
 -24786751.53644 -19314329.65044  20891070.1924   20891071.6784
 -26164376.98344 -20387802.25144  20206900.5684   20206901.7814
 -11160865.65244  -8696755.12944  23142521.2494   23142523.1884
  -7233843.17844  -5636745.42344  24001635.8264   24001639.2754
 96  7 10  1 56  0.0000000  0  8G17G15G 3G28G21G 1G23G25
   1095686.29944    853781.41844  24333632.5534   24333637.5774
   -642845.32444   -500916.98244  24645449.7244   24645453.4374
 -15130126.71944 -11789707.85844  22422127.0194   22422130.0494
  -8120724.810 4  -6327842.941 4  23798303.915    23798299.613
 -24771816.06544 -19302691.62344  20893912.2494   20893913.7614
 -26162615.09944 -20386429.35344  20207235.9244   20207237.1834
 -11103042.55544  -8651698.20044  23153524.3414   23153526.7714
  -7332426.65644  -5713563.58344  23982875.6404   23982879.7994
 96  7 10  1 56 30.0000000  0  8G17G15G 3G28G21G 1G23G25
   1200175.70344    935201.63944  24353516.6964   24353523.1994
   -749945.62944   -584371.72044  24625069.1384   24625071.5704
 -15057930.25244 -11733450.91644  22435865.4294   22435868.5924
  -8018117.124 4  -6247889.026 4  23817829.390    23817825.608
 -24756668.70344 -19290888.48944  20896794.7054   20896796.1524
 -26160384.06244 -20384690.88244  20207660.4324   20207661.8334
 -11045152.49944  -8606589.09144  23164540.2614   23164542.5824
  -7430979.81144  -5790358.15644  23964121.8414   23964124.5574
 96  7 10  1 57  0.0000000  0  8G17G15G 3G28G21G 1G23G25
   1304861.37444   1016774.84644  24373437.6844   24373438.3584
   -857021.75244   -667807.61944  24604693.2044   24604695.2854
 -14985411.61744 -11676942.93244  22449665.6094   22449667.9954
  -7915476.770 4  -6167909.650 4  23837361.475    23837357.356
 -24741310.80244 -19278921.29744  20899717.2834   20899718.6714
 -26157699.49844 -20382599.01444  20208171.2994   20208172.5514
 -10987187.20144  -8561421.34944  23175570.7754   23175572.5934
  -7529474.81244  -5867107.38344  23945378.7504   23945381.4814
 96  7 10  1 57 30.0000000  0  8G17G15G 3G28G21G 1G23G25
   1409752.32344   1098507.95444  24393397.6004   24393404.2944
   -964078.27444   -751228.25044  24584321.3164   24584323.1894
 -14912580.41144 -11620191.39344  22463525.0134   22463528.0714
  -7812813.080 4  -6087912.119 4  23856898.134    23856893.894
 -24725757.54844 -19266801.88244  20902677.0144   20902678.4194
 -26154570.51344 -20380160.84044  20208766.6944   20208767.9574
 -10929149.72444  -8516197.36444  23186614.9704   23186616.9774
  -7627923.22144  -5943820.32444  23926644.7654   23926647.7904
 96  7 10  1 58  0.0000000  0  8G17G15G 3G28G21G 1G23G25
   1514838.85844   1180393.51344  24413394.5524   24413401.4774
  -1071115.74344   -834634.03044  24563952.5954   24563953.7064
 -14839432.75244 -11563193.26244  22477444.6034   22477447.8934
  -7710132.023 4  -6007901.046 4  23876437.711    23876433.805
 -24710020.56644 -19254539.29844  20905671.6484   20905673.0244
 -26150997.21144 -20377376.44644  20209446.6724   20209447.9824
 -10871032.72244  -8470911.42444  23197674.4004   23197676.4014
  -7726348.83644  -6020515.49044  23907914.6984   23907917.8204
 96  7 10  1 58 30.0000000  0  8G17G15G 3G28G21G 1G23G25
   1620110.37844   1262423.19144  24433427.5654   24433433.2014
  -1178134.94344   -918025.59244  24543587.5074   24543590.1244
 -14765951.06944 -11505934.85444  22491427.4754   22491430.6394
  -7607439.228 4  -5927880.819 4  23895979.470    23895975.481
 -24694097.42944 -19242131.65944  20908701.6504   20908703.0694
 -26146972.42744 -20374240.24744  20210212.5424   20210213.8704
 -10812820.41044  -8425551.19944  23208751.7284   23208753.5404
  -7824760.72444  -6097199.95144  23889187.7474   23889189.7294
 96  7 10  1 59  0.0000000  0  8G17G15G 3G28G21G 1G23G25
   1725561.69244   1344593.01644  24453494.3784   24453499.9614
  -1285127.17344  -1001396.13444  24523227.4994   24523231.5304
 -14692121.32444 -11448405.23444  22505476.9534   22505479.7864
  -7504731.372 4  -5847848.849 4  23915524.423    23915520.339
 -24677975.46344 -19229569.08844  20911769.4904   20911771.0124
 -26142467.42644 -20370729.85544  20211069.8364   20211070.9824
 -10754498.96344  -8380105.94544  23219850.0074   23219851.2954
  -7923152.00444  -6173868.36044  23870464.3504   23870468.7714
 96  7 10  1 59 30.0000000  0  8G17G15G 3G28G21G 1G23G25
   1831152.09944   1426871.18744  24473587.5854   24473590.9024
  -1392113.82144  -1084762.35944  24502868.4414   24502871.7574
 -14617977.87444 -11390631.15944  22519586.2624   22519589.4884
  -7402034.879 4  -5767825.745 4  23935067.354    23935063.299
 -24661681.39844 -19216872.41344  20914870.1104   20914871.7784
 -26137480.03044 -20366843.56744  20212018.9554   20212020.1004
 -10696091.95244  -8334594.00444  23230964.4414   23230966.7664
  -8021560.77244  -6250550.39144  23851737.7474   23851740.9494
 96  7 10  2  0  0.0000000  0  8G17G15G 3G28G21G 1G23G25
   1936885.98144   1509261.15144  24493708.1034   24493714.0154
  -1499082.49944  -1168114.54444  24482512.7884   24482516.8384
 -14543531.34744 -11332620.93344  22533752.8084   22533755.5114
  -7299342.396 4  -5687805.756 4  23954609.113    23954604.849
 -24645200.79644 -19204030.38544  20918006.3914   20918007.9254
 -26131992.70144 -20362567.72244  20213063.0754   20213064.3704
 -10637587.84744  -8289006.40544  23242097.5734   23242100.2274
  -8119973.91944  -6327235.85144  23833009.8304   23833013.6334
 96  7 10  2  0 30.0000000  0  8G17G15G 3G28G21G 1G23G25
   2042774.27744   1591771.45244  24513858.1674   24513866.3584
  -1606026.00044  -1251447.12944  24462162.1684   24462165.3104
 -14468788.28044 -11274379.63844  22547975.9924   22547978.8914
  -7196651.558 4  -5607787.053 4  23974150.399    23974146.250
 -24628521.50344 -19191033.53744  20921180.3134   20921181.7734
 -26125994.92244 -20357894.12544  20214204.4704   20214205.7294
 -10578988.36644  -8243344.48744  23253248.7484   23253251.7844
  -8218373.18644  -6403910.49244  23814284.9434   23814288.3664
 96  7 10  2  1  0.0000000  0  8G17G15G 3G28G21G 1G23G25
   2148817.62644   1674402.54344  24534037.5334   24534041.2614
  -1712943.26744  -1334759.28444  24441816.6384   24441819.8604
 -14393764.13544 -11215919.31844  22562252.9374   22562255.5274
  -7093966.279 4  -5527772.668 4  23993691.052    23993686.882
 -24611654.19144 -19177890.18144  20924390.0094   20924391.5574
 -26119495.35144 -20352829.52044  20215441.2794   20215442.4514
 -10520307.31244  -8197619.01244  23264415.4254   23264417.5594
  -8316753.49144  -6480570.35944  23795563.8964   23795566.8404
 96  7 10  2  1 30.0000000  0  8G17G15G 3G28G21G 1G23G25
   2255020.10544   1757157.64744  24554247.1724   24554252.8584
  -1819825.92844  -1418044.46144  24421477.6994   24421480.8984
 -14318462.79544 -11157243.00344  22576582.3894   22576585.3214
  -6991283.515 4  -5447760.248 4  24013231.060    24013226.635
 -24594592.76744 -19164595.56644  20927636.7564   20927638.2004
 -26112509.72244 -20347386.16644  20216770.5694   20216771.7784
 -10461541.96444  -8151827.85144  23275598.0164   23275599.5344
  -8415109.38344  -6557211.19844  23776847.4184   23776850.8274
 96  7 10  2  2  0.0000000  0  8G17G15G 3G28G21G 1G23G25
   2361377.69044   1840033.60944  24574486.5144   24574489.8244
  -1926673.17844  -1501302.02844  24401145.2734   24401149.4344
 -14242865.47144 -11098336.05244  22590967.8994   22590970.5404
  -6888607.208 4  -5367752.861 4  24032769.684    24032765.309
 -24577325.52944 -19151140.57744  20930922.6064   20930924.0254
 -26105058.21744 -20341579.79244  20218188.5894   20218189.8204
 -10402708.28644  -8105983.44744  23286793.7384   23286795.6734
  -8513423.80244  -6633819.72444  23758138.6754   23758141.6224
 96  7 10  2  2 30.0000000  0  8G17G15G 3G28G21G 1G23G25
   2467876.56644   1923019.69444  24594752.5574   24594756.5504
  -2033486.48944  -1584533.14444  24380819.3644   24380822.1104
 -14166958.21944 -11039187.59744  22605412.3554   22605415.3854
  -6785943.985 4  -5287755.646 4  24052305.668    24052301.681
 -24559861.72744 -19137532.41944  20934245.8714   20934247.2204
 -26097162.35344 -20335427.16644  20219691.1064   20219692.2714
 -10343818.50044  -8060095.32044  23297999.9824   23298001.1884
  -8611691.20344  -6710391.60944  23739438.8604   23739441.7954
 96  7 10  2  3  0.0000000  0  8G17G15G 3G28G21G 1G23G25
   2574522.88144   2006120.65144  24615046.5694   24615050.5354
  -2140243.86544  -1667720.67544  24360503.9084   24360508.2744
 -14090724.73644 -10979784.93944  22619919.4224   22619922.1214
  -6683277.213 4  -5207755.668 4  24071842.697    24071838.493
 -24542184.06944 -19123757.62844  20937609.8224   20937611.2154
 -26088810.73744 -20328919.40844  20221280.3104   20221281.5124
 -10284857.15444  -8014151.42444  23309219.8694   23309222.1434
  -8709889.20744  -6786909.42244  23720752.3384   23720755.4154
 96  7 10  2  3 30.0000000  0  8G17G15G 3G28G21G 1G23G25
   2681327.32444   2089344.84044  24635370.6354   24635374.8944
  -2246934.59144  -1750856.26244  24340201.5134   24340203.9294
 -14014148.38844 -10920115.11544  22634491.1234   22634494.5374
  -6580601.236 4  -5127748.545 4  24091381.336    24091377.194
 -24524289.01344 -19109813.43044  20941015.1654   20941016.5044
 -26079999.68144 -20322053.64444  20222957.0274   20222958.3204
 -10225814.19944  -7968143.92644  23320455.5714   23320458.5424
  -8808015.12344  -6863371.05144  23702079.5564   23702082.7644
 96  7 10  2  4  0.0000000  0  8G17G15G 3G28G21G 1G23G25
   2788264.28444   2172672.29744  24655719.9714   24655726.3264
  -2353585.66944  -1833960.96144  24319906.4374   24319908.7834
 -13937261.51644 -10860203.32544  22649121.9744   22649125.6544
  -6477947.839 4  -5047758.986 4  24110915.441    24110911.784
 -24506223.13344 -19095736.12644  20944453.0604   20944454.3494
 -26070743.17344 -20314840.77644  20224718.4844   20224719.7944
 -10166708.01344  -7922087.18044  23331703.0094   23331704.4394
  -8906099.63544  -6939800.42444  23683414.7004   23683417.7874
 96  7 10  2  4 30.0000000  0  8G17G15G 3G28G21G 1G23G25
   2895286.75744   2256066.33644  24676085.9604   24676092.6604
  -2460247.23544  -1917073.81444  24299609.3464   24299613.7334
 -13860137.95344 -10800107.10144  22663798.2354   22663801.4984
  -6375372.431 4  -4967830.180 4  24130434.933    24130431.134
 -24488049.25144 -19081574.66444  20947911.4924   20947912.8854
 -26061082.85044 -20307313.24644  20226556.6754   20226558.0424
 -10107567.22744  -7876003.46244  23342957.3664   23342959.4194
  -9004195.30244  -7016238.49344  23664747.6604   23664750.2114
 96  7 10  2  5  0.0000000  0  8G17G15G 3G28G21G 1G23G25
   3002491.71644   2339602.60644  24696486.8294   24696492.8024
  -2566826.66044  -2000122.69344  24279327.7394   24279330.3734
 -13782691.24944 -10739759.08644  22678536.4114   22678539.6094
  -6272787.467 4  -4887893.948 4  24149956.647    24149952.267
 -24469667.98744 -19067251.60844  20951409.2324   20951410.5124
 -26050922.41344 -20299396.01644  20228490.2554   20228491.5084
 -10048296.13744  -7829818.21144  23354235.8764   23354238.1534
  -9102215.94044  -7092618.09544  23646094.9054   23646097.4774
 96  7 10  2  5 30.0000000  0  8G17G15G 3G28G21G 1G23G25
   3109880.67144   2423282.26644  24716922.3224   24716925.7484
  -2673335.07444  -2083116.20144  24259059.9494   24259063.2234
 -13704941.25244 -10679174.73844  22693331.3804   22693334.5664
  -6170208.977 4  -4807962.770 4  24169476.881    24169472.429
 -24451088.41244 -19052774.02444  20954944.8334   20954946.1854
 -26040277.48144 -20291101.25944  20230515.9464   20230517.2394
  -9988894.22344  -7783531.00544  23365539.9014   23365542.0104
  -9200166.96044  -7168943.46344  23627455.4114   23627458.5464
 96  7 10  2  6  0.0000000  0  8G17G15G 3G28G21G 1G23G25
   3217427.17844   2507084.66644  24737387.8064   24737395.7064
  -2779790.07844  -2166068.10244  24238802.0424   24238805.2784
 -13626910.22744 -10618371.39944  22708180.2214   22708183.7214
  -6067659.998 4  -4728054.586 4  24188991.281    24188986.970
 -24432307.39244 -19038139.47344  20958518.7394   20958520.0774
 -26029169.78244 -20282445.90444  20232629.5254   20232630.8484
  -9929388.36244  -7737162.83844  23376863.8144   23376864.6394
  -9298039.00544  -7245207.28344  23608830.6514   23608833.8914
 96  7 10  2  6 30.0000000  0  8G17G15G 3G28G21G 1G23G25
   3325122.33944   2591002.87944  24757881.3524   24757889.1354
  -2886188.60944  -2248975.99144  24218555.3634   24218559.5394
 -13548591.78044 -10557344.09644  22723083.7524   22723086.9684
  -5965142.134 4  -4648170.630 4  24208499.628    24208495.177
 -24413301.59444 -19023329.77544  20962135.4594   20962136.7454
 -26017622.00444 -20273447.62944  20234827.0604   20234828.2954
  -9869789.43844  -7690722.12744  23388204.9104   23388206.4604
  -9395825.83344  -7321404.69644  23590222.3074   23590225.6984
 96  7 10  2  7  0.0000000  0  8G17G15G 3G28G21G 1G23G25
   3432967.12944   2675037.68844  24778403.7194   24778408.1194
  -2992523.79144  -2331834.51444  24198320.4504   24198323.2334
 -13469985.47944 -10496092.49344  22738042.3234   22738045.3924
  -5862653.879 4  -4568309.751 4  24228002.923    24227998.309
 -24394061.77644 -19008337.72144  20965796.6184   20965797.9024
 -26005644.77344 -20264114.71044  20237106.3164   20237107.3734
  -9810106.04244  -7644215.60244  23399562.3794   23399563.6254
  -9493522.47044  -7397531.83944  23571631.2044   23571634.2434
 96  7 10  2  7 30.0000000  0  8G17G15G 3G28G21G 1G23G25
   3540952.89344   2759182.37544  24798952.8604   24798959.1694
  -3098797.29644  -2414644.97044  24178097.1134   24178100.2104
 -13391107.52744 -10434629.21444  22753052.6054   22753055.8174
  -5760202.126 4  -4488477.329 4  24247499.246    24247494.523
 -24374603.23044 -18993175.22744  20969499.4874   20969500.7994
 -25993235.03044 -20254444.77444  20239467.7304   20239469.0124
  -9750335.67744  -7597641.32444  23410936.2514   23410937.9394
  -9591123.87244  -7473584.78344  23553058.1134   23553061.1624
 96  7 10  2  8  0.0000000  0  8G17G15G 3G28G21G 1G23G25
   3649052.14744   2843415.44944  24819523.5164   24819528.2344
  -3205026.43244  -2497420.85844  24157882.3644   24157885.4164
 -13311981.71444 -10372972.79844  22768109.5714   22768112.7584
  -5657809.400 4  -4408690.913 4  24266983.833    24266979.100
 -24354958.51844 -18977867.67544  20973237.7614   20973239.3234
 -25980406.88744 -20244448.81344  20241908.8634   20241910.0484
  -9690511.96244  -7551025.45944  23422320.1824   23422323.2894
  -9688656.37944  -7549584.03244  23534498.2184   23534501.2334
 96  7 10  2  8 30.0000000  0  8G17G15G 3G28G21G 1G23G25
   3757297.60044   2927762.46944  24840122.3404   24840123.6824
  -3311187.84744  -2580143.98044  24137680.5774   24137683.4574
 -13232610.41144 -10311125.08744  22783213.3124   22783216.9644
  -5555457.353 4  -4328936.200 4  24286460.714    24286456.094
 -24335126.61544 -18962414.25444  20977011.6944   20977013.2074
 -25967121.86344 -20234096.84044  20244437.0244   20244438.1604
  -9630606.99944  -7504346.28644  23433720.0154   23433721.3054
  -9786120.47644  -7625529.97644  23515951.3364   23515954.3734
 96  7 10  2  9  0.0000000  0  8G17G15G 3G28G21G 1G23G25
   3865679.49844   3012215.79344  24860747.0194   24860752.3254
  -3417298.52144  -2662827.55744  24117488.1094   24117493.1064
 -13153024.27744 -10249109.96644  22798358.1264   22798361.3804
  -5453168.000 4  -4249230.319 4  24305925.698    24305921.706
 -24315144.43544 -18946843.73344  20980814.1504   20980815.6444
 -25953377.40344 -20223386.86744  20247052.5484   20247053.6584
  -9570636.90744  -7457616.36444  23445132.1234   23445133.9984
  -9883535.16744  -7701437.43544  23497413.9114   23497416.9444
 96  7 10  2  9 30.0000000  0  8G21G17G15G 3G28G 1G23G25
 -24294992.69544 -18931141.08944  20984648.9394   20984650.2664
   3974214.65044   3096788.55244  24881400.4064   24881404.7084
  -3523341.51144  -2745458.39744  24097308.6674   24097312.2124
 -13073203.50344 -10186912.01444  22813547.6354   22813551.0154
  -5350929.021 4  -4169563.685 4  24325381.733    24325377.241
 -25939143.64144 -20212295.62244  20249760.9974   20249762.1844
  -9510590.96644  -7410827.36144  23456558.3354   23456560.2654
  -9980889.43444  -7777297.79644  23478887.9874   23478891.0254
 96  7 10  2 10  0.0000000  0  8G21G17G15G 3G28G 1G23G25
 -24274654.88244 -18915293.45144  20988519.1174   20988520.3624
   4082901.92144   3181479.82844  24902082.5244   24902090.9634
  -3629313.16944  -2828033.66344  24077142.8994   24077146.8804
 -12993141.38344 -10124526.00144  22828783.0694   22828786.1554
  -5248742.008 4  -4089937.585 4  24344827.628    24344822.733
 -25924428.20444 -20200829.04444  20252561.3104   20252562.4254
  -9450471.40544  -7363980.96444  23467998.6234   23468001.1464
 -10078180.47944  -7853108.91844  23460374.0604   23460377.0154
 96  7 10  2 10 30.0000000  0  8G21G17G15G 3G28G 1G23G25
 -24254113.10544 -18899286.87644  20992428.0704   20992429.3774
   4191735.31044   3266284.97244  24922792.4584   24922802.1394
  -3735206.17444  -2910547.64844  24056992.0654   24056995.4584
 -12912821.34444 -10061939.01544  22844067.4444   22844070.7214
  -5146605.475 4  -4010350.813 4  24364263.497    24364258.969
 -25909239.91744 -20188994.00844  20255451.5414   20255452.7444
  -9390261.59544  -7317064.26444  23479456.2234   23479458.1484
 -10175393.86044  -7928859.51444  23441875.0474   23441876.8454
 96  7 10  2 11  0.0000000  0  8G21G17G15G 3G28G 1G23G25
 -24233357.17844 -18883113.43344  20996377.8144   20996378.9424
   4300683.25144   3351179.39144  24943525.2084   24943532.0884
  -3841022.92944  -2993002.21744  24036855.7104   24036859.2194
 -12832229.74544  -9999140.41744  22859403.4054   22859407.1564
  -5044526.181 4  -3930808.617 4  24383688.570    24383684.183
 -25893615.79744 -20176819.36644  20258424.5704   20258425.9444
  -9329960.45244  -7270076.39244  23490931.2254   23490932.5124
 -10272516.43644  -8004539.35644  23423393.1584   23423395.0774
 96  7 10  2 11 30.0000000  0  8G21G17G15G 3G28G 1G23G25
 -24212369.67844 -18866759.53944  21000371.6234   21000372.7794
   4409742.16844   3436160.31344  24964278.7504   24964283.5704
  -3946752.19544  -3075388.62644  24016736.1904   24016739.4094
 -12751371.06844  -9936133.70444  22874790.2624   22874793.5224
  -4942498.327 4  -3851306.504 4  24403103.918    24403099.356
 -25877568.38744 -20164314.89044  20261478.4444   20261479.5704
  -9269551.90844  -7223004.81644  23502426.3934   23502429.1624
 -10369527.03744  -8080131.94844  23404932.7744   23404934.9804
 96  7 10  2 12  0.0000000  0  8G21G17G15G 3G28G 1G23G25
 -24191151.22544 -18850225.68444  21004409.3764   21004410.4634
   4518911.42144   3521227.23144  24985052.7574   24985059.5644
  -4052383.63344  -3157698.82444  23996635.2594   23996638.2474
 -12670247.71744  -9872920.75544  22890227.6664   22890230.9084
  -4840516.541 4  -3771840.314 4  24422510.766    24422505.848
 -25861106.69444 -20151487.59444  20264611.0344   20264612.2114
  -9209012.68644  -7175831.40744  23513946.5954   23513949.0314
 -10466401.86144  -8155618.73444  23386497.8754   23386500.8334
 96  7 10  2 12 30.0000000  0  8G21G17G15G 3G28G 1G23G25
 -24169764.73144 -18833560.88244  21008479.0534   21008480.3134
   4628131.24844   3606333.51944  25005836.2354   25005842.8784
  -4157971.52244  -3239975.06644  23976542.5954   23976545.1714
 -12588930.25444  -9809556.55344  22905701.9734   22905705.8274
  -4738640.287 4  -3692456.355 4  24441897.350    24441892.617
 -25844282.99944 -20138378.21944  20267812.3154   20267813.6314
  -9148412.14344  -7128610.22644  23525478.9024   23525481.4514
 -10563202.35944  -8231047.62244  23368077.2344   23368079.6364
 96  7 10  2 13  0.0000000  0  8G21G17G15G 3G28G 1G23G25
 -24148184.95944 -18816745.47244  21012585.6114   21012586.8204
   4737437.48744   3691507.19344  25026636.3294   25026643.0394
  -4263491.93444  -3322198.75544  23956462.7454   23956465.1414
 -12507415.59044  -9746038.67544  22921213.7734   22921216.9254
  -4636850.790 4  -3613139.984 4  24461267.075    24461262.282
 -25827059.48544 -20124957.29744  20271089.8144   20271091.0984
  -9087733.71344  -7081328.36944  23537025.7284   23537026.5214
 -10659913.45344  -8306406.82944  23349673.5094   23349676.2784
 96  7 10  2 13 30.0000000  0  8G21G17G15G 3G28G 1G23G25
 -24126369.79244 -18799746.63844  21016736.7884   21016738.0744
   4846901.57844   3776803.85444  25047467.2484   25047469.5774
  -4368898.94944  -3404334.07044  23936404.4244   23936407.1834
 -12425668.64344  -9682339.80444  22936769.6674   22936773.3954
  -4535107.383 4  -3533859.538 4  24480628.345    24480623.291
 -25809366.69644 -20111170.70544  20274456.6544   20274457.8694
  -9026942.24344  -7033958.40444  23548593.8194   23548594.9754
 -10756495.83844  -8381665.74744  23331294.3504   23331296.2614
 96  7 10  2 14  0.0000000  0  8G21G17G15G 3G28G 1G23G25
 -24104340.41044 -18782580.88344  21020928.8964   21020930.1224
   4956507.81544   3862211.26744  25068324.8224   25068326.5784
  -4474213.63944  -3486397.44744  23916363.7214   23916367.4244
 -12343693.05144  -9618462.77144  22952368.9914   22952372.3374
  -4433436.006 4  -3454635.213 4  24499976.125    24499971.144
 -25791220.16044 -20097030.54144  20277909.8844   20277910.9724
  -8966072.77444  -6986527.66544  23560176.7644   23560178.3174
 -10852973.46344  -8456843.04044  23312935.3234   23312938.0264
 96  7 10  2 14 30.0000000  0  8G21G17G15G 3G28G 1G23G25
 -24082099.03044 -18765249.93444  21025161.2524   21025162.5424
   5066251.05544   3947725.46044  25089208.2954   25089213.5494
  -4579442.28144  -3568393.78744  23896339.3164   23896341.9034
 -12261492.60044  -9554410.52344  22968011.3664   22968014.5664
  -4331848.177 4  -3375475.992 4  24519307.539    24519303.008
 -25772629.91344 -20082544.62544  20281447.4954   20281448.7594
  -8905148.41944  -6939054.14644  23571769.7704   23571772.0314
 -10949362.23744  -8531951.09244  23294593.2084   23294595.5044
 96  7 10  2 15  0.0000000  0  8G21G17G15G 3G28G 1G23G25
 -24059623.38444 -18747736.43544  21029438.2224   21029439.6964
   5176160.26844   4033368.95644  25110122.8344   25110127.4634
  -4684558.68444  -3650302.65444  23876336.2474   23876338.8314
 -12179034.18444  -9490157.27144  22983703.1354   22983705.5074
  -4230322.844 4  -3296365.485 4  24538627.204    24538622.395
 -25753587.01844 -20067706.00044  20285071.1664   20285072.3074
  -8844129.26644  -6891506.75644  23583381.5794   23583384.4674
 -11045628.96344  -8606964.03944  23276274.2064   23276277.1734
 96  7 10  2 15 30.0000000  0  8G21G17G15G 3G28G 1G23G25
 -24036975.45344 -18730088.69144  21033747.9664   21033749.1734
   5286172.12844   4119092.49644  25131057.6884   25131063.6494
  -4789604.94544  -3732156.87544  23856346.8424   23856347.9064
 -12096369.04344  -9425742.93444  22999433.9124   22999437.2214
  -4128907.638 4  -3217340.791 4  24557926.131    24557921.153
 -25734155.01944 -20052564.17644  20288768.9944   20288770.2714
  -8783051.95444  -6843914.04544  23595004.2374   23595007.4424
 -11141811.22344  -8681911.17844  23257971.0834   23257973.5844
 96  7 10  2 16  0.0000000  0  8G21G17G15G 3G28G 1G23G25
 -24014141.76744 -18712296.20144  21038093.0694   21038094.3454
   5396277.60344   4204888.98844  25152010.2634   25152014.0374
  -4894562.16544  -3813941.71444  23836374.1474   23836376.4094
 -12013498.57444  -9361168.60644  23015203.6214   23015207.6534
  -4027588.156 4  -3138390.662 4  24577206.673    24577201.931
 -25714326.90544 -20037113.68844  20292542.2034   20292543.3044
  -8721891.04344  -6796256.20944  23606643.1444   23606644.0954
 -11237895.60644  -8756782.05044  23239686.7854   23239689.9634
 96  7 10  2 16 30.0000000  0  8G21G17G15G 3G28G 1G23G25
 -23991103.08444 -18694343.97444  21042477.1744   21042478.3444
   5506478.10844   4290759.48944  25172981.2144   25172986.2824
  -4999411.60644  -3895642.56244  23816422.0894   23816423.9584
 -11930427.38744  -9296437.87244  23031011.3784   23031014.3574
  -3926351.165 4  -3059504.820 4  24596471.502    24596466.678
 -25694083.55044 -20021339.63844  20296394.3824   20296395.4384
  -8660616.82544  -6748510.06944  23618303.2724   23618305.6844
 -11333869.66644  -8831566.94944  23221423.4214   23221425.6394
 96  7 10  2 17  0.0000000  0  8G21G17G15G 3G28G 1G23G25
 -23967866.75044 -18676237.73244  21046898.9164   21046900.2044
   5616767.41844   4376699.23844  25193968.4444   25193972.0584
  -5104155.73444  -3977261.34944  23796489.8604   23796492.2894
 -11847175.72044  -9231566.49344  23046853.5644   23046856.8484
  -3825204.047 4  -2980689.013 4  24615719.069    24615714.631
 -25673422.06544 -20005239.77444  20300326.0504   20300327.3174
  -8599224.90844  -6700672.23644  23629985.8634   23629986.9814
 -11429731.35444  -8906264.29544  23203181.5924   23203183.8974
 96  7 10  2 17 30.0000000  0  8G21G17G15G 3G28G 1G23G25
 -23944428.95244 -18657974.51044  21051359.0384   21051360.3644
   5727135.98044   4462700.72344  25214970.2594   25214973.4404
  -5208787.38644  -4058792.47544  23776579.1784   23776581.0584
 -11763742.47644  -9166553.63644  23062730.1074   23062733.6574
  -3724144.912 4  -2901941.788 4  24634949.950    24634945.391
 -25652323.74944 -19988799.52444  20304340.9154   20304342.2394
  -8537721.88844  -6652747.80244  23641689.2584   23641690.3574
 -11525476.98644  -8980871.20544  23184961.6924   23184963.9344
 96  7 10  2 18  0.0000000  0  8G21G17G15G 3G28G 1G23G25
 -23920773.66744 -18639541.81844  21055860.4284   21055861.7004
   5837591.58944   4548770.06644  25235988.8164   25235997.2554
  -5313303.84944  -4140233.85444  23756690.4324   23756692.3934
 -11680104.88844  -9101381.53544  23078645.9274   23078649.0934
  -3623176.135 4  -2823264.954 4  24654163.570    24654159.479
 -25630781.58044 -19972013.41444  20308440.2474   20308441.4994
  -8476119.11644  -6604745.65144  23653411.8404   23653413.8674
 -11621093.70944  -9055377.67444  23166766.4284   23166768.5734
 96  7 10  2 18 30.0000000  0  8G21G17G15G 3G28G 1G23G25
 -23896932.88144 -18620964.58244  21060397.2054   21060398.4134
   5948132.17544   4634905.59944  25257024.2614   25257027.5194
  -5417718.65744  -4221596.00644  23736820.8834   23736824.0514
 -11596252.07144  -9036041.73344  23094602.5264   23094605.7444
  -3522316.515 4  -2744673.154 4  24673356.751    24673352.340
 -25608817.29244 -19954898.38144  20312620.0014   20312621.1354
  -8414436.08044  -6556680.96544  23665150.0394   23665151.8974
 -11716589.12444  -9129789.59544  23148594.2024   23148597.3364
 96  7 10  2 19  0.0000000  0  8G21G17G15G 3G28G 1G23G25
 -23872912.37244 -18602247.30144  21064968.1274   21064969.4044
   6058771.59344   4721118.16644  25278078.7464   25278085.2124
  -5522027.55844  -4302875.64444  23716971.4794   23716974.3054
 -11512167.47644  -8970521.32544  23110603.3754   23110607.2294
  -3421566.506 4  -2666166.764 4  24692528.933    24692524.595
 -25586430.40444 -19937454.04944  20316879.9844   20316881.3524
  -8352673.95244  -6508554.64844  23676903.0754   23676903.5984
 -11811945.10944  -9204092.88344  23130448.4814   23130451.1374
 96  7 10  2 19 30.0000000  0  8G21G17G15G 3G28G 1G23G25
 -23848677.22644 -18583362.77244  21069579.9174   21069581.1694
   6169540.97544   4807431.97644  25299157.5244
  -5626203.27444  -4384051.48344  23697147.3214   23697150.4074
 -11427822.40344  -8904797.94044  23126653.9404   23126657.6324
  -3320904.164 4  -2587728.726 4  24711684.576    24711679.878
 -25563599.18244 -19919663.48144  20321224.5704   20321225.8124
  -8290805.98344  -6460345.85244  23688675.9674   23688676.9144
 -11907130.77044  -9278263.45444  23112335.2384   23112337.1824
 96  7 10  2 20  0.0000000  0  8G21G17G15G 3G28G 1G23G25
 -23824254.16744 -18564331.81744  21074227.5424   21074228.8254
   6280427.72144   4893837.28044  25320258.3744   25320263.0894
  -5730274.08144  -4465145.57944  23677343.4274   23677346.4114
 -11343261.89244  -8838906.69744  23142745.4364   23142749.1194
  -3220362.980 4  -2509385.082 4  24730816.886    24730812.220
 -25540360.96844 -19901555.77944  20325646.5684   20325647.8174
  -8228855.13144  -6412072.47244  23700464.4984   23700467.1954
 -12002165.53344  -9352316.43844  23094250.4324   23094252.5254
 96  7 10  2 20 30.0000000  0  8G21G17G15G 3G28G 1G23G25
 -23799640.74144 -18545152.52444  21078911.3014   21078912.5854
   6391433.97444   4980335.69044  25341381.5094   25341388.1154
  -5834229.31744  -4546149.61144  23657561.4334   23657563.0854
 -11258503.98944  -8772861.64444  23158874.3724   23158877.5624
  -3119937.449 4  -2431131.554 4  24749927.196    24749922.808
 -25516705.87344 -19883123.23244  20330148.0864   20330149.2864
  -8166807.98844  -6363724.04944  23712271.4434   23712273.7024
 -12097046.45944  -9426249.54944  23076195.3384   23076197.4334
 96  7 10  2 21  0.0000000  0  8G21G17G15G 3G28G 1G23G25
 -23774787.35544 -18525786.24944  21083640.7834   21083641.9934
   6502577.11044   5066940.75844  25362531.1294   25362536.7344
  -5938043.65644  -4627043.87344  23637806.1074   23637807.8384
 -11173558.23144  -8706670.19444  23175039.1024   23175042.1314
  -3019606.858 4  -2352951.995 4  24769019.615    24769015.185
 -25492616.29344 -19864352.12844  20334732.2664   20334733.4544
  -8104653.19744  -6315291.74544  23724099.0054   23724102.2594
 -12191746.12844  -9500041.41144  23058174.8354   23058176.6014
 96  7 10  2 21 30.0000000  0  8G21G17G15G 3G28G 1G23G25
 -23749709.06944 -18506244.73244  21088412.9434   21088414.2004
   6613825.45744   5153627.90044  25383701.2114
  -6041732.39744  -4707840.25444  23618074.8474   23618077.6304
 -11088458.86944  -8640359.06644  23191233.1774   23191236.4564
  -2919392.246 4  -2274862.810 4  24788090.056    24788085.366
 -25468123.54044 -19845266.86044  20339393.0544   20339394.2794
  -8042422.99944  -6266800.70244  23735941.3524   23735943.2334
 -12286296.89644  -9573717.26244  23040182.2834   23040184.3294
 96  7 10  2 22  0.0000000  0  8G21G17G15G 3G28G 1G23G25
 -23724416.35144 -18486536.11944  21093226.0514   21093227.2124
   6725147.57044   5240372.47744  25404885.3304
  -6145296.08344  -4788539.20544  23598367.1444   23598369.2524
 -11003213.46444  -8573934.12644  23207454.7004   23207458.4004
  -2819298.922 4  -2196868.130 4  24807137.684    24807132.690
 -25443238.92944 -19825876.24744  20344128.4484   20344129.5524
  -7980127.70544  -6218258.91344  23747795.6104   23747797.5394
 -12380715.59244  -9647290.19144  23022214.8084   23022216.9384
 96  7 10  2 22 30.0000000  0  8G21G17G15G 3G28G 1G23G25
 -23698887.98844 -18466643.88844  21098083.9204   21098085.0604
   6836534.77644   5327167.76244  25426081.4204
  -6248724.19544  -4869132.50044  23578685.5014   23578687.7314
 -10917817.46344  -8507391.85644  23223704.5984   23223707.9564
  -2719321.605 4  -2118963.858 4  24826162.792    24826158.026
 -25417968.03644 -19806184.63444  20348937.3664   20348938.6014
  -7917755.33744  -6169657.08844  23759664.7264   23759665.7174
 -12475000.69244  -9720759.02744  23004272.8824   23004275.3554
 96  7 10  2 23  0.0000000  0  8G21G17G15G 3G28G 1G23G25
 -23673118.10844 -18446563.51544  21102987.8224   21102989.2114
   6947982.77944   5414010.39544  25447289.4104   25447297.1974
  -6352014.01144  -4949618.03944  23559029.9444   23559032.3224
 -10832273.44244  -8440734.21744  23239983.0794   23239987.3494
  -2619462.772 4  -2041151.918 4  24845165.513    24845160.561
 -25392314.37544 -19786194.74944  20353819.1144   20353820.2864
  -7855303.64644  -6120993.46144  23771549.0334   23771550.9614
 -12569155.22444  -9794126.12044  22986356.0604   22986357.9834
 96  7 10  2 23 30.0000000  0  8G21G17G15G 3G28G 1G23G25
 -23647124.93344 -18426309.08044  21107934.1124   21107935.4624
   7059469.77844   5500883.41344  25468504.3894   25468507.9294
  -6455170.33144  -5029999.56444  23539399.7914   23539402.9784
 -10746580.09244  -8373960.22944  23256290.3924   23256295.6234
  -2519732.185 4  -1963439.903 4  24864143.775    24864138.761
 -25366273.01944 -19765902.79344  20358774.5744   20358775.6714
  -7792750.03844  -6072250.41744  23783453.0144   23783456.1884
 -12663184.88044  -9867395.89844  22968462.6674   22968464.4654
 96  7 10  2 24  0.0000000  0  8G21G17G15G 3G28G 1G23G25
 -23620921.77244 -18405891.02844  21112920.4354   21112921.6234
   7170984.73644   5587778.27944  25489724.9904
  -6558203.19744  -5110284.88844  23519793.2154   23519794.8124
 -10660756.14144  -8307084.46044  23272622.2934   23272625.4744
  -2420145.180 4  -1885839.779 4  24883094.803    24883089.677
 -25339840.88844 -19745306.32544  20363804.3364   20363805.5644
  -7730076.36044  -6023413.78244  23795379.3164   23795382.5204
 -12757077.70844  -9940559.06444  22950595.0144   22950597.1664
 96  7 10  2 24 30.0000000  0  8G21G17G15G 3G28G 1G23G25
 -23594510.23744 -18385310.61144  21117946.4394   21117947.6214
   7282571.00844   5674728.71544  25510959.1694   25510961.2574
  -6661091.36144  -5190457.47144  23500214.1814   23500216.1694
 -10574777.41644  -8240088.10044  23288983.6064   23288987.4664
  -2320685.271 4  -1808338.682 4  24902021.579    24902016.230
 -25312994.83044 -19724387.31444  20368912.9964   20368914.1534
  -7667257.13244  -5974463.76644  23807333.4634   23807334.9734
 -12850789.15744 -10013580.89944  22932762.2044   22932764.1734
 96  7 10  2 25  0.0000000  0  8G21G17G15G 3G28G 1G23G25
 -23567908.71844 -18364582.15444  21123008.5064   21123009.6744
   7394237.77144   5761741.87144  25532208.7804   25532214.4724
  -6763827.04844  -5270511.24444  23480664.3504   23480667.8474
 -10488629.92644  -8172960.23744  23305376.8584   23305380.0054
  -2221349.967 4  -1730934.686 4  24920924.921    24920919.179
 -25285719.67744 -19703133.94144  20374103.3064   20374104.3704
  -7604295.53644  -5925402.77844  23819314.3154   23819316.3874
 -12944308.14244 -10086452.76444  22914966.4504   22914968.6264
 96  7 10  2 25 30.0000000  0  8G21G17G15G 3G28G 1G23G25
 -23541143.97444 -18343726.51144  21128101.6394   21128103.0174
   7505967.73444                  25553470.3694
  -6866435.86944  -5350466.16244  23461138.4354   23461141.5914
 -10402332.35344  -8105715.41144  23321798.9754   23321802.9334
  -2122170.116 4  -1653651.809 4  24939798.328    24939792.693
 -25258050.68744 -19681573.68244  20379368.5494   20379369.5804
  -7541226.04344  -5876257.74644  23831316.2744   23831318.4494
 -13037652.99044 -10159188.93544  22897203.5114   22897205.3104
 96  7 10  2 26  0.0000000  0  7G21G15G 3G28G 1G23G25
 -23514205.67344 -18322735.62844  21133227.8274   21133228.9824
  -6968905.99944  -5430313.00544  23441639.0234   23441641.9934
 -10315870.58244  -8038342.64744  23338252.4384   23338255.3714
  -2023139.148 4  -1576484.975 4  24958643.518    24958638.040
 -25229999.12644 -19659715.31444  20384706.5814   20384707.7234
  -7478071.86644  -5827046.71444  23843334.3554   23843336.0494
 -13130816.68344 -10231783.94144  22879474.8544   22879477.0804
 96  7 10  2 26 30.0000000  0  8G21G31G15G 3G28G 1G23G25
 -23487044.25444 -18301570.88544  21138396.5394   21138397.6304
        -0.53054         0.33054  22834269.7184   22834272.1994
  -7071196.45644  -5510019.86544  23422173.8824   23422177.4154
 -10229196.86844  -7970804.74144  23354746.0044   23354749.3134
  -1924220.734 4  -1499405.827 4  24977467.236    24977461.603
 -25201540.52044 -19637539.76744  20390122.0304   20390123.2094
  -7414822.74844  -5777761.70544  23855370.5674   23855373.5014
 -13223769.82744 -10304214.89244  22861786.1794   22861788.0544
 96  7 10  2 27  0.0000000  0  8G21G31G15G 3G28G 1G23G25
 -23459678.19744 -18280246.67944  21143604.1004   21143605.1974
     46907.55244     36552.03744  22843196.1614   22843198.3044
  -7173356.59844  -5589625.16744  23402733.2774   23402736.2694
 -10142374.79244  -7903151.22344  23371267.5234   23371270.6984
  -1825469.722 4  -1422457.133 4  24996258.916    24996253.271
 -25172730.49844 -19615090.39044  20395604.4494   20395605.6044
  -7351537.97544  -5728448.91644  23867412.6644   23867413.4554
 -13316577.03844 -10376532.12844  22844125.6474   22844127.3774
 96  7 10  2 27 30.0000000  0  8G21G31G15G 3G28G 1G23G25
 -23432102.48844 -18258759.11744  21148851.6194   21148852.6274
     94185.24144     73391.73944  22852192.5674   22852195.4644
  -7275392.79544  -5669133.88444  23383316.6574   23383319.1314
 -10055425.71144  -7835398.74144  23387813.3244   23387816.7214
  -1726897.351 4  -1345647.612 4  25015016.679    25015011.178
 -25143579.73544 -19592375.50244  20401151.6344   20401152.8344
  -7288226.64044  -5679115.44344  23879460.4154   23879462.8804
 -13409242.27744 -10448738.74044  22826492.1264   22826493.8484
 96  7 10  2 28  0.0000000  0  8G21G31G15G 3G28G 1G23G25
 -23404248.38944 -18237054.62344  21154152.1314   21154153.2104
    141898.90444    110571.17344  22861271.9834   22861274.6764
  -7377223.11244  -5748482.17844  23363938.8764   23363941.6824
  -9968293.23144  -7767503.35744  23404393.7204   23404397.7234
  -1628426.867 4  -1268917.512 4  25033755.107    25033749.728
 -25114000.28944 -19569326.57644  20406780.4194   20406781.4884
  -7224800.69644  -5629692.60544  23891529.9444   23891531.6094
 -13501683.27244 -10520770.61144  22808901.0824   22808903.0384
 96  7 10  2 28 30.0000000  0  8G21G31G15G 3G28G 1G23G25
 -23376162.64944 -18215169.63344  21159496.6264   21159497.8134
    190009.17944    148059.64444  22870427.0734   22870429.3954
  -7478883.22644  -5827697.83544  23344593.5844   23344596.0504
  -9881032.62544  -7699508.12644  23420998.8604   23421003.0014
  -1530099.216 4  -1192298.679 4  25052466.381    25052460.844
 -25084022.09144 -19545966.93544  20412485.0774   20412486.3074
  -7161283.63144  -5580198.79644  23903617.3494   23903618.5444
 -13593937.58444 -10592657.01844  22791345.5744   22791347.6804
 96  7 10  2 29  0.0000000  0  8G21G31G15G 3G28G 1G23G25
 -23347843.64944 -18193102.87844  21164885.5884   21164886.6484
    238518.90544    185859.38144  22879658.3934   22879661.1974
  -7580361.54744  -5906771.81944  23325282.9894   23325286.1224
  -9793647.17344  -7631415.61444  23437627.9834   23437632.1874
  -1431907.689 4  -1115785.947 4  25071151.539    25071146.324
 -25053627.20944 -19522282.60244  20418269.0684   20418270.2094
  -7097651.73944  -5530615.50144  23915725.8724   23915726.3444
 -13686002.00344 -10664395.45544  22773826.1814   22773828.3634
 96  7 10  2 29 30.0000000  0  8G21G31G15G 3G28G 1G23G25
 -23319352.63044 -18170902.08444  21170307.2434   21170308.2974
    287398.40544    223947.27744  22888959.7304   22888963.1214
  -7681703.76644  -5985739.75044  23305998.3494   23306000.7354
  -9706191.02244  -7563268.02944  23454270.2864   23454273.8034
  -1333902.919 4  -1039418.737 4  25089801.568    25089796.132
 -25022868.94144 -19498315.11444  20424122.1604   20424123.2224
  -7033938.47944  -5480968.81344  23927849.8824   23927851.0254
 -13777923.42444 -10736022.48044  22756334.0804   22756336.0964
 96  7 10  2 30  0.0000000  0  8G21G31G15G 3G28G 1G23G25
 -23290673.78644 -18148554.92844  21175764.6414   21175765.5554
    336681.05544    262349.31244  22898337.9404   22898341.4934
  -7782890.77944  -6064586.74344  23286743.1004   23286746.3364
  -9618639.37844  -7495046.03744  23470930.8834   23470934.0914
  -1236070.879 4   -963186.124 4  25108418.484    25108413.057
 -24991741.42144 -19474059.89744  20430045.4794   20430046.5434
  -6970118.76044  -5431239.17144  23939994.5854   23939994.4634
 -13869680.08944 -10807521.10544  22738873.4794   22738875.3234
 96  7 10  2 30 30.0000000  0  8G21G31G15G 3G28G 1G23G25
 -23261740.96944 -18126009.87744  21181270.2974   21181271.3234
    386411.32344    301100.12944  22907801.4984   22907804.6964
  -7883869.59044  -6143271.47944  23267527.5124   23267530.0694
  -9530922.02644  -7426694.89844  23487623.0944   23487626.7564
  -1138364.396 4   -887051.440 4  25127011.432    25127005.995
 -24960202.86144 -19449484.38944  20436047.0964   20436048.1564
  -6906139.68444  -5381385.35644  23952169.3174   23952171.6684
 -13961215.08744 -10878847.01344  22721454.7014   22721456.9974
 96  7 10  2 31  0.0000000  0  8G21G31G15G 3G28G 1G23G25
 -23232582.14244 -18103288.71144  21186819.0364   21186820.0394
    436537.64644    340159.57144  22917340.3984   22917343.3374
  -7984683.49844  -6221827.72244  23248343.1444   23248345.4754
  -9443076.85144  -7358244.17344  23504339.6784   23504342.5204
  -1040831.212 4   -811051.730 4  25145571.425    25145566.104
 -24928300.50644 -19424625.40444  20442117.9484   20442119.0054
  -6842042.57344  -5331439.57144  23964366.6434   23964367.3034
 -14052561.66244 -10950026.09944  22704071.9204   22704073.7014
 96  7 10  2 31 30.0000000  0  8G21G31G15G 3G28G 1G23G25
 -23203194.22544 -18080389.03344  21192411.3194   21192412.3714
    487065.87344    379532.16844  22926955.7264   22926958.8484
  -8085325.44144  -6300249.96444  23229191.4224   23229193.7114
  -9355096.54844  -7289688.17044  23521081.8544   23521085.4384
   -943469.663 4   -735185.808 4  25164099.298    25164093.350
 -24896043.63844 -19399490.17644  20448256.1954   20448257.2754
  -6777831.63544  -5281405.08644  23976585.4714   23976587.4184
 -14143687.73844 -11021033.36944  22686731.5254   22686733.0654
 96  7 10  2 32  0.0000000  0  8G21G31G15G 3G28G 1G23G25
 -23173581.52744 -18057314.20144  21198046.4524   21198047.7784
    537977.92444    419203.85844  22936643.9274   22936647.0394
  -8185793.97844  -6378537.08544  23210072.7664   23210075.9354
  -9266985.69844  -7221030.43044  23537848.9234   23537851.6344
   -846283.363 4   -659456.451 4  25182593.190    25182587.488
 -24863419.00744 -19374068.37644  20454464.3964   20454465.4174
  -6713518.27144  -5231290.76744  23988824.1064   23988825.1344
 -14234575.14144 -11091854.65344  22669436.2714   22669437.9484
 96  7 10  2 32 30.0000000  0  8G21G31G15G 3G28G 1G23G25
 -23143744.70244 -18034064.72944  21203724.1944   21203725.2844
    589267.65744    459169.84744  22946403.9834   22946407.0054
  -8286087.49144  -6456687.82244  23190987.6654   23190989.9564
  -9178762.68444  -7152285.30544  23554637.2804   23554641.4914
   -749275.682 4   -583866.287 4  25201053.299    25201047.745
 -24830424.14144 -19348358.07944  20460743.1044   20460744.1304
  -6649106.66044  -5181099.89144  24001081.3484   24001082.8924
 -14325237.15744 -11162500.30944  22652183.7974   22652185.6534
 96  7 10  2 33  0.0000000  0  8G21G31G15G 3G28G 1G23G25
 -23113669.03644 -18010629.13844  21209447.4924   21209448.7694
    640965.65844    499453.96344  22956241.8024   22956244.8334
  -8386176.44544  -6534679.16544  23171941.4034   23171944.4574
  -9090420.39844  -7083447.24744  23571448.3094   23571451.4314
   -652422.180 4   -508396.279 4  25219484.085    25219478.375
 -24797039.13544 -19322343.78144  20467096.0134   20467097.0564
  -6584585.70844  -5130823.82544  24013358.9804   24013359.8224
 -14415658.97144 -11232958.80044  22634976.7304   22634978.5744
 96  7 10  2 33 30.0000000  0  8G21G31G15G 3G28G 1G23G25
 -23083414.03044 -17987053.80044  21215204.7854   21215205.7464
    693024.23944    540019.04544  22966148.2534   22966150.9724
  -8486104.98944  -6612545.50844  23152925.4774   23152928.6164
  -9002022.59144  -7014565.92344  23588269.8434   23588272.9784
   -555771.637 4   -433084.443 4  25237876.271    25237870.407
 -24763311.17544 -19296062.24944  20473514.2014   20473515.2104
  -6520009.49644  -5080504.72444  24025647.5344   24025646.9744
 -14505893.14144 -11303271.07244  22617805.5764   22617807.6184
 96  7 10  2 34  0.0000000  0  8G21G31G15G 3G28G 1G23G25
 -23052959.98844 -17963323.37544  21221000.0824   21221001.1424
    745459.63444    580877.75444  22976126.2984   22976129.3774
  -8585857.69944  -6690274.84244  23133943.1464   23133946.0714
  -8913564.41844  -6945637.58644  23605102.5744   23605105.5994
   -459313.719 4   -357922.619 4  25256231.963    25256226.018
 -24729229.79444 -19269505.32944  20479999.7484   20480000.8694
  -6455350.76744  -5030121.30644  24037951.7434   24037953.2724
 -14595954.73044 -11373448.87044  22600667.4734   22600669.2524
 96  7 10  2 34 30.0000000  0  8G21G31G15G 3G28G 1G23G25
 -23022261.93344 -17939402.81144  21226841.7814   21226842.9424
    798305.52444    622056.33244  22986182.5174   22986186.0664
  -8685394.03944  -6767835.58844  23115002.1214   23115004.9474
  -8825009.36944  -6876633.72444  23621954.5534   23621958.3804
   -363013.151 4   -282883.326 4  25274557.471    25274551.313
 -24694779.04344 -19242660.58444  20486555.5114   20486556.5944
  -6390577.06944  -4979648.31344  24050277.7794   24050280.4314
 -14685821.90444 -11443475.16944  22583566.3894   22583567.9254
 96  7 10  2 35  0.0000000  0  8G21G31G15G 3G28G 1G23G25
 -22991353.82444 -17915318.56444  21232723.3904   21232724.7124
    851524.11044    663525.32844  22996309.8634   22996312.7994
  -8784739.43744  -6845247.53744  23096097.2114   23096099.1524
  -8736388.08744  -6807578.28944  23638818.9594   23638822.3914
   -266900.371 4   -207990.353 4  25292847.051    25292840.866
 -24659973.42244 -19215539.31444  20493178.7884   20493179.8894
  -6325710.84544  -4929103.19544  24062621.4234   24062624.1254
 -14775503.04144 -11513356.50544  22566500.5494   22566502.2454
 96  7 10  2 35 30.0000000  0  8G21G31G15G 3G28G 1G23G25
 -22960221.97844 -17891059.97944  21238647.4964   21238648.6294
    905129.39044    705295.66244  23006510.5274   23006513.4454
  -8883877.15344  -6922497.66744  23077231.8034   23077234.1464
  -8647677.77444  -6738453.45244  23655699.7604   23655702.9244
   -170963.878 4   -133234.720 4  25311102.900    25311097.122
 -24624785.10244 -19188119.83944  20499874.9024   20499876.0024
  -6260720.94244  -4878461.72244  24074988.6114   24074990.3614
 -14864968.79344 -11583070.01244  22549475.7354   22549477.5054
 96  7 10  2 36  0.0000000  0  7G21G31G 3G28G 1G23G25
 -22928870.08044 -17866629.92944  21244613.5774   21244614.6234
    959100.11344    747350.74444  23016780.8964   23016783.4674
  -8558883.32044  -6669263.07944  23672596.8564   23672600.8294
    -75219.540 4    -58628.736 4  25329322.928    25329316.148
 -24589228.76344 -19160413.59444  20506640.9944   20506642.1314
  -6195621.49344  -4827734.89944  24087376.7404   24087377.6234
 -14954225.87544 -11652620.91144  22532490.6134   22532491.7944
 96  7 10  2 36 30.0000000  0  7G21G31G 3G28G 1G23G25
 -22897317.42644 -17842043.44244  21250617.7814   21250619.0104
   1013423.79344    789680.86244  23027118.5364   23027121.2824
  -8470013.24244  -6600013.75644  23689508.3244   23689512.3974
     20320.962 4     15818.399 4  25347503.755    25347497.205
 -24553300.68544 -19132417.68344  20513477.9324   20513479.0124
  -6130442.47044  -4776946.08544  24099779.4294   24099781.3224
 -15043250.85044 -11721990.95644  22515549.5814   22515551.5424
 96  7 10  2 37  0.0000000  0  6G21G31G 3G 1G23G25
 -22865578.09044 -17817311.48844  21256657.5894   21256658.7874
   1068096.67244    832283.06844  23037522.5964   23037525.2774
  -8381071.69144  -6530708.77144  23706433.2414   23706437.6364
 -24517001.70544 -19104132.76044  20520385.3824   20520386.5584
  -6065194.85344  -4726103.80444  24112195.6024   24112198.4384
 -15132038.23444 -11791175.86644  22498653.8234   22498655.6254
 96  7 10  2 37 30.0000000  0  6G21G31G 3G 1G23G25
 -22833631.76744 -17792418.24944  21262736.7554   21262738.0024
   1123112.73044    875152.68644  23047991.5794   23047994.5404
  -8292052.42944  -6461343.23244  23723373.2044   23723377.6454
 -24480366.26444 -19075585.66144  20527356.8734   20527358.0624
  -5999884.89044  -4675212.92344  24124624.0274   24124624.8564
 -15220582.39844 -11860171.25144  22481804.5754   22481806.2594
 96  7 10  2 38  0.0000000  0  6G21G31G 3G23G 1G25
 -22801454.10744 -17767344.74444  21268859.8554   21268860.8054
   1178471.12544    918289.07444  23058525.9654   23058528.8494
  -8202954.64644  -6391916.51544  23740328.0264   23740332.8584
  -5934509.00344  -4624270.68644  24137064.7624   24137066.2924
 -24443400.17444 -19046780.91044  20534391.3004   20534392.4354
 -15308864.50444 -11928962.43244  22465005.0474   22465006.0924
 96  7 10  2 38 30.0000000  0  6G21G31G 3G 1G23G25
 -22768995.16944 -17742052.07044  21275036.6504   21275037.7104
   1234222.78444    961731.89044  23069135.1754   23069138.1254
  -8113734.18744  -6322394.19744  23757306.2244   23757309.6504
 -24406064.78744 -19017688.40044  20541495.9894   20541497.1064
  -5869005.01744  -4573228.63144  24149529.8734   24149531.1544
 -15396839.50644 -11997514.31344  22448263.8064   22448265.4594
 96  7 10  2 39  0.0000000  0  6G21G31G 3G 1G23G25
 -22736261.18844 -17716545.07244  21281265.6644   21281266.8554
   1290340.81744   1005460.19544  23079814.0524   23079817.3104
  -8024421.09644  -6252799.67744  23774301.9084   23774306.1044
 -24368398.42244 -18988337.98044  20548663.6734   20548664.7764
  -5803363.16544  -4522079.15044  24162021.2664   24162023.4534
 -15484543.61044 -12065855.10444  22431574.1274   22431576.0574
 96  7 10  2 39 30.0000000  0  7G21G31G15G 3G 1G23G25
 -22703259.74244 -17690829.66644  21287545.6964   21287546.7794
   1346820.46744   1049470.28344  23090561.4554   23090564.6804
        -0.68154        -0.30854  22927696.8944   22927698.5514
  -7935022.94744  -6183138.87544  23791313.7104   23791317.4224
 -24330413.39444 -18958739.25344  20555891.9884   20555893.0334
  -5737569.32844  -4470811.23344  24174540.8524   24174541.1964
 -15571981.96544 -12133988.83144  22414935.0664   22414936.6474
 96  7 10  2 40  0.0000000  0  7G21G31G15G 3G 1G23G25
 -22670004.94044 -17664916.84244  21293874.0134   21293875.0864
   1403678.95144   1093775.55844  23101381.4624   23101384.5234
    -97160.76244    -75709.45444  22909207.7714   22909209.6254
  -7845537.35944  -6113409.94444  23808342.3034   23808345.2034
 -24292076.43344 -18928866.29044  20563187.2654   20563188.2224
  -5671614.72644  -4419418.04744  24187091.7844   24187095.3334
 -15659157.39544 -12201917.67444  22398346.0424   22398347.7454
 96  7 10  2 40 30.0000000  0  7G21G31G15G 3G 1G23G25
 -22636566.84644 -17638861.19544  21300237.0864   21300238.2114
   1460865.07844   1138336.13844  23112263.7364   23112266.7124
   -194119.87244   -151261.99944  22890757.0374   22890759.5404
  -7756017.48944  -6043654.29844  23825377.6474   23825380.9934
 -24253437.37044 -18898757.91844  20570539.9804   20570541.1124
  -5605542.87944  -4367933.47244  24199664.5414   24199665.8964
 -15746137.85544 -12269694.59244  22381794.3174   22381795.3804
 96  7 10  2 41  0.0000000  0  7G31G15G 3G21G 1G23G25
   1518373.20844   1183147.62644  23123207.3694   23123210.4984
   -290884.87444   -226663.28744  22872343.0654   22872345.7204
  -7666463.06844  -5973871.73344  23842419.1634   23842424.4064
 -22602954.08844 -17612669.44044  21306633.3474   21306634.3024
 -24214489.56644 -18868408.96944  20577951.4824   20577952.5624
  -5539369.52944  -4316369.78044  24212257.0824   24212259.9014
 -15832914.78844 -12337312.91444  22365281.2044   22365282.1784
 96  7 10  2 41 30.0000000  0  7G31G15G 3G21G 1G23G25
   1576245.24644   1228242.67844  23134220.4244   23134223.5704
   -387406.70244   -301875.10044  22853975.6894   22853978.8514
  -7576820.53044  -5904020.48044  23859477.2694   23859483.8194
 -22569118.82144 -17586304.30144  21313071.8304   21313073.1424
 -24175173.49344 -18837773.06244  20585433.1134   20585434.2534
  -5473075.99544  -4264712.55044  24224872.2544   24224873.4684
 -15919430.97944 -12404728.06344  22348817.7044   22348818.9474
 96  7 10  2 42  0.0000000  0  7G31G15G 3G21G 1G23G25
   1634428.28244   1273580.06544  23145292.3134   23145295.5304
   -483724.67244   -376928.06544  22835646.8974   22835649.7504
  -7487144.91244  -5834143.44344  23876541.8574   23876546.7024
 -22535084.77644 -17559784.27444  21319548.3054   21319549.7524
 -24135520.17844 -18806874.36444  20592978.9054   20592980.0024
  -5406713.51244  -4213001.49644  24237500.1814   24237502.5394
 -16005723.71944 -12471969.09744  22332396.6824   22332397.7724
 96  7 10  2 42 30.0000000  0  7G31G15G 3G21G 1G23G25
   1692927.11644   1319163.52244  23156424.0334   23156427.7624
   -579821.74444   -451808.89744  22817360.2124   22817363.0254
  -7397431.57944  -5764237.03444  23893613.9864   23893619.5814
 -22500822.87644 -17533086.69944  21326068.1724   21326069.3134
 -24095525.97144 -18775710.03244  20600589.5384   20600590.5994
  -5340279.34544  -4161234.62244  24250142.7534   24250146.4394
 -16091761.21844 -12539011.24144  22316024.5024   22316025.3504
 96  7 10  2 43  0.0000000  0  7G31G15G 3G21G 1G23G25
   1751746.75544   1364996.97944  23167616.8584   23167620.0644
   -675691.82444   -526512.85544  22799116.7724   22799119.5764
  -7307688.44344  -5694307.38344  23910691.8024   23910696.0754
 -22466319.26844 -17506200.77744  21332634.0084   21332635.1914
 -24055194.22544 -18744282.68244  20608264.3754   20608265.3814
  -5273785.71044  -4109421.41044  24262795.9044   24262797.4454
 -16177527.15844 -12605841.77844  22299703.7154   22299704.7154
 96  7 10  2 43 30.0000000  0  7G31G15G 3G21G 1G23G25
   1810894.33744   1411085.95644  23178872.3164   23178875.4994
   -771323.69744   -601031.19844  22780918.6914   22780921.7634
  -7217923.28744  -5624360.55944  23927773.8134   23927778.3864
 -22431559.76344 -17479115.45244  21339248.6054   21339249.7394
 -24014529.26444 -18712595.68644  20616002.6814   20616003.6454
  -5207219.13744  -4057551.35544  24275463.9614   24275467.1354
 -16263024.19044 -12672462.78044  22283433.8084   22283434.4054
 96  7 10  2 44  0.0000000  0  7G31G15G 3G21G 1G23G25
   1870392.66544   1457448.24344  23190194.5664   23190197.8834
   -866694.01144   -675345.72744  22762770.3344   22762773.4934
  -7128121.96544  -5554385.57544  23944862.7374   23944866.6364
 -22396535.69144 -17451823.96944  21345913.4234   21345914.4524
 -23973524.72444 -18680644.08144  20623805.5974   20623806.6104
  -5140541.75044  -4005594.94844  24288151.2514   24288154.0304
 -16348235.09044 -12738860.82644  22267218.4294   22267219.9124
 96  7 10  2 44 30.0000000  0  7G31G15G 3G21G 1G23G25
   1930233.85544   1504077.68944  23201581.9704   23201585.4074
   -961821.02144   -749470.66444  22744668.2494   22744671.2364
  -7038291.80444  -5484388.12144  23961956.4844   23961961.4234
 -22361277.61944 -17424350.14244  21352622.7644   21352623.7624
 -23932213.68244 -18648453.63944  20631666.8404   20631667.8704
  -5073766.26344  -3953562.10044  24300858.6094   24300862.2534
 -16433180.76344 -12805052.20244  22251053.9654   22251055.2994
 96  7 10  2 45  0.0000000  0  7G31G15G 3G21G 1G23G25
   1990422.67144   1550978.01944  23213035.7694   23213037.6494
  -1056687.73144   -823392.77044  22726615.6224   22726618.6524
  -6948411.25344  -5414351.42044  23979060.1634   23979065.1984
 -22325777.47744 -17396687.69244  21359378.1844   21359379.4424
 -23890576.77244 -18616009.27344  20639589.9184   20639590.9734
  -5006862.14444  -3901429.07644  24313589.4494   24313589.9394
 -16517860.10144 -12871036.04944  22234939.9984   22234941.2814
 96  7 10  2 45 30.0000000  0  7G31G15G 3G21G 1G23G25
   2050944.13444   1598137.55344  23224552.7324   23224555.9964
  -1151284.17244   -897104.27144  22708614.4934   22708617.2094
  -6858463.52644  -5344262.33044  23996176.8354   23996180.3144
 -22290035.60344 -17368836.87844  21366179.6244   21366180.6604
 -23848596.73944 -18583297.53844  20647578.4384   20647579.3224
  -4939819.80444  -3849188.30444  24326347.6214   24326352.2364
 -16602257.04644 -12936799.84944  22218879.4214   22218880.6984
 96  7 10  2 46  0.0000000  0  7G31G15G 3G21G 1G23G25
   2111775.36444   1645538.45544  23236128.4534   23236131.5774
  -1245622.09044   -970614.32244  22690662.4514   22690665.5094
  -6768459.53944  -5274129.42744  24013304.3134   24013307.5094
 -22254077.43644 -17340817.52244  21373022.1794   21373023.3324
 -23806284.12844 -18550326.66144  20655630.3244   20655631.4684
  -4872659.32844  -3796855.49644  24339127.7894   24339128.4944
 -16686369.20044 -13002341.74044  22202873.4784   22202874.9584
 96  7 10  2 46 30.0000000  0  7G31G15G 3G21G 1G23G25
   2172910.06444   1693175.83244  23247762.3554   23247765.4974
  -1339704.44444  -1043925.21644  22672759.1654   22672761.9254
  -6678417.77444  -5203967.07744  24030439.0094   24030444.0084
 -22217907.94244 -17312633.49244  21379904.9404   21379906.1784
 -23763636.71544 -18517094.89544  20663745.8134   20663746.8684
  -4805393.44944  -3744440.53744  24351927.8154   24351932.0084
 -16770194.71244 -13067660.27044  22186922.4264   22186923.7834
 96  7 10  2 47  0.0000000  0  7G31G15G 3G21G 1G23G25
   2234359.60744   1741058.53844  23259455.5664   23259459.0874
  -1433509.70844  -1117020.19544  22654908.5014   22654911.6404
  -6588336.95144  -5133774.28944  24047580.7264   24047585.6424
 -22181504.29544 -17284267.00344  21386832.5124   21386833.5884
 -23720639.02344 -18483590.18444  20671927.9694   20671929.1184
  -4738012.39744  -3691935.85744  24364750.0404   24364751.8734
 -16853698.59644 -13132728.17944  22171032.2434   22171033.3604
 96  7 10  2 47 30.0000000  0  8G31G15G 3G14G21G 1G23G25
   2296137.84644   1789197.37644  23271211.0774   23271214.4964
  -1527033.66844  -1189895.97044  22637111.7074   22637114.3984
  -6498230.64144  -5063561.65044  24064727.1044   24064730.2134
         0.20054         1.12554  25377527.8584   25377533.0984
 -22144863.56344 -17255715.77744  21393805.0854   21393805.9654
 -23677312.62844 -18449829.34444  20680172.6174   20680173.7114
  -4670519.15244  -3639343.71544  24377593.8374   24377596.8564
 -16936866.63944 -13197534.39544  22155205.6414   22155206.4014
 96  7 10  2 48  0.0000000  0  8G31G15G 3G14G21G 1G23G25
   2358204.89544   1837561.26444  23283022.1104   23283025.9024
  -1620320.04944  -1262586.61444  22619359.8734   22619362.3294
  -6408169.10044  -4993383.91144  24081865.5834   24081868.8764
    -78273.44144    -60991.23844  25362632.5874   25362635.7924
 -22108019.48244 -17227006.09644  21400816.3724   21400817.6164
 -23633718.84744 -18415860.15844  20688468.2734   20688469.4714
  -4602949.18644  -3586691.82844  24390451.9424   24390454.1434
 -17019750.87444 -13262119.46444  22139433.1564   22139434.5314
 96  7 10  2 48 30.0000000  0  8G31G15G 3G14G21G 1G23G25
   2420576.30544   1886162.32044  23294891.3004   23294894.5244
  -1713343.03144  -1335072.01344  22601658.1804   22601660.9894
  -6318138.64844  -4923230.39444  24098997.6744   24099003.0934
   -156571.77744   -122002.85244  25347733.0934   25347737.9664
 -22070931.61144 -17198106.44744  21407873.8174   21407874.8174
 -23589838.11144 -18381667.37244  20696818.5424   20696819.6204
  -4535271.72744  -3533956.15244  24403330.6454   24403331.5674
 -17102331.75044 -13326468.15844  22123718.6364   22123720.0294
 96  7 10  2 49  0.0000000  0  8G31G15G 3G14G21G 1G23G25
   2483251.88044   1935000.37844  23306818.2274   23306821.3154
  -1806086.18544  -1407339.35744  22584009.7674   22584012.1404
  -6228121.13344  -4853086.93144  24116127.6504   24116131.1494
   -234880.96744   -183022.91144  25332831.3864   25332834.3134
 -22033576.99344 -17168998.94944  21414982.1254   21414983.2574
 -23545660.79544 -18347243.48544  20705225.3024   20705226.2884
  -4467476.36644  -3481128.63844  24416231.4814   24416234.7404
 -17184605.41544 -13390577.46344  22108062.3994   22108063.4114
 96  7 10  2 49 30.0000000  0  8G31G15G 3G14G21G 1G23G25
   2546211.80644   1984060.01544  23318798.7934   23318802.6514
  -1898545.19344  -1479385.29044  22566415.4324   22566417.4704
  -6138113.36544  -4782951.07744  24133255.5674   24133260.9284
   -313214.47944   -244061.91244  25317925.1114   25317930.8414
 -21995960.53844 -17139687.41844  21422140.3374   21422141.5274
 -23501179.80944 -18312582.97544  20713689.7674   20713690.7484
  -4399546.77344  -3428196.51844  24429158.3804   24429160.3444
 -17266594.98344 -13454465.39644  22092460.1144   22092461.4384
 96  7 10  2 50  0.0000000  0  8G31G15G 3G14G21G 1G23G25
   2609442.03544   2033330.27744  23330831.0334   23330834.8974
  -1990723.84244  -1551212.76344  22548874.3994   22548876.5594
  -6048112.81944  -4712820.84244  24150381.9374   24150387.9754
   -391592.87244   -305135.93044  25303009.9174   25303013.9344
 -21958095.89444 -17110182.49344  21429345.6624   21429346.8554
 -23456393.35544 -18277684.43544  20722212.3004   20722213.2794
  -4331485.00044  -3375161.40244  24442110.3684   24442109.8124
 -17348323.20344 -13518149.68044  22076907.7404   22076908.8694
 96  7 10  2 50 30.0000000  0  8G31G15G 3G14G21G 1G23G25
   2672943.52544   2082811.90744  23342915.5354   23342917.9204
  -2082623.97244  -1622823.21144  22531386.4584   22531388.8454
  -5958105.69944  -4642685.50144  24167509.5074   24167514.4824
   -470029.37044   -366255.20644  25288083.4464   25288085.8544
 -21920002.86044 -17080499.60044  21436594.5594   21436595.8224
 -23411304.98044 -18242550.63644  20730792.3054   20730793.5134
  -4263308.30944  -3322036.74744  24455083.9234   24455086.7664
 -17429795.45844 -13581634.51444  22061404.2624   22061405.3074
 96  7 10  2 51  0.0000000  0  8G31G15G 3G14G21G 1G23G25
   2736710.11644   2132500.10744  23355050.2234   23355053.7124
  -2174252.10944  -1694221.71544  22513950.2594   22513952.5374
  -5868100.19444  -4572551.43644  24184636.7264   24184640.7724
   -548536.32244   -427429.37644  25273144.4254   25273147.5154
 -21881707.13644 -17050658.77044  21443882.0554   21443883.4094
 -23365928.85644 -18207192.61944  20739427.0254   20739428.1274
  -4195024.93344  -3268828.94444  24468077.8054   24468079.0524
 -17511016.51744 -13644923.60844  22045948.3524   22045949.3254
 96  7 10  2 51 30.0000000  0  8G31G15G 3G14G21G 1G23G25
   2800739.71144   2182393.23444  23367234.4074   23367237.4674
  -2265612.99344  -1765411.97244  22496564.7624   22496567.3444
  -5778104.00644  -4502424.61144  24201762.8434   24201766.9684
   -627125.41544   -488667.55644  25258189.3034   25258194.8164
 -21843212.85244 -17020663.22244  21451207.2984   21451208.3784
 -23320278.72044 -18171621.08944  20748113.9914   20748115.0434
  -4126628.59444  -3215533.10044  24481093.3384   24481095.4944
 -17591971.65844 -13708005.49744  22030542.9404   22030543.9984
 96  7 10  2 52  0.0000000  0  8G31G15G 3G14G21G 1G23G25
   2865058.36044   2232511.60744  23379473.5854   23379476.7994
  -2356692.93444  -1836383.30944  22479232.8404   22479235.1864
  -5688109.86844  -4432299.34844  24218888.0894   24218894.7694
   -705791.00044   -549965.32944  25243219.6474   25243224.8274
 -21804494.86944 -16990493.36344  21458575.1294   21458576.2234
 -23274344.00244 -18135827.80144  20756855.1184   20756856.0984
  -4058124.96644  -3162153.67544  24494129.3344   24494130.5594
 -17672617.90144 -13770846.68744  22015196.4124   22015197.5724
 96  7 10  2 52 30.0000000  0  8G31G15G 3G14G21G 1G23G25
   2929684.41844   2282869.50844  23391771.4974   23391775.4664
  -2447458.07344  -1907109.36044  22461960.8104   22461962.6864
  -5598105.32444  -4362166.00844  24236015.6504   24236020.7414
   -784500.31644                  25228241.1314
 -21765507.91544 -16960113.91844  21465993.9354   21465994.9204
 -23228082.27644 -18099779.69844  20765658.4994   20765659.5124
  -3989488.14344  -3108670.44944  24507190.6194   24507190.5564
 -17752892.07144 -13833397.94644  21999920.8364   21999921.7524
 96  7 10  2 53  0.0000000  0  8G31G15G 3G14G21G 1G23G25
   2994545.70944   2333410.72644  23404114.1694   23404117.4584
  -2537970.27344  -1977638.31744  22444736.6364   22444739.0804
  -5508167.20644  -4292084.42944  24253130.4964   24253136.8494
   -863314.43644                  25213243.6244
 -21726302.90544 -16929564.55844  21473454.4204   21473455.4724
 -23181565.08544 -18063532.53244  20774510.3584   20774511.4144
  -3920774.57944  -3055127.45244  24520265.9864   24520266.2884
 -17832849.12944 -13895702.10644  21984705.5374   21984706.4304
 96  7 10  2 53 30.0000000  0  8G31G15G 3G14G21G 1G23G25
   3059650.81344   2384141.91644  23416503.2934   23416506.8694
  -2628212.03644  -2047956.54544  22427564.2874   22427566.0834
  -5418283.66844  -4222045.39944  24270234.9404   24270241.7174
   -942216.58544   -734191.90244  25198229.2564   25198228.2764
 -21686860.51044 -16898830.21944  21480960.1594   21480961.1854
 -23134778.74544 -18027075.64144  20783413.4884   20783414.5384
  -3851973.53744  -3001516.23644  24533357.8884   24533361.3144
 -17912477.24544 -13957749.94144  21969552.7004   21969553.5734
 96  7 10  2 54  0.0000000  0  8G31G15G 3G14G21G 1G23G25
   3125056.88744   2435107.63744  23428950.0224   23428953.0944
  -2718123.31344  -2118017.25944  22410454.6174   22410456.8164
  -5328391.64444  -4151999.71144  24287340.7884   24287344.8274
  -1021137.49744   -795681.82044  25183211.0734   25183211.9074
 -21647133.16644 -16867873.84044  21488520.0374   21488521.2104
 -23087662.00744 -17990361.29244  20792379.5284   20792380.5034
  -3783049.44844  -2947809.18444  24546474.1344   24546477.1824
 -17991722.82444 -14019499.70144  21954472.7324   21954473.7464
 96  7 10  2 54 30.0000000  0  8G31G15G 3G14G21G 1G23G25
   3190733.29344   2486284.00544  23441447.9214   23441451.7514
  -2807724.89544  -2187836.65544  22393403.9214   22393406.2334
  -5238510.18844  -4081962.28344  24304444.5374   24304447.7634
  -1100086.07544   -857205.07944  25168188.0644   25168188.9764
 -21607150.45944 -16836718.48344  21496128.3974   21496129.4164
 -23040247.15944 -17953414.65044  20801402.3194   20801403.2194
  -3714021.25844  -2894020.98644  24559609.9714   24559613.0224
 -18070623.20044 -14080980.47044  21939458.5604   21939459.5104
 96  7 10  2 55  0.0000000  0  8G31G15G 3G14G21G 1G23G25
   3256679.41544   2537670.52844  23453997.1834   23454000.8054
  -2897012.25044  -2257411.21044  22376413.1764   22376415.5004
  -5148627.82644  -4011924.14644  24321548.7414   24321555.1994
  -1179062.95844   -918751.27244  25153158.7174   25153157.0934
 -21566924.74644 -16805373.76844  21503783.0454   21503784.0854
 -22992549.78644 -17916247.85744  20810478.8144   20810479.6834
  -3644891.44044  -2840153.61244  24572765.0854   24572769.7044
 -18149195.36544 -14142205.48844  21924506.9204   21924507.8934
 96  7 10  2 55 30.0000000  0  8G31G15G 3G14G21G 1G23G25
   3322892.21044   2589264.87044  23466597.1454   23466600.3714
  -2985977.69144  -2326734.90944  22359483.6934   22359485.4394
  -5058741.37944  -3941882.80344  24338653.3404   24338657.3754
  -1258063.24744                  25138125.3464
 -21526457.79044 -16773841.06044  21511483.6584   21511484.7404
 -22944556.30944 -17878850.32244  20819611.5904   20819612.4104
  -3575665.29044  -2786211.16544  24585937.8914   24585940.1904
 -18227442.18344 -14203176.97944  21909616.7944   21909617.5844
 96  7 10  2 56  0.0000000  0  8G31G15G 3G14G21G 1G23G25
   3389359.13544   2641057.21244  23479245.5514   23479248.6374
  -3074632.41944  -2395816.51444  22342613.3224   22342615.5724
  -4968880.15744  -3871861.13844  24355753.7584   24355757.9164
  -1337100.06844                  25123085.2834
 -21485759.61644 -16742128.20744  21519228.1984   21519229.2764
 -22896284.00744 -17841235.53844  20828797.4704   20828798.3884
  -3506360.30144  -2732207.31344  24599126.4164   24599127.2824
 -18305374.93344 -14263903.75644  21894786.4144   21894787.4624
 96  7 10  2 56 30.0000000  0  8G31G15G 3G14G21G 1G23G25
   3456070.04944   2693039.67444  23491939.8524   23491942.4384
  -3162975.55544  -2464655.33644  22325802.0504   22325804.7444
  -4879071.43944  -3801880.38944  24372844.2944   24372848.3274
  -1416182.51644  -1103519.29844  25108036.1154
 -21444837.34644 -16710240.73344  21527015.5654   21527016.5204
 -22847737.11244 -17803406.79344  20838035.6914   20838036.7294
  -3436956.34044  -2678126.28544  24612333.5404   24612336.3604
 -18382997.61144 -14324388.92344  21880015.3144   21880016.3584
 96  7 10  2 57  0.0000000  0  8G31G15G 3G14G21G 1G23G25
   3523003.93444   2745195.88344  23504676.6474   23504679.9314
  -3251021.88344  -2533262.87044  22309047.1924   22309050.0204
  -4789338.47244  -3731958.66544  24389920.0074   24389923.3164
  -1495328.99444  -1165191.76944  25092974.9364   25092977.3544
 -21403707.59344 -16678191.57744  21534842.2894   21534843.3174
 -22798930.52444 -17765375.67844  20847323.2164   20847324.3224
  -3367465.23544  -2623977.41044  24625557.7584   24625557.4544
 -18460323.30744 -14384642.66644  21865300.7564   21865301.8054
 96  7 10  2 57 30.0000000  0  8G31G15G 3G14G21G 1G23G25
   3590179.76244   2797540.63544  23517459.8614   23517463.8544
  -3338760.82044  -2601630.87744  22292350.9054   22292353.6714
  -4699687.13044  -3662100.54344  24406980.2254   24406982.7954
  -1574532.01644  -1226908.36944  25077902.6604   25077905.8024
 -21362351.42144 -16645965.98644  21542711.9754   21542712.9854
 -22749853.95444 -17727134.18644  20856662.1684   20856663.2744
  -3297863.15344  -2569741.94244  24638802.1874   24638805.3764
 -18537342.20044 -14444657.34044  21850644.5164   21850645.3954
 96  7 10  2 58  0.0000000  0  8G31G15G 3G14G21G 1G23G25
   3657694.85744   2850149.75644  23530307.8224   23530312.0734
  -3426094.59244  -2669683.17744  22275731.8334   22275734.4124
  -4610026.35644  -3592235.06344  24424042.1914   24424048.0274
  -1653698.40144  -1288596.43044  25062838.0314   25062842.5144
 -21320670.09044 -16613487.02744  21550643.5974   21550644.6494
 -22700414.42344 -17688609.86444  20866070.1564   20866071.0014
  -3228037.76944  -2515332.72144  24652089.5154
 -18613951.54244 -14504352.88344  21836066.4114   21836067.0954
 96  7 10  2 58 30.0000000  0  8G31G15G 3G14G21G 1G23G25
   3725464.30844   2902957.05744  23543204.1934   23543206.4974
  -3513097.40044  -2737477.58344  22259175.8384   22259178.3804
  -4520416.43744  -3522409.21344  24441094.3544   24441099.4944
  -1732904.61344  -1350315.49444  25047765.9274   25047771.0864
 -21278734.78044 -16580810.15544  21558623.6604   21558624.5944
 -22650688.08344 -17649862.05344  20875532.8774   20875533.5994
  -3158061.62744  -2460805.83844  24665405.6854
 -18690224.15644 -14563786.03844  21821552.2854   21821552.8504
 96  7 10  2 59  0.0000000  0  8G31G15G 3G14G21G 1G23G25
   3793471.55544   2955949.64844  23556145.6194   23556149.6014
  -3599782.58444  -2805024.50044  22242680.2594   22242682.7974
  -4430862.01844  -3452626.59844  24458136.1214   24458140.2814
  -1812167.34544  -1412078.65544  25032682.4904   25032686.8264
 -21236547.37144 -16547936.84644  21566651.7494   21566652.9014
 -22600700.20344 -17610910.45444  20885045.1894   20885046.1994
  -3087965.31744  -2406185.38244  24678744.5044   24678749.6984
 -18766161.56044 -14622958.00144  21807101.5544   21807102.1894
 96  7 10  2 59 30.0000000  0  8G31G15G 3G14G21G 1G23G25
   3861721.17444   3009131.10344  23569132.6804   23569135.5584
  -3686136.57144  -2872313.33344  22226247.9044   22226250.2084
  -4341354.40944  -3382880.47044  24475168.6914   24475172.6404
  -1891479.80444  -1473880.50844  25017589.1784   25017592.1744
 -21194105.81444 -16514865.50444  21574728.0924   21574729.1394
 -22550442.34444 -17571748.47944  20894608.8574   20894609.9134
  -3017744.03044  -2351467.47744  24692107.1384   24692107.6354
 -18841742.75544 -14681852.39544  21792718.9014   21792719.9494
 96  7 10  3  0  0.0000000  0  8G31G15G 3G14G21G 1G23G25
   3930184.41044   3062479.01344  23582161.0944   23582164.3054
  -3772170.42644  -2939352.70344  22209876.2074   22209878.0804
  -4251894.15044  -3313171.23944  24492192.1804   24492195.3614
  -1970854.27044  -1535730.67544  25002484.9694   25002491.7534
 -21151429.07844 -16481610.89644  21582849.1934   21582850.3994
 -22499931.90944 -17532389.69344  20904220.6094   20904221.4874
  -2947430.34644  -2296677.61144  24705486.8564   24705488.2774
 -18916962.27344 -14740464.95844  21778405.0634   21778405.7124
 96  7 10  3  0 30.0000000  0  8G31G15G 3G14G21G 1G23G25
   3998845.74544   3115981.30044  23595227.4054   23595230.7734
  -3857882.98244  -3006141.70444  22193565.7284   22193567.8674
  -4162482.12044  -3243499.64244  24509206.4084   24509209.5904
  -2050291.04944  -1597629.38744  24987368.7984   24987375.0834
 -21108528.88144 -16448182.17344  21591012.7784   21591014.2754
 -22449189.65944 -17492850.27644  20913876.5624   20913877.4294
  -2877034.37944  -2241823.60844  24718882.6324   24718885.6584
 -18991804.31244 -14798783.39144  21764163.1074   21764163.7414
 96  7 10  3  1  0.0000000  0  8G31G15G 3G14G21G 1G23G25
   4067726.57644   3169654.59144  23608334.8314   23608338.6494
  -3943251.83244  -3072662.87544  22177320.5914   22177322.7854
  -4073112.46944  -3173860.98044  24526213.0144   24526221.7024
  -2129769.69244  -1659560.76844  24972244.4094   24972248.1544
 -21065392.09244 -16414569.08944  21599221.5614   21599222.8204
 -22398199.11544 -17453117.37744  20923579.7344   20923580.5434
  -2806533.88944  -2186888.17044  24732298.7714   24732297.4974
 -19066254.48844 -14856796.47644  21749995.6854   21749996.2804
 96  7 10  3  1 30.0000000  0  8G31G15G 3G14G21G 1G23G25
   4136807.75244   3223484.04144  23621480.3074   23621483.7424
  -4028295.00044  -3138930.25344  22161137.1624   22161139.5234
  -3983814.48444  -3104278.20144  24543205.5864   24543214.0254
  -2209302.06744  -1721533.99444  24957109.4924   24957115.3454
 -21022044.54744 -16380791.77644  21607470.3324   21607471.3864
 -22346974.81744 -17413202.33044  20933327.4934   20933328.4094
  -2735942.91844  -2131882.19744  24745731.9434   24745734.4024
 -19140352.14044 -14914534.86044  21735895.4834   21735895.9984
 96  7 10  3  2  0.0000000  0  8G31G15G 3G14G21G 1G23G25
   4206111.38444   3277486.80944  23634668.2304   23634672.8844
  -4112995.46844  -3204930.58444  22145019.1164   22145021.4734
  -3894578.83844  -3034743.97444  24560186.5944   24560190.9484
  -2288873.73144  -1783537.81944  24941967.7944   24941972.2914
 -20978464.09144 -16346832.97644  21615763.5584   21615764.1544
 -22295504.05344 -17373095.23544  20943122.0494   20943122.8654
  -2665239.50544  -2076788.64644  24759186.4924   24759189.5344
 -19214090.01644 -14971992.90744  21721863.6004   21721864.0924
 96  7 10  3  2 30.0000000  0  8G31G15G 3G14G21G 1G23G25
   4275668.70044   3331687.25244  23647905.0714   23647908.3644
  -4197323.30344  -3270640.53944  22128972.1004   22128974.1564
  -3805399.25744  -2965253.48544  24577157.6734   24577164.9624
  -2368447.95744  -1845543.64944  24926825.7374   24926828.8754
 -20934619.59144 -16312668.41844  21624106.8814   21624107.3434
 -22243758.36344 -17332773.90244  20952968.8934   20952969.5854
  -2594390.16344  -2021581.36844  24772669.0044   24772666.9764
 -19287453.63644 -15029159.32044  21707902.7954   21707903.3154
 96  7 10  3  3  0.0000000  0  8G31G15G 3G14G21G 1G23G25
   4345438.82544   3386053.54544  23661181.9284   23661184.6374
  -4281320.31044  -3336092.70944  22112988.0994   22112989.4994
  -3716326.52844  -2895846.19744  24594107.7934   24594114.5444
  -2448080.20944  -1907594.64944  24911672.3954   24911675.4894
 -20890544.80244 -16278324.42744  21632493.8844   21632494.7194
 -22191766.26544 -17292260.57344  20962862.6884   20962863.3264
  -2523453.41444  -1966305.96044  24786167.6244
 -19360500.80144 -15086079.15444  21694002.3894   21694003.3014
 96  7 10  3  3 30.0000000  0  8G31G15G 3G14G21G 1G23G25
   4415407.01244   3440574.14944  23674496.8134   23674499.9894
  -4364978.60644  -3401280.94744  22097068.5414   22097070.2164
  -3627357.52644  -2826519.78244  24611038.2084   24611043.4734
  -2527778.46344  -1969697.18144  24896506.0164   24896511.0914
 -20846230.56844 -16243793.85144  21640926.4744   21640927.2384
 -22139520.57244 -17251549.63744  20972804.7504   20972805.4724
  -2452424.81944  -1910959.00644  24799683.9434   24799687.7184
 -19433216.36944 -15142740.60244  21680165.1354   21680165.6674
 96  7 10  3  4  0.0000000  0  8G31G15G 3G14G21G 1G23G25
   4485625.11244   3495289.48844  23687858.7464   23687861.5164
  -4448223.11744  -3466146.75044  22081227.7004   22081229.0284
  -3538420.84744  -2757218.53144  24627962.3114   24627966.8194
  -2607476.20244  -2031799.27344  24881339.8264   24881342.4144
 -20801592.27944 -16209010.77544  21649421.0324   21649421.6324
 -22086959.23444 -17210592.73844  20982806.8164   20982807.6704
  -2381229.98844  -1855482.52944  24813231.8394
 -19505510.62644 -15199073.75144  21666407.8504   21666408.3694
 96  7 10  3  4 30.0000000  0  8G31G15G 3G14G21G 1G23G25
   4555962.64144   3550097.89244  23701243.3634   23701247.5344
  -4531155.39744  -3530769.25944  22065446.0204   22065448.3694
  -3449620.65444  -2688023.64144  24644860.4574   24644863.6154
  -2687278.08444  -2093982.51144  24866154.2734   24866156.8854
 -20756731.54244 -16174054.35944  21657957.8204   21657958.9024
 -22034191.54144 -17169475.04644  20992848.1594   20992849.0454
  -2309982.60344  -1799965.04044  24826789.5154   24826791.1814
 -19577491.06644 -15255162.37144  21652710.2504   21652711.1684
 96  7 10  3  5  0.0000000  0  8G31G15G 3G14G21G 1G23G25
   4626436.35044   3605012.40844  23714654.1894   23714657.3964
  -4613752.39644  -3595130.51044  22049728.1074   22049730.3074
  -3360922.92244  -2618908.60044  24661739.4664   24661742.9694
  -2767177.63244  -2156241.82444  24850950.0954   24850953.3344
 -20711626.07244 -16138907.24044  21666540.9774   21666542.0174
 -21981201.74744 -17128184.28444  21002931.7104   21002932.7664
  -2238653.75244  -1744384.09744  24840363.2614   24840366.0554
 -19649127.05244 -15310982.58344  21639078.4334   21639079.2354
 96  7 10  3  5 30.0000000  0  7G15G 3G14G21G 1G23G25
  -4695970.91044  -3659196.83344  22034082.3174   22034084.6944
  -3272289.58744  -2549843.73544  24678605.7564   24678611.7434
  -2847114.29044  -2218530.05544  24835738.4624   24835740.5284
 -20666232.14844 -16103535.35544  21675179.1514   21675180.4334
 -21927961.00044 -17086697.97444  21013063.1144   21013064.0824
  -2167179.84844  -1688690.11344  24853964.2074   24853968.4864
 -19720371.56744 -15366497.74844  21625521.1774   21625521.7094
 96  7 10  3  6  0.0000000  0  7G15G 3G14G21G 1G23G25
  -4777782.05144  -3722945.73244  22018514.1234   22018516.3844
  -3183695.29044  -2480809.25944  24695464.9294   24695468.9704
  -2927048.26044  -2280816.18944  24820527.0054   24820531.4984
 -20620533.22644 -16067925.81144  21683875.2494   21683876.7834
 -21874452.44944 -17045002.98844  21023245.4624   21023246.3864
  -2095542.61144  -1632868.86744  24867596.2014   24867596.6464
 -19791195.17944 -15421684.94144  21612043.7594   21612044.4144
 96  7 10  3  6 30.0000000  0  8G29G15G 3G14G21G 1G23G25
        -0.30354         0.38954  25307600.6194   25307609.0584
  -4859203.63644  -3786391.08644  22003020.1984   22003022.4674
  -3095166.81444  -2411826.08544  24712311.3324   24712315.6294
  -3007002.88944  -2343118.40244  24805312.2974   24805315.7324
 -20574573.63744 -16032113.15044  21692621.2164   21692622.2424
 -21820693.41644 -17003112.82244  21033475.3554   21033476.3204
  -2023764.88944  -1576938.16744  24881254.9944   24881255.7764
 -19861605.62544 -15476550.18744  21598645.0144   21598645.6794
 96  7 10  3  7  0.0000000  0  8G29G15G 3G14G21G 1G23G25
    -85865.88744    -66907.73144  25291261.2734   25291266.5634
  -4940273.82544  -3849562.64044  21987593.1584   21987595.3064
  -3006760.65544  -2342938.22844  24729134.4024   24729137.6834
  -3087016.63544  -2405466.68544  24790086.0054   24790090.3894
 -20528394.00944 -15996129.03544  21701408.8624   21701409.9174
 -21766718.91944 -16961054.76444  21043746.4124   21043747.3794
  -1951876.86244  -1520921.50144  24894934.7364   24894937.7744
 -19931629.07244 -15531113.88044  21585320.1864   21585320.7364
 96  7 10  3  7 30.0000000  0  8G29G15G 3G14G21G 1G23G25
   -171655.49244   -133756.59744  25274935.9944   25274939.2934
  -5020986.68544  -3912455.75944  21972233.9774   21972236.1104
  -2918490.69344  -2274156.45944  24745931.5894   24745938.0414
  -3167070.37344  -2467846.03044  24774851.9284
 -20481993.42244 -15959972.74744  21710238.5854   21710239.5424
 -21712516.10944 -16918818.79944  21054060.9054   21054061.9874
  -1879888.49144  -1464826.62744  24908633.9304   24908637.5354
 -20001268.22644 -15585378.12344  21572068.0834   21572068.7494
 96  7 10  3  8  0.0000000  0  8G29G15G 3G14G21G 1G23G25
   -257341.14244   -200524.47544  25258630.4254   25258636.6724
  -5101324.37244  -3975056.54244  21956946.1664   21956948.1374
  -2830343.35744  -2205470.31344  24762705.3844   24762708.4984
  -3247164.21144  -2530255.28144  24759610.0984   24759612.2634
 -20435369.33244 -15923642.29644  21719110.8204   21719111.8054
 -21658065.85944 -16876390.02244  21064422.4554   21064423.4204
  -1807796.34444  -1408650.86544  24922352.2444   24922353.6664
 -20070502.32144 -15639326.73944  21558893.1254   21558893.8164
 96  7 10  3  8 30.0000000  0  8G29G15G 3G14G21G 1G23G25
   -342888.70144   -267184.75844  25242351.2324   25242354.1444
  -5181274.58744  -4037355.40944  21941732.1254   21941734.2584
  -2742318.59344  -2136879.62844  24779455.6554   24779460.6554
  -3327291.60144                  24744362.7164
 -20388499.98844 -15887120.74544  21728029.7804   21728030.8084
 -21603354.67544 -16833757.91644  21074833.6554   21074834.5044
  -1735576.94644  -1352375.97644  24936095.3444   24936097.1544
 -20139331.50744 -15692959.84144  21545795.5234   21545796.0214
 96  7 10  3  9  0.0000000  0  8G29G15G 3G14G21G 1G23G25
   -428284.72944   -333726.91744  25226100.4704   25226106.3394
  -5260831.77044  -4099348.02344  21926592.8154   21926594.9414
  -2654395.54044  -2068368.21444  24796186.8684   24796190.1154
  -3407445.65044  -2655152.35844  24729109.7424
 -20341362.65444 -15850390.36644  21736999.8794   21737000.9604
 -21548384.22444 -16790923.78544  21085294.0764   21085295.0424
  -1663232.17444  -1296003.37044  24949861.7764   24949863.8354
 -20207774.50744 -15746292.01844  21532771.2734   21532771.8624
 96  7 10  3  9 30.0000000  0  8G29G15G 3G14G21G 1G23G25
   -513502.76944   -400130.40544  25209884.1424   25209889.2874
  -5339977.88944  -4161020.33144  21911531.8174   21911534.0874
  -2566540.12644  -1999909.46344  24812905.1344   24812911.5404
  -3487622.66444  -2717627.86344  24713852.6814   24713859.4344
 -20293953.87444 -15813448.47244  21746021.4644   21746022.5394
 -21493153.11144 -16747886.54144  21095804.1904   21095805.2614
  -1590752.71744  -1239525.84544  24963653.7344   24963657.7924
 -20275818.15844 -15799313.01644  21519822.8554   21519823.4054
 96  7 10  3 10  0.0000000  0  8G29G15G 3G14G21G 1G23G25
   -598546.05444   -466397.72544  25193700.6254   25193706.6124
  -5418716.12844  -4222374.82144  21896548.6404   21896550.8554
  -2478752.76144  -1931503.75944  24829610.2754   24829615.1074
  -3567840.69744  -2780135.34344  24698587.7904   24698590.0594
 -20246279.20344 -15776299.38844  21755093.5664   21755094.7634
 -21437686.02644 -16704665.42644  21106359.1984   21106360.1794
  -1518128.51344  -1182935.50644  24977473.4934   24977477.5664
 -20343460.44244 -15852021.26044  21506950.8114   21506951.5584
 96  7 10  3 10 30.0000000  0  8G29G15G 3G14G21G 1G23G25
   -683514.11944   -532606.48044  25177531.4954   25177538.3124
  -5497141.02844  -4283485.15344  21881624.8614   21881626.7934
  -2391129.38844  -1863225.85544  24846284.5094   24846290.9114
  -3648182.53544  -2842739.34244  24683299.4244   24683303.4314
 -20198427.91644 -15739012.67844  21764199.4584   21764200.4664
 -21382088.61144 -16661342.75644  21116939.0694   21116939.7754
  -1445461.75644  -1126312.05544  24991301.8244   24991304.7124
 -20410813.25944 -15904503.95044  21494134.1984   21494134.7644
 96  7 10  3 11  0.0000000  0  8G29G15G 3G14G21G 1G23G25
   -768321.19144   -598689.82644  25161392.7144   25161398.1284
  -5575150.28844  -4344271.61544  21866780.1174   21866782.3374
  -2303578.43044  -1795004.37844  24862944.6984   24862950.6554
  -3728552.27444  -2905365.07144  24668005.3764   24668009.2194
 -20150307.90444 -15701516.57844  21773356.4664   21773357.8274
 -21326266.95544 -16617845.35544  21127561.5284   21127562.3204
  -1372662.81544  -1069585.36344  25005155.0244   25005159.6324
 -20477762.59344 -15956672.23544  21481394.2364   21481394.6544
 96  7 10  3 11 30.0000000  0  8G29G15G 3G14G21G 1G23G25
   -852973.17844   -664652.32044  25145283.6124   25145288.3894
  -5652747.84044  -4404737.26244  21852013.7584   21852015.9684
  -2216140.75344  -1726871.19144  24879583.6274   24879590.1294
  -3808950.32244  -2968012.89144  24652706.1094   24652711.3474
 -20101931.14544 -15663820.41144  21782562.1864   21782563.3254
 -21270226.27144 -16574177.28344  21138225.7314   21138226.5864
  -1299731.71144  -1012757.12944  25019033.4594   25019036.4964
 -20544297.43744 -16008517.53844  21468732.9674   21468733.5164
 96  7 10  3 12  0.0000000  0  8G29G15G 3G14G21G 1G23G25
   -937474.47344   -730497.47644  25129203.5584   25129211.2634
  -5729950.41944  -4464895.13344  21837322.6244   21837324.6494
  -2128857.20244  -1658858.09944  24896193.5484   24896199.2514
  -3889386.80244  -3030690.64844  24637399.2724   24637402.6674
 -20053301.94244 -15625927.53144  21791816.0234   21791817.0064
 -21213979.27844 -16530348.45244  21148929.2204   21148930.1094
  -1226693.71444   -955844.51344  25032932.3394   25032933.5574
 -20610441.49044 -16060058.33144  21456146.0114   21456146.5314
 96  7 10  3 12 30.0000000  0  8G29G15G 3G14G21G 1G23G25
  -1021829.64044   -796228.70244  25113152.1944   25113158.3064
  -5806761.32344  -4524747.80244  21822706.0904   21822708.3504
  -2041745.10544  -1590978.54244  24912770.5134   24912777.8124
  -3969872.03144  -3093406.38444  24622083.4424   24622087.5074
 -20004424.69144 -15587841.36644  21801117.0284   21801118.1864
 -21157520.54344 -16486354.62344  21159672.9164   21159673.8464
  -1153569.99244   -898864.97644  25046847.6164   25046849.7414
 -20676200.74044 -16111299.28244  21443632.5224   21443633.0794
 96  7 10  3 13  0.0000000  0  8G29G15G 3G14G21G 1G23G25
  -1106037.39944   -861845.07344  25097128.1624   25097130.1604
  -5883163.18844  -4584281.72944  21808167.3064   21808169.2144
  -1954794.54544  -1523224.93044  24929316.7934   24929324.0874
  -4050412.20144  -3156164.91344  24606757.1474   24606761.4914
 -19955285.22844 -15549550.88344  21810468.0654   21810469.0474
 -21100828.64844 -16442179.11344  21170461.0954   21170461.9444
  -1080340.56544   -841803.09944  25060782.4294   25060784.4934
 -20741532.45444 -16162207.08544  21431200.2244   21431200.8944
 96  7 10  3 13 30.0000000  0  8G29G15G 3G14G21G 1G23G25
  -1190090.11144   -927340.55544  25081132.9784   25081136.2204
  -5959149.04044  -4643491.48444  21793707.7794   21793709.6824
  -1867987.19944  -1455582.89744  24945835.5324   24945839.3144
  -4130998.60544  -3218959.47844  24591422.3084   24591425.4964
 -19905872.19744 -15511047.23244  21819870.9344   21819872.0864
 -21043892.69544 -16397813.42944  21181295.7294   21181296.4594
  -1007003.12144   -784657.07744  25074737.9734   25074738.0954
 -20806430.34444 -16212776.84344  21418850.5304   21418851.0444
 96  7 10  3 14  0.0000000  0  8G29G15G 3G14G21G 1G23G25
  -1273986.83544   -992714.51744  25065167.5024   25065170.6584
  -6034705.75644  -4702366.83144  21779329.7164   21779332.0074
  -1781292.73344  -1388028.85044  24962332.8794   24962336.7574
  -4211624.72444  -3281784.97444  24576079.5564   24576082.8994
 -19856167.36544 -15472316.20544  21829329.4004   21829330.3914
 -20986706.99244 -16353253.13344  21192177.7584   21192178.4944
   -933556.58944   -727425.97244  25088714.5124   25088715.1924
 -20870886.23244 -16263002.18644  21406585.0424   21406585.5534
 96  7 10  3 14 30.0000000  0  8G29G15G 3G14G21G 1G23G25
  -1357790.84244  -1058016.18644  25049219.8464   25049224.8554
  -6109861.75444  -4760929.91944  21765027.9604   21765030.2494
  -1694731.64044  -1320578.68944  24978804.8964   24978811.3354
  -4292307.20844  -3344654.40344  24560725.9984   24560730.4874
 -19806203.96344 -15433383.68944  21838837.0304   21838838.0384
 -20929305.65844 -16308524.81644  21203100.7044   21203101.6264
   -860023.76844   -670127.68744  25102707.4304   25102708.6044
 -20934908.68444 -16312889.78244  21394402.1154   21394402.5064
 96  7 10  3 15  0.0000000  0  8G29G15G 3G14G21G 1G23G25
  -1441511.77944  -1123253.08644  25033287.8944   25033293.6844
  -6184618.91844  -4819182.21644  21750802.1104   21750804.2814
  -1608298.56944  -1253228.34044  24995253.2314   24995259.4824
  -4373035.71244  -3407559.63144  24545363.9594   24545367.0534
 -19755980.15944 -15394248.25844  21848394.4454   21848395.8404
 -20871703.34444 -16263639.89544  21214062.0574   21214062.9454
   -786398.77044   -612757.55844  25116717.3624   25116720.8704
 -20998492.46444 -16362435.55644  21382302.4694   21382302.8574
 96  7 10  3 15 30.0000000  0  8G29G15G 3G14G21G 1G23G25
  -1525079.90044  -1188371.00144  25017385.5984   25017389.8034
  -6258917.69544  -4877077.32144  21736663.4234   21736665.3334
  -1521937.07644  -1185933.73444  25011687.4164   25011692.6634
  -4453733.10744  -3470440.64644  24530007.8814   24530012.7434
 -19705442.32544 -15354868.13444  21858011.4774   21858012.7904
 -20813859.97944 -16218567.13544  21225069.3424   21225069.9184
   -712619.31244   -555267.07844  25130757.0694   25130757.1024
 -21061599.91744 -16411610.16244  21370293.3934   21370293.7544
 96  7 10  3 16  0.0000000  0  8G29G15G 3G14G21G 1G23G25
  -1608534.36944  -1253400.24644  25001504.9694   25001510.8564
  -6332788.23044  -4934638.72744  21722606.2564   21722608.4194
  -1435693.77644  -1118731.24044  25028098.9774   25028103.8584
  -4534437.68544  -3533327.27044  24514650.4194   24514653.9584
 -19654628.54444 -15315272.98844  21867681.1274   21867682.1684
 -20755824.88544 -16173344.97544  21236113.0364   21236113.5964
   -638712.54244   -497677.38044  25144821.2174   25144823.1934
 -21124266.00944 -16460440.85144  21358368.4114   21358368.7334
 96  7 10  3 16 30.0000000  0  8G29G15G 3G14G21G 1G23G25
  -1691857.65544  -1318327.27244  24985649.0264   24985655.1114
  -6406220.08744  -4991858.30644  21708632.6594   21708634.8384
  -1349573.01644  -1051624.25844  25044487.0504
  -4615152.04744  -3596221.51544  24499290.7114   24499292.8394
 -19603547.52044 -15275469.60244  21877401.5174   21877402.1114
 -20697596.31444 -16127972.05644  21247193.6014   21247194.1934
   -564661.82644   -439975.56544  25158912.9134   25158914.8634
 -21186484.68144 -16508922.89744  21346528.5024   21346528.8124
 96  7 10  3 17  0.0000000  0  8G29G15G 3G14G21G 1G23G25
  -1775017.72444  -1383127.14844  24969823.7894   24969828.6184
  -6479213.57544  -5048736.29944  21694742.3834   21694744.4174
  -1263598.34644   -984631.05044  25060847.3674   25060852.5184
  -4695904.02544  -3659145.09944  24483923.5884   24483927.0204
 -19552216.48944 -15235471.41144  21887169.4924   21887170.6494
 -20639185.57944 -16082457.19544  21258308.8494   21258309.6544
   -490472.05644   -382165.37944  25173030.7754   25173031.2724
 -21248278.82744 -16557074.15144  21334769.4494   21334769.9434
 96  7 10  3 17 30.0000000  0  8G29G15G 3G14G21G 1G23G25
  -1858011.14244  -1447797.15644  24954030.6054   24954037.3134
  -6551777.83944  -5105279.83044  21680933.8904   21680935.8564
  -1177795.41544   -917771.74544  25077175.1734   25077179.3794
  -4776719.57844  -3722118.20044  24468544.9964   24468548.6474
 -19500659.55744 -15195297.18844  21896980.5844   21896981.4154
 -20580604.70944 -16036809.75944  21269456.3714   21269457.1414
   -416160.13944   -324260.00244  25187172.0284   25187173.1814
 -21309666.08144 -16604908.34344  21323087.7634   21323088.2244
 96  7 10  3 18  0.0000000  0  8G29G15G 3G14G21G 1G23G25
  -1940834.63644  -1512334.80544  24938269.9424   24938275.2344
  -6623909.88144  -5161486.56244  21667207.5234   21667209.6674
  -1092170.55444   -851051.13444  25093469.2884   25093473.7074
  -4857609.99944  -3785149.65944  24453152.4484   24453156.1074
 -19448869.01944 -15154940.93344  21906835.8784   21906836.9534
 -20521832.74644 -15991013.41644  21280640.2944   21280641.0734
   -341734.63444   -266266.13144  25201334.4824   25201337.2834
 -21370634.65344 -16652416.28744  21311485.8754   21311486.3684
 96  7 10  3 18 30.0000000  0  8G29G15G 3G14G21G 1G23G25
  -2023468.75644  -1576724.85544  24922544.8744   24922549.1194
  -6695603.29444  -5217351.51144  21653564.6524   21653566.9624
  -1006712.77544   -784460.70544  25109731.7294   25109737.8084
  -4938560.25944  -3848227.77244  24437748.0374   24437749.1504
 -19396843.88944 -15114401.88044  21916735.8954   21916736.9754
 -20462852.77544 -15945054.98844  21291863.7254   21291864.4244
   -267188.01844   -208177.89944  25215520.5614   25215524.0314
 -21431178.97444 -16699593.64844  21299964.6504   21299965.2274
 96  7 10  3 19  0.0000000  0  8G29G15G 3G14G21G 1G23G25
  -2105911.72744  -1640965.98244  24906856.1564   24906863.4904
  -6766852.17244  -5272870.07144  21640006.4614   21640008.5504
   -921410.92744   -717991.84544  25125964.1334   25125969.6584
  -5019553.70644  -3911339.51044  24422335.2794   24422338.1504
 -19344570.70644 -15073669.54144  21926683.1014   21926683.9674
 -20403656.80344 -15898928.25144  21303128.3634   21303129.0954
   -192518.74244   -149994.05644  25229729.8094   25229729.7264
 -21491291.58344 -16746434.60744  21288525.6314   21288526.1284
 96  7 10  3 19 30.0000000  0  8G29G15G 3G14G21G 1G23G25
  -2188199.54644  -1705086.22444  24891197.2424   24891202.7344
  -6837668.33944  -5328051.45444  21626530.5474   21626532.3264
   -836260.75244   -651641.11344  25142167.6054   25142171.7874
  -5100579.56044  -3974476.50144  24406916.6784   24406919.8854
 -19292047.44044 -15032742.33044  21936677.9344   21936678.7194
 -20344248.63144 -15852636.15444  21314433.4454   21314433.9154
   -117738.87344    -91724.07544  25243959.9204   25243961.1544
 -21550977.65044 -16792943.18944  21277167.6384   21277167.5724
 96  7 10  3 20  0.0000000  0  8G29G15G 3G14G21G 1G23G25
  -2270314.69244  -1769071.90344  24875571.4474   24875575.1814
  -6908021.93444  -5382872.39844  21613142.6684   21613144.4404
   -751233.38644   -585386.12944  25158347.6564   25158352.2144
  -5181593.39644  -4037604.12244  24391500.1884   24391504.2824
 -19239240.38044 -14991593.97544  21946726.9424   21946727.5924
 -20284606.76044 -15806161.96544  21325782.9304   21325783.6464
    -42818.87344    -33344.82044  25258216.1034
 -21610213.77944 -16839101.17544  21265895.3224   21265895.6584
 96  7 10  3 20 30.0000000  0  8G29G15G 3G14G21G 1G23G25
  -2352294.95244  -1832952.48044  24859971.0734   24859975.3234
  -6977936.91044  -5437351.57144  21599838.3644   21599840.3484
   -666362.82544   -519253.27444  25174498.1244   25174504.1214
  -5262616.56244  -4100738.99744  24376081.9974   24376085.2044
 -19186179.98644 -14950248.23444  21956823.9414   21956825.0734
 -20224776.54144 -15759541.01744  21337168.1964   21337168.8284
     32220.48344     25127.43144  25272495.5684   25272497.5464
 -21669026.86544 -16884929.52744  21254703.6564   21254704.2544
 96  7 10  3 21  0.0000000  0  8G29G15G 3G14G21G 1G23G25
  -2434148.55144  -1896734.37144  24844394.6984   24844399.1234
  -7047400.42144  -5491478.95044  21586619.8364   21586621.4604
   -581653.43144   -453246.00944  25190617.9614   25190627.3934
  -5343645.13544  -4163878.07344  24360662.6394   24360665.8594
 -19132846.59844 -14908689.76044  21966972.9884   21966973.9194
 -20164744.43844 -15712762.74944  21348591.8254   21348592.6684
    107382.76144     83695.48644  25286798.6714   25286801.0384
 -21727398.28244 -16930413.71644  21243595.8484   21243596.3394
 96  7 10  3 21 30.0000000  0  8G29G15G 3G14G21G 1G23G25
  -2515889.22344  -1960428.25544  24828839.7064   24828845.8504
  -7116416.84644  -5545257.95244  21573486.4584   21573488.1814
   -497120.15444   -387375.98544  25206703.7944   25206710.4164
  -5424691.15044  -4227030.72944  24345240.0194   24345242.0114
 -19079248.27544 -14866924.84644  21977172.3524   21977173.4484
 -20104512.42544 -15665828.71344  21360053.5364   21360054.4784
    182662.69344    142355.17344  25301123.8184   25301125.6924
 -21785326.72044 -16975552.72544  21232572.4224   21232572.7174
 96  7 10  3 22  0.0000000  0  8G29G15G 3G14G21G 1G23G25
  -2597549.76844  -2024059.70244  24813300.1754   24813305.8124
  -7185022.95744  -5598717.23444  21560431.1114   21560432.9434
   -412816.56344   -321684.89644  25222745.8834   25222751.6714
  -5505807.44544  -4290238.15744  24329804.3074   24329807.7264
 -19025427.53644 -14824986.61444  21987414.1444   21987415.2424
 -20044125.22244 -15618773.74744  21371544.8594   21371545.9454
    258012.09944    201069.00244  25315461.8954   25315461.3864
 -21842852.02244 -17020377.60244  21221625.8604   21221626.0734
 96  7 10  3 22 30.0000000  0  8G29G15G 3G14G21G 1G23G25
  -2679137.44044  -2087634.38244  24797774.3654   24797777.5544
  -7253229.30244  -5651865.00544  21547451.7294   21547453.6694
   -328747.79444   -256176.87144  25238743.6384   25238750.1974
  -5587025.56744  -4353524.91044  24314349.1694   24314351.2474
 -18971393.81544 -14782882.42244  21997696.2924   21997697.4624
 -19983585.20644 -15571599.70844  21383065.2914   21383065.9134
    333417.52844    259826.50344  25329811.5054
 -21899982.23844 -17064894.62144  21210754.3374   21210754.7814
 96  7 10  3 23  0.0000000  0  8G29G15G 3G14G21G 1G23G25
  -2760521.05544  -2151050.06944  24782287.7464   24782292.1944
  -7320913.87644  -5704606.19944  21534571.8204   21534573.9054
   -244788.31944   -190753.93644  25254720.7504   25254724.7824
  -5668227.54944  -4416799.08744  24298896.2474   24298899.0414
 -18917030.33044 -14740521.26844  22008041.3374   22008042.5484
 -19922776.12444 -15524216.00644  21394636.9054   21394637.6464
    409001.95144    318723.47044  25344195.3124   25344198.5014
 -21956594.13944 -17109007.76344  21199981.1814   21199981.6844
 96  7 10  3 23 30.0000000  0  8G29G15G 3G14G21G 1G23G25
  -2841726.93044  -2214327.15744  24766834.8104   24766838.6394
  -7388115.13844  -5756970.78544  21521783.8604   21521785.6884
   -160980.38544   -125449.20444  25270668.5764   25270679.7464
  -5749453.34144  -4480091.86244  24283438.9264   24283442.1184
 -18862373.10344 -14697931.22244  22018442.3154   22018443.1044
 -19861766.94044 -15476676.38044  21406246.4814   21406247.2554
    484724.41544    377727.99944  25358604.5754
 -22012739.85244 -17152757.64044  21189297.0544   21189297.4144
 96  7 10  3 24  0.0000000  0  8G29G15G 3G14G21G 1G23G25
  -2922778.76744  -2277484.30144  24751410.6354   24751412.9744
  -7454865.58644  -5808984.08244  21509081.7204   21509083.5844
    -77370.86944    -60298.96344  25286579.6074   25286582.7904
  -5830738.22044  -4543430.62244  24267970.8764   24267974.7374
 -18807451.09344 -14655134.85044  22028893.7134   22028894.8554
 -19800608.28944 -15429020.28444  21417884.6134   21417885.4924
    560544.36144                  25373032.1754
 -22068456.46844 -17196173.15344  21178694.4514   21178694.7364
 96  7 10  3 24 30.0000000  0  8G29G15G 3G14G21G 1G23G25
  -3003662.82144  -2340510.70144  24736018.8944   24736022.9984
  -7521147.70044  -5860632.44644  21496468.5644   21496470.4904
      6051.70644      4705.52444  25302454.5704   25302461.4434
  -5912063.09444  -4606800.60644  24252495.4944   24252498.9194
 -18752252.70144 -14612123.11844  22039397.6244   22039398.8794
 -19739301.32744 -15381248.62444  21429550.9724   21429551.6874
    636486.78744    495984.42944  25387483.5804
 -22123710.13944 -17239227.93044  21168179.9844   21168180.4264
 96  7 10  3 25  0.0000000  0  8G29G15G 3G14G21G 1G23G25
  -3084378.92444  -2403406.20844  24720658.8414   24720663.2224
  -7586954.17544  -5911910.17944  21483945.9404   21483947.8334
     89272.15244     69552.50244  25318291.1154   25318296.0284
  -5993405.78844  -4670184.45844  24237017.0194   24237020.4544
 -18696774.04944 -14568893.00144  22049954.8194   22049955.8884
 -19677858.39744 -15333371.01344  21441243.1744   21441244.0764
    712555.50244    555258.78744  25401959.0344   25401959.4214
 -22178489.06844 -17281912.78044  21157755.8344   21157756.3314
 96  7 10  3 25 30.0000000  0  8G29G15G 3G14G21G 1G23G25
  -3164992.87944  -2466222.14144  24705318.8444   24705322.5564
  -7652347.72644  -5962866.15744  21471502.0014   21471504.0134
    172224.16844    134190.30644  25334076.4484   25334083.0574
  -6074827.49444  -4733629.90344  24221522.6464   24221525.0574
 -18641081.48644 -14525496.20244  22060552.5954   22060553.6274
 -19616340.55644 -15285435.02944  21452949.5954   21452950.3234
    788674.38144    614572.17244  25416444.1114   25416447.1424
 -22232857.78044 -17324277.98244  21147409.8954   21147410.2764
 96  7 10  3 26  0.0000000  0  8G29G15G 3G14G21G 1G23G25
  -3245491.90544  -2528948.50844  24690000.1654   24690004.7044
  -7717311.27844  -6013487.07144  21459139.9014   21459141.6344
    254935.77644    198640.78944  25349816.2314   25349825.9114
  -6156309.63544  -4797122.42944  24206016.9904   24206020.2474
 -18585181.20544 -14481937.54244  22071190.1114   22071191.3594
 -19554720.29244 -15237419.23544  21464675.6054   21464676.2144
    864862.96944    673940.73044  25430941.6544   25430945.7004
 -22286788.05944 -17366301.54644  21137147.3444   21137147.7024
 96  7 10  3 26 30.0000000  0  8G29G15G 3G14G21G 1G23G25
  -3325761.92644  -2591496.43744  24674724.7624   24674730.1014
  -7781719.37644  -6063675.16144  21446883.3784   21446884.9424
    337548.74044    263014.47444  25365536.6334
  -6237731.58744  -4860568.10444  24190523.2254   24190526.3924
 -18528957.96544 -14438127.22144  22081889.1814   22081890.3104
 -19492865.77644 -15189220.89944  21476446.2074   21476446.9534
    941252.08444    733465.12144  25445478.0454
 -22340159.40944 -17407889.57944  21126991.0974   21126991.3324
 96  7 10  3 27  0.0000000  0  8G29G15G 3G14G21G 1G23G25
  -3405851.65844  -2653903.98544  24659483.9394   24659487.1364
  -7845622.73544  -6113469.94844  21434722.8134   21434724.4704
    420009.60844                  25381228.9224
  -6319148.65644  -4924009.93644  24175029.9874   24175032.8744
 -18472465.08744 -14394106.79044  22092639.5734   22092640.6244
 -19430812.57744 -15140867.74744  21488254.4374   21488254.9004
   1017781.49744                  25460041.4334
 -22393047.18044 -17449100.80044  21116926.9254   21116927.1314
 96  7 10  3 27 30.0000000  0  8G29G15G 3G14G21G 1G23G25
  -3485774.02444  -2716181.00844  24644275.1544   24644281.2014
  -7909034.08844  -6162881.35944  21422656.1084   21422657.8914
    502311.60344    391400.85244  25396890.2674
  -6400587.07344  -4987468.43644  24159532.6084   24159535.6874
 -18415722.00944 -14349891.40144  22103437.2644   22103438.3214
 -19368566.51444 -15092364.31344  21500099.4484   21500100.0944
   1094447.72544    852838.24244  25474630.4544   25474634.6364
 -22445470.49944 -17489950.10944  21106950.9574   21106950.9124
 96  7 10  3 28  0.0000000  0  7G29G15G 3G14G21G 1G25
  -3565566.15044  -2778356.58144  24629091.5244
  -7971979.46444  -6211929.67044  21410677.9924   21410679.6434
    584416.18544                  25412514.5384
  -6482085.03144  -5050973.31444  24144023.9644   24144026.6624
 -18358746.44244 -14305494.86744  22114279.3914   22114279.9634
 -19306147.73144 -15043726.29944  21511977.4544   21511977.9064
 -22497458.44644 -17530460.16544  21097057.9984   21097058.0254
 96  7 10  3 28 30.0000000  0  7G29G15G 3G14G21G 1G25
  -3645244.68344  -2840443.60844  24613929.2704   24613933.3214
  -8034465.70144  -6260620.21444  21398787.2424   21398788.8564
    666291.19844                  25428094.8344
  -6563665.56944  -5114542.56644  24128499.8244   24128503.5474
 -18301522.62244 -14260904.88044  22125168.7314   22125169.2804
 -19243562.51344 -14994958.59444  21523887.0014   21523887.5584
 -22549025.06644 -17570641.92244  21087245.1834   21087245.2184
 96  7 10  3 29  0.0000000  0  8G29G15G 3G14G21G 1G20G25
  -3724765.67144  -2902407.93244  24598796.7954
  -8096443.24444  -6308914.37044  21386993.2144   21386994.0914
    747969.13044                  25443637.8614
  -6645269.99844  -5178130.39044  24112970.6984   24112970.2954
 -18243998.23044 -14216080.68544  22136115.2254   22136116.2994
 -19180773.90944 -14946032.39344  21535835.2514   21535835.5984
        -0.78114        -0.80214  24987463.404    24987462.211
 -22600112.68244 -17610450.42144  21077523.3794   21077523.1134
 96  7 10  3 29 30.0000000  0  8G29G15G 3G14G21G 1G20G25
  -3804138.84444  -2964257.03744  24583692.1944
  -8157912.24144  -6356812.26644  21375295.9824   21375297.2674
    829448.37044    646312.29544  25459142.7384
  -6726893.92044  -5241733.37044  24097438.5244   24097439.8904
 -18186171.13144 -14171020.62144  22147119.3134   22147120.0184
 -19117790.56144 -14896954.45244  21547820.6254   21547820.8474
    -40122.420 4    -31266.110 4  24979830.683    24979829.529
 -22650705.13244 -17649873.08244  21067895.8924   21067895.6274
 96  7 10  3 30  0.0000000  0  8G29G15G 3G14G21G 1G20G25
  -3883401.27244  -3026019.87344  24568608.4594   24568612.3314
  -8218903.27744  -6404337.73944  21363689.7654   21363691.3264
    910693.75544    709620.33744  25474603.2814   25474609.4654
  -6808566.16044  -5305374.04544  24081896.7384   24081897.1924
 -18128073.64844 -14125749.86844  22158174.7984   22158175.5394
 -19054650.95744 -14847754.76544  21559835.6184   21559836.2494
    -79912.596 4    -62273.160 4  24972261.137    24972260.208
 -22700827.48644 -17688929.44044  21058358.0594   21058358.1054
 96  7 10  3 30 30.0000000  0  8G29G15G 3G14G21G 1G20G25
  -3962507.93244  -3087661.31044  24553555.2244   24553558.4054
  -8279379.49144  -6451462.04844  21352181.5764   21352183.3674
    991741.09244                  25490025.8174
  -6890229.70344  -5369007.94044  24066356.7394   24066357.9434
 -18069686.44544 -14080253.36144  22169285.5994   22169287.1454
 -18991339.01944 -14798420.78944  21571883.4154   21571884.2334
   -119334.535 4    -92994.233 4  24964762.011    24964760.560
 -22750441.10244 -17727589.37644  21048916.8824   21048917.2544
 96  7 10  3 31  0.0000000  0  7G29G15G14G21G 1G20G25
  -4041473.12344  -3149192.52144  24538528.7884   24538533.0634
  -8339368.76944  -6498206.92644  21340766.0724   21340767.7364
  -6971897.89344  -5432645.40944  24050815.6314   24050820.2434
 -18011061.03244 -14034571.23544  22180441.7614   22180442.9604
 -18927892.45044 -14748981.90544  21583956.9854   21583957.8234
   -158415.890 4   -123449.938 4  24957327.705    24957325.760
 -22799573.55344 -17765874.37644  21039567.2594   21039567.6584
 96  7 10  3 31 30.0000000  0  7G29G15G14G21G 1G20G25
  -4120275.82844  -3210597.12544  24523533.4584   24523536.5614
  -8398859.93444  -6544563.66544  21329445.2214   21329446.9924
  -7053580.34144  -5496294.00744  24035271.6464   24035273.3384
 -17952195.50144 -13988702.00344  22191643.5224   22191644.6174
 -18864301.70844 -14699430.67444  21596057.8644   21596058.6804
   -197145.741 4   -153631.768 4  24949959.978    24949958.602
 -22848220.89644 -17803781.36944  21030309.9264   21030310.1924
 96  7 10  3 32  0.0000000  0  8G29G15G31G14G21G 1G20G25
  -4198880.65244  -3271847.52644  24508575.2234   24508577.5264
  -8457817.41344  -6590504.54644  21318225.9354   21318227.8284
         0.12754         0.41654  24480883.7194   24480887.5144
  -7135258.88444  -5559939.53444  24019728.7094   24019731.1434
 -17893061.14444 -13942623.30044  22202896.2164   22202897.0354
 -18800548.01944 -14649752.47144  21608189.8574   21608190.6294
   -235488.173 4   -183511.678 4  24942666.316    24942664.547
 -22896353.40344 -17841287.18944  21021150.6494   21021150.7364
 96  7 10  3 32 30.0000000  0  8G29G15G31G14G21G 1G20G25
  -4277308.05744  -3332959.70144  24493650.8204   24493654.3904
  -8516271.21044  -6636052.94844  21307102.4064   21307104.2324
     77057.30344     60044.93244  24495546.6034   24495551.2484
  -7216966.88544  -5623608.06744  24004180.2534   24004184.0594
 -17833685.04244 -13896356.21844  22214195.0764   22214196.3724
 -18736664.24844 -14599972.90744  21620346.5974   21620347.1364
   -273473.251 4   -213113.141 4  24935439.890    24935438.528
 -22944001.02544 -17878415.17644  21012083.5694   21012083.7394
 96  7 10  3 33  0.0000000  0  8G29G15G31G14G21G 1G20G25
  -4355574.71344  -3393946.56044  24478757.3654   24478761.4354
  -8574229.06544  -6681214.90544  21296073.4534   21296075.1014
    154136.44044    120106.51144  24510214.2654   24510222.4564
  -7298731.31644  -5687320.54344  23988621.1774   23988624.2684
 -17774068.78444 -13849901.99344  22225539.8604   22225540.8414
 -18672650.21244 -14550091.83844  21632527.9424   21632528.5154
   -311108.853 4   -242442.270 4  24928280.298    24928278.986
 -22991168.48244 -17915169.00844  21003107.8714   21003108.2074
 96  7 10  3 33 30.0000000  0  8G29G15G31G14G21G 1G20G25
  -4433681.73344  -3454809.09244  24463893.9704   24463898.3374
  -8631673.23144  -6725976.58644  21285142.3314   21285143.7574
    231242.25244    180188.92944  24524886.8794   24524893.2104
  -7380544.14944  -5751070.73844  23973052.5934   23973054.7784
 -17714178.51044 -13803234.25944  22236936.6254   22236937.6484
 -18608487.25244 -14500094.72444  21644737.7194   21644738.3744
   -348376.966 4   -271485.047 4  24921190.441    24921189.570
 -23037844.18544 -17951539.65944  20994225.7784   20994225.9634
 96  7 10  3 34  0.0000000  0  8G29G15G31G14G21G 1G20G25
  -4511610.91744  -3515533.04244  24449064.3114   24449068.5724
  -8688588.43644  -6770326.09244  21274311.7794   21274313.4314
    308371.93044    240289.94044  24539564.5264   24539572.0964
  -7462372.91344  -5814833.33144  23957480.7584   23957483.4414
 -17653997.27744 -13756339.79944  22248388.7174   22248389.5574
 -18544151.97844 -14449963.34144  21656980.3634   21656980.9214
   -385262.158 4   -300228.451 4  24914173.903    24914172.808
 -23084012.23644 -17987514.73944  20985440.3364   20985440.3274
 96  7 10  3 34 30.0000000  0  8G29G15G31G14G21G 1G20G25
  -4589367.62144  -3576122.58144  24434267.7674   24434270.9334
  -8744982.06644  -6814269.17544  21263580.3124   21263582.1004
    385511.85544    300398.91544  24554243.8124   24554248.8604
  -7544209.32144  -5878601.92044  23941907.5154   23941910.8624
 -17593532.85844 -13709224.67144  22259894.7384   22259895.4034
 -18479640.93644 -14399694.99344  21669256.4154   21669256.9904
   -421772.105 4   -328680.458 4  24907228.876    24907227.195
 -23129689.26644 -18023107.20244  20976748.1884   20976748.2124
 96  7 10  3 35  0.0000000  0  8G29G15G31G14G21G 1G20G25
  -4666971.60344  -3636593.11744  24419500.0614   24419502.8304
  -8800858.23344  -6857809.03344  21252947.2584   21252949.1424
    462653.48844    360509.22344  24568923.2224   24568928.1704
  -7626059.24244  -5942381.01344  23926332.1684   23926335.3634
 -17532790.86044 -13661893.24844  22271453.5584   22271455.0384
 -18414961.67944 -14349295.56244  21681564.4794   21681565.1794
   -457910.708 4   -356843.109 4  24900354.027    24900352.616
 -23174892.11144 -18058330.17044  20968146.1454   20968146.3474
 96  7 10  3 35 30.0000000  0  8G29G15G31G14G21G 1G20G25
  -4744410.66444  -3696935.14344  24404763.4264   24404769.1774
  -8856210.45044  -6900940.61844  21242414.1564   21242416.0174
    539803.43244    420626.01544  24583604.3754   24583609.7544
  -7707910.56444  -6006161.19244  23910756.5924   23910759.3104
 -17471763.64744 -13614339.58044  22283066.7014   22283067.5494
 -18350120.49544 -14298769.95344  21693903.2474   21693903.8554
   -493671.532 4   -384711.377 4  24893551.070    24893550.100
 -23219618.90344 -18093182.18944  20959634.9984   20959635.3264
 96  7 10  3 36  0.0000000  0  8G29G15G31G14G21G 1G20G25
  -4821670.25144  -3757137.32744  24390060.8314   24390066.7804
  -8911025.73844  -6943653.81644  21231983.2594   21231984.8484
    616980.10344    480763.64944  24598290.8794   24598295.2944
  -7789739.48044  -6069923.93044  23895185.1104   23895188.1784
 -17410453.84844 -13566565.71044  22294733.4654   22294734.7914
 -18285121.42544 -14248121.31944  21706272.1624   21706272.7744
   -529041.414 4   -412275.042 4  24886822.894    24886821.791
 -23263847.49044 -18127645.99744  20951218.7254   20951218.8684
 96  7 10  3 36 30.0000000  0  8G29G15G31G14G21G 1G20G25
  -4898773.27544  -3817217.51144  24375388.4174   24375393.5814
  -8965316.97144  -6985958.66144  21221652.0074   21221653.7364
    694176.64244    540916.74044  24612981.0394   24612985.3844
  -7871561.52744  -6133681.28344  23879614.9144   23879618.3784
 -17348858.48144 -13518569.32544  22306454.6114   22306455.8234
 -18219998.41044 -14197376.10544  21718664.6534   21718665.2584
   -564032.739 4   -439543.712 4  24880166.598    24880165.552
 -23307585.80544 -18161727.77544  20942895.4954   20942895.7474
 96  7 10  3 37  0.0000000  0  8G29G15G31G14G21G 1G20G25
  -4975748.56744  -3877198.10744  24360741.0754   24360745.0534
  -9019111.61844  -7027876.55244  21211415.1134   21211416.9624
    771366.69344    601064.77144  24627669.6754   24627673.4484
  -7953414.76344  -6197462.96844  23864038.3794   23864041.8754
 -17287005.48044 -13470372.18244  22318224.8244   22318225.6664
 -18154800.73944 -14146572.71844  21731071.3824   21731072.2084
   -598673.727 4   -466539.406 4  24873577.210    24873575.947
 -23350850.74444 -18195440.68844  20934662.1974   20934662.5224
 96  7 10  3 37 30.0000000  0  8G29G15G31G14G21G 1G20G25
  -5052572.63544  -3937060.96044  24346122.1004   24346125.4154
  -9072393.65244  -7069395.00644  21201275.7964   21201277.5444
    848571.54144    661224.34044  24642361.3274   24642367.3454
  -8035286.15344  -6261258.79244  23848459.1274   23848461.0134
 -17224885.64544 -13421967.10744  22330045.8854   22330047.0384
 -18089516.94444 -14095702.22244  21743494.3864   21743495.2034
   -632947.992 4   -493249.331 4  24867057.139    24867056.186
 -23393623.77044 -18228770.29344  20926522.9494   20926523.0764
 96  7 10  3 38  0.0000000  0  8G29G15G31G14G21G 1G20G25
  -5129256.09544  -3996814.19444  24331529.3994   24331534.0714
  -9125162.75444  -7110513.77144  21191234.1484   21191235.9014
    925777.23644    721384.55644  24657053.3094   24657056.3024
  -8117183.22844  -6325074.62844  23832874.4884   23832877.9214
 -17162502.24444 -13373356.65644  22341917.0374   22341918.0184
 -18024141.99444 -14044760.70044  21755934.7894   21755935.4784
   -666854.614 4   -519672.775 4  24860607.423    24860606.115
 -23435904.25644 -18261716.10044  20918477.3404   20918477.2554
 96  7 10  3 38 30.0000000  0  8G29G15G31G14G21G 1G20G25
  -5205780.06644  -4056443.17744  24316967.3404   24316968.9654
  -9177399.10144  -7151217.40444  21181293.9854   21181295.6524
   1002987.77644    781548.57144  24671746.0844   24671753.9894
  -8199111.23044  -6388914.57644  23817283.9324   23817286.4734
 -17099836.06444 -13324525.86644  22353842.0464   22353843.2214
 -17958647.03544 -13993725.66244  21768398.1574   21768398.7584
   -700374.557 4   -545794.904 4  24854231.065    24854229.814
 -23477680.87844 -18294269.28444  20910527.4074   20910527.4974
 96  7 10  3 39  0.0000000  0  8G29G15G31G14G21G 1G20G25
  -5282183.33044  -4115978.09344  24302428.3614   24302430.5944
  -9229134.54744  -7191530.72744  21171449.0014   21171450.5684
   1080153.06644    841677.34444  24686429.8794   24686435.6954
  -8281115.25944  -6452813.78444  23801678.9504   23801681.0934
 -17036948.53044 -13275522.58944  22365809.1844   22365810.4284
 -17893061.00344 -13942619.65944  21780878.7844   21780879.3514
   -733539.014 4   -571640.049 4  24847922.474    24847921.044
 -23518997.93344 -18326464.36844  20902665.0374   20902665.0974
 96  7 10  3 39 30.0000000  0  8G29G15G31G14G21G 1G20G25
  -5358449.03444  -4175405.81144  24287915.5924   24287919.4594
  -9280346.03644  -7231435.77544  21161703.8314   21161705.3974
   1157271.56944    901769.63444  24701105.5124   24701109.7654
  -8363167.62244  -6516750.65644  23786065.0734   23786067.3354
 -16973822.75444 -13226333.67444  22377821.6964   22377822.7364
 -17827353.01744 -13891418.62544  21793382.6574   21793383.2134
   -766324.679 4   -597190.022 4  24841685.906    24841684.418
 -23559834.23944 -18358284.84344  20894894.0934   20894894.1384
 96  7 10  3 40  0.0000000  0  8G29G15G31G14G21G 1G20G25
  -5434546.72144  -4234702.61144  24273434.2554   24273437.9204
  -9330993.92544  -7270901.65444  21152065.9634   21152067.4944
   1234375.73044    961850.75844  24715777.8674   24715783.1544
  -8445222.95844  -6580689.83244  23770450.4674   23770452.3084
 -16910421.36244 -13176929.99544  22389886.4554   22389887.6244
 -17761488.40444 -13840095.54044  21805916.2284   21805916.6934
   -798692.249 4   -622414.214 4  24835528.757    24835527.441
 -23600141.56244 -18389693.12644  20887223.7894   20887224.0474
 96  7 10  3 40 30.0000000  0  8G29G15G31G14G21G 1G20G25
  -5510483.89144  -4293874.32944  24258983.9844   24258988.0764
  -9381088.68344  -7309936.52144  21142533.1444   21142534.8744
   1311464.07944   1021919.53044  24730447.2094   24730450.4234
  -8527284.42144  -6644633.80344  23754834.9564   23754837.3404
 -16846765.65944 -13127328.14944  22401999.8184   22402000.8764
 -17695485.28144 -13788664.53044  21818476.1624   21818476.6844
   -830651.700 4   -647320.383 4  24829449.451    24829448.106
 -23639939.22744 -18420704.27244  20879650.4144   20879650.8264
 96  7 10  3 41  0.0000000  0  8G29G15G31G14G21G 1G20G25
  -5586257.91144  -4352918.91144  24244564.2064   24244569.3364
  -9430624.84744  -7348536.12244  21133106.6264   21133108.2234
   1388544.83144   1081982.40744  24745115.4624   24745121.5634
  -8609330.78744  -6708566.02944  23739221.9434   23739225.1184
 -16782854.43044 -13077527.19144  22414161.7364   22414162.5514
 -17629335.41544 -13737119.17244  21831064.0634   21831064.5304
   -862197.815 4   -671904.452 4  24823448.245    24823447.629
 -23679225.50044 -18451316.92944  20872174.6554   20872174.9444
 96  7 10  3 41 30.0000000  0  8G29G15G31G14G21G 1G20G25
  -5661860.59844  -4411830.00344  24230177.7054   24230180.6154
  -9479591.28144  -7386691.77844  21123788.6284   21123790.3314
   1465648.84644   1142063.38244  24759787.9734   24759790.2964
  -8691342.83144  -6772471.48744  23723615.2184   23723617.1834
 -16718663.38144 -13027508.19544  22426376.8334   22426377.8684
 -17563012.42844 -13685438.91744  21843684.8734   21843685.5754
   -893319.319 4   -696157.671 4  24817528.397    24817527.636
 -23717979.19444 -18481514.58644  20864800.1704   20864800.1764
 96  7 10  3 42  0.0000000  0  8G29G15G31G14G21G 1G20G25
  -5737298.54244  -4470612.70044  24215822.4314   24215824.8444
  -9527987.90244  -7424403.42344  21114579.0464   21114580.7504
   1542790.70944   1202173.88544  24774467.3564   24774471.9394
  -8773333.54244  -6836360.32044  23708012.8484   23708015.4904
 -16654195.72044 -12977273.64744  22438644.4834   22438645.6194
 -17496513.55444 -13633621.60944  21856339.1714   21856339.7424
   -924016.028 4   -720079.880 4  24811689.797    24811688.059
 -23756200.10344 -18511297.08744  20857526.7444   20857526.6954
 96  7 10  3 42 30.0000000  0  8G29G15G31G14G21G 1G20G25
  -5812601.49144  -4529290.23844  24201492.4474   24201496.2204
  -9575851.62844  -7461699.82844  21105470.8034   21105472.5394
   1619915.26244   1262270.87544  24789143.8554   24789146.9614
  -8855346.40544  -6900266.39944  23692406.3324   23692409.2614
 -16589486.86044 -12926851.15744  22450958.3804   22450959.4424
 -17429883.03244 -13581701.72044  21869018.5074   21869019.0754
   -954324.899 4   -743699.887 4  24805924.678    24805923.143
 -23793927.38944 -18540694.94244  20850347.5904   20850347.5134
 96  7 10  3 43  0.0000000  0  8G29G15G31G14G21G 1G20G25
  -5887760.39444  -4587855.51844  24187189.5744   24187192.7814
  -9623170.07444  -7498571.33844  21096466.3994   21096468.0694
   1697018.50044   1322351.24644  24803815.9354   24803820.4874
  -8937375.26744  -6964184.94844  23676796.8814   23676798.3354
 -16524516.08244 -12876224.57444  22463321.8894   22463322.5364
 -17363115.88044 -13529675.36744  21881723.9144   21881724.6444
   -984233.541 4   -767008.028 4  24800235.493    24800234.540
 -23831134.17644 -18569687.21544  20843267.2774   20843267.3164
 96  7 10  3 43 30.0000000  0  8G29G15G31G14G21G 1G20G25
  -5962744.37444  -4646284.48244  24172920.6374   24172923.8564
  -9669918.60244  -7534998.75944  21087570.5804   21087572.2604
   1774112.14344   1382424.15644  24818486.7744   24818491.1394
  -9019398.39444  -7028099.00544  23661188.4294   23661191.1024
 -16459255.14644 -12825371.89044  22475740.4974   22475741.6464
 -17296207.65744 -13477539.08544  21894456.1914   21894456.9084
  -1013716.850 4   -789984.725 4  24794627.388    24794625.721
 -23867786.13044 -18598247.15344  20836292.5684   20836292.6454
 96  7 10  3 44  0.0000000  0  8G29G15G31G14G21G 1G20G25
  -6037550.19944  -4704574.63944  24158685.5954   24158689.0614
  -9716119.00544  -7570999.06544  21078778.9684   21078780.6864
   1851142.08144   1442447.43844  24833145.4704   24833149.7264
  -9101429.47344  -7092019.23844  23645578.2524   23645580.9704
 -16393730.36744 -12774313.61844  22488209.4664   22488210.3924
 -17229216.94644 -13425338.53044  21907204.0764   21907204.7024
  -1042796.687 4   -812647.027 4  24789095.838    24789094.795
 -23903914.63644 -18626399.20744  20829417.6024   20829417.5654
 96  7 10  3 44 30.0000000  0  7G29G15G31G14G21G 1G25
  -6112148.25044  -4762702.89144  24144490.3694   24144493.3394
  -9761751.87244  -7606557.13644  21070095.2604   21070096.9994
   1928114.09944   1502425.55744  24847792.8054   24847796.0704
  -9183439.02744  -7155922.71944  23629972.0034   23629974.8404
 -16327924.44744 -12723036.28144  22500732.1114   22500733.3854
 -17162129.97244 -13373062.96244  21919970.2274   21919970.8284
 -23939518.53944 -18654142.47944  20822642.4314   20822642.3764
 96  7 10  3 45  0.0000000  0  7G29G15G31G14G21G 1G25
  -6186565.61544  -4820690.35544  24130329.2034   24130332.1274
  -9806845.88644  -7641695.31944  21061514.1394   21061515.7354
   2005013.81944   1562347.36844  24862425.7004   24862432.1784
  -9265458.51144  -7219833.92544  23614364.1784   23614366.5544
 -16261863.33844 -12671560.09044  22513303.2524   22513304.2854
 -17094967.33244 -13320728.43844  21932750.7884   21932751.3844
 -23974633.07544 -18681504.42744  20815960.2504   20815960.3814
 96  7 10  3 45 30.0000000  0  7G29G15G31G14G21G 1G25
  -6260793.46744  -4878530.15844  24116204.1874   24116207.0954
  -9851388.65944  -7676403.96544  21053037.9944   21053039.4474
   2081857.86644   1622225.75844  24877048.6114   24877056.3584
  -9347482.67144  -7283748.77644  23598755.8304   23598757.4284
 -16195530.26844 -12619871.98444  22525925.5764   22525926.8174
 -17027712.88044 -13268322.37144  21945548.9944   21945549.6194
 -24009253.98544 -18708481.73244  20809372.1454   20809372.3324
 96  7 10  3 46  0.0000000  0  7G29G15G31G14G21G 1G25
  -6334816.87244  -4936210.63044  24102117.6944   24102121.4304
  -9895348.25544  -7710658.18644  21044672.8404   21044674.3924
   2158682.91544   1682089.39244  24891667.7484   24891674.8974
  -9429487.29144  -7347648.38744  23583150.8414   23583153.6244
 -16128891.42344 -12567945.60144  22538606.5764   22538607.4054
 -16960329.62944 -13215815.94644  21958371.5314   21958372.0914
 -24043355.89644 -18735054.62344  20802882.7994   20802882.8994
 96  7 10  3 46 30.0000000  0  7G29G15G31G14G21G 1G25
  -6408695.75644  -4993778.47144  24088059.2624   24088061.2644
  -9938750.47344  -7744478.08644  21036413.5644   21036415.3274
   2235482.44144   1741933.14544  24906282.2484   24906286.8104
  -9511518.97744  -7411569.11144  23567540.2984   23567542.8374
 -16061972.00144 -12515800.59944  22551341.1474   22551341.9444
 -16892820.46344 -13163211.40744  21971218.1504   21971218.7294
 -24076952.46944 -18761233.74344  20796489.4374   20796489.5034
 96  7 10  3 47  0.0000000  0  7G29G15G31G14G21G 1G25
  -6482442.41644  -5051243.30244  24074025.4304   24074027.7224
  -9981597.56344  -7777865.41544  21028259.9014   21028261.7494
   2312258.73544   1801758.78944  24920892.7954   24920899.0764
  -9593589.59644  -7475520.17244  23551922.7254   23551924.2984
 -15994769.05544 -12463434.66244  22564129.2524   22564130.8044
 -16825199.41344 -13110519.68544  21984085.9964   21984086.6384
 -24110025.27744 -18787004.73644  20790195.9464   20790195.9094
 96  7 10  3 47 30.0000000  0  7G29G15G31G14G21G 1G25
  -6556066.99844  -5108613.03044  24060014.9204   24060018.3484
 -10023883.73244  -7810815.66144  21020213.0894   21020214.7224
   2388996.51844   1861554.47644  24935495.9674   24935502.4824
  -9675691.22144  -7539495.38744  23536299.1734   23536302.0054
 -15927296.44344 -12410858.61544  22576968.6664   22576969.8914
 -16757477.76744 -13057749.57844  21996973.0484   21996973.6644
 -24142570.19044 -18812364.38344  20784002.8264   20784002.6924
 96  7 10  3 48  0.0000000  0  7G29G15G31G14G21G 1G25
  -6629571.49544  -5165889.15844  24046027.4534   24046032.5574
 -10065614.87844  -7843333.42244  21012271.8834   21012273.7074
   2465673.04944   1921302.40344  24950087.0324   24950090.6174
  -9757824.05144  -7603494.92844  23520669.8194   23520672.0994
 -15859584.80844 -12358096.29244  22589853.7144   22589854.4094
 -16689667.74444 -13004910.60544  22009876.9024   22009877.6304
 -24174600.33044 -18837322.91044  20777907.5964   20777907.7534
 96  7 10  3 48 30.0000000  0  7G15G29G31G14G21G 1G25
 -10106780.74744  -7875410.71144  21004438.2014   21004439.9894
  -6702936.85644  -5223056.84944  24032066.2184   24032069.8014
   2542283.27444   1980998.66944  24964664.7114   24964671.9884
  -9839977.65444  -7667510.64644  23505036.3364   23505039.3374
 -15791641.28444 -12305153.21344  22602783.3974   22602783.9324
 -16621762.42444 -12951997.37944  22022798.8134   22022799.5344
 -24206101.70844 -18861869.41444  20771912.9994   20771913.0724
 96  7 10  3 49  0.0000000  0  7G15G29G31G14G21G 1G25
 -10147355.92444  -7907027.71444  20996717.0184   20996718.7954
  -6776125.86344  -5280087.15444  24018138.6484   24018141.4744
   2618824.90144   2040641.45744  24979229.9694   24979234.3364
  -9922106.97544  -7731507.44144  23489407.7134   23489410.6104
 -15723450.86044 -12252017.86744  22615759.5584   22615761.1074
 -16553745.43144 -12898997.12944  22035741.9864   22035742.8434
 -24237066.47544 -18885997.77744  20766020.6644   20766020.3854
 96  7 10  3 49 30.0000000  0  7G29G15G31G14G21G 1G25
  -6849150.14544  -5336989.08344  24004242.2904   24004245.2094
 -10187352.23644  -7938193.65244  20989106.0674   20989107.8054
   2695270.85744   2100209.71244  24993777.5034   24993780.8424
 -10004220.41544  -7795491.85744  23473781.9764   23473784.6224
 -15655037.79844 -12198708.98144  22628777.8744   22628778.8804
 -16485625.73044 -12845916.84844  22048704.7674   22048705.5154
 -24267517.89244 -18909726.12644  20760225.9914   20760225.8374
 96  7 10  3 50  0.0000000  0  7G29G15G31G14G21G 1G25
  -6921978.87744  -5393738.63844  23990383.6054   23990387.3484
 -10226748.79644  -7968892.25444  20981609.2444   20981610.7664
   2771652.18144   2159727.60344  25008312.5304   25008320.0364
 -10086298.92344  -7859449.06044  23458162.9034   23458165.9854
 -15586371.59244 -12145202.83944  22641844.6054   22641846.1094
 -16417371.37144 -12792731.63944  22061693.2084   22061693.6734
 -24297433.42144 -18933036.90644  20754533.1304   20754533.1854
 96  7 10  3 50 30.0000000  0  7G29G15G31G14G21G 1G25
  -6994614.49444  -5450337.70044  23976561.7024   23976564.2964
 -10265547.52044  -7999125.01344  20974226.0154   20974227.6014
   2847982.18344   2219205.55544  25022837.7584   25022842.8444
 -10168339.64544  -7923376.82644  23442551.1704   23442552.9724
 -15517438.24944 -12091488.53844  22654962.2754   22654963.3754
 -16348994.88044 -12739451.25744  22074704.8044   22074705.3484
 -24326809.84844 -18955927.60644  20748942.9894   20748942.9874
 96  7 10  3 51  0.0000000  0  7G29G15G31G14G21G 1G25
  -7067071.58844  -5506797.68344  23962773.7264   23962776.8954
 -10303761.41644  -8028902.06344  20966954.0834   20966955.6404
   2924260.45344   2278643.13444  25037352.3854   25037357.7134
 -10250354.32944  -7987284.31644  23426944.2124   23426945.3034
 -15448231.99544 -12037561.57344  22668131.9154   22668132.5674
 -16280522.81644 -12686096.39944  22087734.6094   22087735.1214
 -24355670.28544 -18978416.23444  20743450.9614   20743450.8784
 96  7 10  3 51 30.0000000  0  7G29G15G31G14G21G 1G25
  -7139354.82444  -5563122.16744  23949018.4334   23949021.3434
 -10341396.30144  -8058227.94144  20959792.4644   20959793.9684
   3000492.08544   2338044.38844  25051859.1294   25051862.3154
 -10332366.88344  -8051190.14444  23411337.7574   23411339.4644
 -15378753.12144 -11983422.18244  22681353.1494   22681354.0064
 -16211967.47944 -12632676.65644  22100780.2294   22100780.9184
 -24384011.83244 -19000500.53744  20738057.6864   20738057.8624
 96  7 10  3 52  0.0000000  0  7G29G15G31G14G21G 1G25
  -7211448.69344  -5619299.09944  23935299.1984   23935301.0274
 -10378437.66944  -8087091.34044  20952743.7194   20952745.2714
   3076689.50644   2397418.98544  25066358.7474   25066363.0314
 -10414363.99344  -8115083.93844  23395734.0994   23395736.7914
 -15308980.62444 -11929054.00544  22694630.3024   22694631.1164
 -16143321.67844 -12579186.41544  22113843.1744   22113843.9634
 -24411821.85744 -19022170.66944  20732765.6934   20732765.8504
 96  7 10  3 52 30.0000000  0  7G29G15G31G14G21G 1G25
  -7283379.05444  -5675348.62644  23921611.4754   23921614.4394
 -10414900.89444  -8115504.24044  20945804.9684   20945806.6444
   3152818.47644   2456740.25544  25080845.9804   25080850.0244
 -10496360.69444  -8178977.42444  23380130.3674   23380132.9504
 -15238935.03844 -11874473.02044  22707959.6794   22707960.7634
 -16074600.90644 -12525637.75044  22126920.2484   22126920.8874
 -24439113.96744 -19043437.22844  20727572.2084   20727572.2674
 96  7 10  3 53  0.0000000  0  7G29G15G31G14G21G 1G25
  -7355156.50844  -5731278.99344  23907952.4534   23907954.5384
 -10450778.02044  -8143460.44344  20938977.8154   20938979.4074
   3228870.98744   2516001.92644  25095318.6464   25095323.0604
 -10578357.40844  -8242870.93544  23364527.0274   23364530.1924
 -15168625.24844 -11819686.16644  22721339.2144   22721340.5224
 -16005781.69544 -12472012.37944  22140016.1104   22140016.8284
 -24465890.67444 -19064302.17444  20722476.7414   20722476.8124
 96  7 10  3 53 30.0000000  0  7G29G15G31G14G21G 1G25
  -7426795.98844  -5787101.86544  23894319.8664   23894322.9684
 -10486078.20844  -8170967.08444  20932260.4574   20932261.8564
   3304817.00544   2575180.60844  25109770.7104   25109777.2594
 -10660367.40144  -8306774.77944  23348921.0594   23348923.7144
 -15098077.33844 -11764713.76444  22734763.9574   22734764.5464
 -15936865.42944 -12418311.37744  22153130.3884   22153131.0054
 -24492157.32544 -19084769.67344  20717478.3944   20717478.1844
 96  7 10  3 54  0.0000000  0  7G29G15G31G14G21G 1G25
  -7498300.77044  -5842819.73444  23880712.5884   23880715.4514
 -10520793.45644  -8198017.92944  20925654.2804   20925655.8854
   3380652.89344   2634273.51244  25124201.7194   25124205.5694
 -10742370.16944  -8370673.00744  23333316.6904   23333318.8184
 -15027285.85244 -11709551.56644  22748235.0104   22748235.3344
 -15867841.86744 -12364526.76944  22166265.1184   22166265.6734
 -24517900.86844 -19104829.55344  20712579.5164   20712579.2814
 96  7 10  3 54 30.0000000  0  7G29G15G31G14G21G 1G25
  -7569678.65844  -5898438.74344  23867129.6324   23867132.8414
 -10554919.29844  -8224609.49644  20919160.3854   20919162.0514
   3456389.15844   2693288.77144  25138613.5044   25138617.2814
 -10824353.52544  -8434556.09044  23317715.5664   23317716.9744
 -14956247.06744 -11654196.67144  22761753.4244   22761754.8754
 -15798710.17144 -12310657.89944  22179420.4484   22179420.8784
 -24543115.65144 -19124477.41444  20707781.2904   20707781.0624
 96  7 10  3 55  0.0000000  0  7G29G15G31G14G21G 1G25
  -7640924.82744  -5953955.10544  23853571.7694   23853574.8144
 -10588453.66344  -8250740.17244  20912778.8994   20912780.6584
   3532022.73444   2752224.00244  25153005.9874   25153011.0034
 -10906317.85044  -8498424.35044  23302118.3074   23302120.2764
 -14884951.77144 -11598641.90744  22775320.3334   22775321.0414
 -15729490.75944 -12256720.67644  22192592.4294   22192592.9694
 -24567792.38244 -19143706.01644  20703085.4524   20703085.3264
 96  7 10  3 55 30.0000000  0  7G29G15G31G14G21G 1G25
  -7711990.71444  -6009331.00444  23840048.0244   23840051.2194
 -10621371.71344  -8276390.60144  20906514.7904   20906516.4904
   3607571.63044   2811093.27344  25167382.7494   25167388.2434
 -10988233.24844  -8562254.48144  23286530.1114   23286532.1144
 -14813354.98044 -11542852.19244  22788944.8024   22788945.8874
 -15660173.86644 -12202707.49544  22205782.9404   22205783.3744
 -24591890.57344 -19162483.80144  20698499.7714   20698499.6144
 96  7 10  3 56  0.0000000  0  7G29G15G31G14G21G 1G25
  -7782883.09644  -6064571.68844  23826557.8174   23826561.0114
 -10653689.15844  -8301573.02744  20900365.0934   20900366.6464
   3683026.72344   2869889.38744  25181741.5044   25181746.3804
 -11070105.13944  -8626050.71544  23270950.3624   23270952.7614
 -14741455.64844 -11486826.74144  22802626.7824   22802627.8534
 -15590771.73044 -12148627.89344  22218989.8234   22218990.3094
 -24615423.63044 -19180821.22744  20694021.5264   20694021.3674
 96  7 10  3 56 30.0000000  0  7G29G15G31G14G21G 1G25
  -7853596.24744  -6119672.71744  23813101.7774   23813104.6834
 -10685419.59544  -8326298.04544  20894327.0384   20894328.6264
   3758372.46144   2928600.28844  25196079.4944   25196083.7524
 -11151958.77744  -8689832.71644  23255374.1674   23255376.5374
 -14669263.93544 -11430573.45744  22816364.5904   22816364.7614
 -15521309.29744 -12094501.30644  22232208.0424   22232208.7204
 -24638415.91944 -19198737.27544  20689646.1094   20689646.0764
 96  7 10  3 57  0.0000000  0  7G29G15G31G14G21G 1G25
  -7924105.49144  -6174614.84844  23799684.4754   23799686.2734
 -10716554.75944  -8350559.21344  20888402.1904   20888403.7544
   3833599.84244   2987219.01744  25210395.2634   25210399.9284
 -11233794.64444  -8753600.87644  23239801.3994   23239804.2864
 -14596774.17444 -11374087.93044  22830158.8264   22830159.4804
 -15451771.06344 -12040315.65644  22245440.6744   22245440.9654
 -24660859.08444 -19216225.43444  20685375.2784   20685375.1854
 96  7 10  3 57 30.0000000  0  7G29G15G31G14G21G 1G25
  -7994409.08544  -6229396.75244  23786305.8834   23786308.4654
 -10747098.20644  -8374359.29944  20882590.0424   20882591.6024
   3908716.43744   3045751.37044  25224689.2314   25224694.2224
 -11315609.91644  -8817352.98044  23224232.3004   23224234.5394
 -14523993.06544 -11317375.37344  22844008.4894   22844009.6814
 -15382147.00344 -11986063.12644  22258689.6324   22258690.1774
 -24682768.80244 -19233297.91844  20681206.0354   20681205.9764
 96  7 10  3 58  0.0000000  0  7G29G15G31G14G21G 1G25
  -8064538.22344  -6284042.72144  23772960.6904   23772962.6224
 -10777052.39544  -8397700.22244  20876889.8754   20876891.3684
   3983712.40844   3104189.73844  25238960.2534   25238963.6124
 -11397411.72844  -8881094.60244  23208665.6904   23208667.8744
 -14450955.26844 -11260462.80244  22857907.3824   22857908.9064
 -15312452.64444 -11931755.82644  22271952.0654   22271952.8074
 -24704165.66844 -19249970.77844  20677134.3794   20677134.3084
 96  7 10  3 58 30.0000000  0  7G29G15G31G14G21G 1G25
  -8134508.10444  -6338564.59644  23759645.9234   23759647.8074
 -10806410.85744  -8420576.93744  20871303.0024   20871304.6304
   4058588.37444   3162534.58944  25253208.1434   25253212.0364
 -11479207.15544  -8944831.25344  23193100.3734   23193103.0584
 -14377681.54144 -11203366.39144  22871850.8874   22871851.4744
 -15242703.02144 -11877405.46544  22285224.8624   22285225.4404
 -24725052.29444 -19266246.04844  20673159.7734   20673159.5904
 96  7 10  3 59  0.0000000  0  7G29G15G31G14G21G 1G25
  -8204346.04444  -6392983.69144  23746355.5804   23746357.5874
 -10835182.30644  -8442996.23544  20865827.9464   20865829.5694
   4133337.87944   3220780.94644  25267432.8644   25267437.7994
 -11560995.21044  -9008562.16144  23177536.6564   23177538.7354
 -14304193.98444 -11146103.35444  22885834.7354   22885835.8354
 -15172910.40944 -11823021.60644  22298505.9764   22298506.6634
 -24745438.32644 -19282131.24744  20669280.3764   20669280.0634
 96  7 10  3 59 30.0000000  0  7G29G15G31G14G21G 1G25
  -8274050.51944  -6447298.78344  23733091.4064   23733093.4974
 -10863344.02344  -8464940.41544  20860469.0634   20860470.6774
   4207985.60244   3278947.94444  25281637.7184   25281641.4104
 -11642753.65844  -9072269.98644  23161978.5634   23161980.6814
 -14230484.73544 -11088667.56344  22899860.9484   22899861.7154
 -15103071.25844 -11768601.48444  22311795.8904   22311796.3564
 -24765311.31144 -19297616.66944  20665498.7154   20665498.4114
 96  7 10  4  0  0.0000000  0  7G29G15G31G14G21G 1G25
  -8343636.54444  -6501521.59044  23719849.5474   23719851.1804
 -10890898.80544  -8486411.65644  20855225.5684   20855227.2064
   4282518.26444   3337025.34844  25295821.0004   25295827.0144
 -11724501.20544  -9135969.33544  23146422.5814   23146424.5654
 -14156567.78044 -11031069.92844  22913927.5274   22913928.5754
 -15033194.11244 -11714151.75844  22325093.1604   22325093.8694
 -24784673.45044 -19312704.02944  20661814.2124   20661813.9534
 96  7 10  4  0 30.0000000  0  7G29G15G31G14G21G 1G25
  -8413080.89644  -6555633.98944  23706634.6454   23706637.1724
 -10917839.82444  -8507404.63944  20850098.8424   20850100.4604
   4356947.04944   3395022.09644  25309984.7364   25309987.9174
 -11806230.62444  -9199654.54444  23130870.1024   23130872.4284
 -14082416.82244 -10973289.96044  22928037.9214   22928038.4984
 -14963255.06444 -11659653.79744  22338402.0944   22338402.2294
 -24803502.78244 -19327376.21644  20658230.9394   20658230.7104
 96  7 10  4  1  0.0000000  0  7G29G15G31G14G21G 1G25
  -8482358.28944  -6609616.31544  23693451.6074   23693453.9774
 -10944154.86844  -8527909.84644  20845091.2254   20845092.8494
   4431277.88644   3452941.69044  25324129.2434
 -11887922.51244  -9263310.52644  23115324.5734   23115326.4514
 -14008003.55644 -10915305.58544  22942198.0674   22942198.8934
 -14893222.06244 -11605082.62444  22351729.0954   22351729.3574
 -24821772.98744 -19341612.72044  20654754.2634   20654754.0124
 96  7 10  4  1 30.0000000  0  7G29G15G31G14G21G 1G25
  -8551474.89644  -6663473.35444  23680299.2634   23680300.3414
 -10969853.20744  -8547934.50144  20840201.0574   20840202.6414
   4505489.67344   3510769.13444  25338251.4454   25338255.2064
 -11969591.00044  -9326948.28444  23099783.6334   23099785.0924
 -13933320.26344 -10857110.80444  22956409.5794   22956410.7954
 -14823091.89744 -11550435.74644  22365074.3684   22365074.8804
 -24839489.15144 -19355417.50244  20651383.1024   20651382.8664
 96  7 10  4  2  0.0000000  0  7G29G15G31G14G21G 1G25
  -8620394.13944  -6717176.60244  23667184.4034   23667186.1804
 -10994914.53844  -8567462.78744  20835432.0084   20835433.5024
   4579597.60244   3568515.55544  25352353.4664   25352358.0194
 -12051220.72744  -9390555.82544  23084249.9924   23084251.5514
 -13858332.73944 -10798678.96644  22970679.5894   22970680.8094
 -14752834.45644 -11495689.68744  22378443.9744   22378444.6374
 -24856616.52744 -19368763.48944  20648123.7814   20648123.7574
 96  7 10  4  2 30.0000000  0  7G29G15G31G14G21G 1G25
  -8689125.62444  -6770733.53044  23654104.9754   23654107.8284
 -11019351.77344  -8586504.76444  20830781.7034   20830783.2534
   4653578.56344   3626163.02644  25366431.3084
 -12132810.16644  -9454131.97444  23068723.7954   23068726.4974
 -13783043.19244 -10740011.76344  22985006.5804   22985008.3074
 -14682469.00544 -11440859.46944  22391834.0954   22391834.3304
 -24873172.11944 -19381663.93244  20644973.3294   20644973.2384
 96  7 10  4  3  0.0000000  0  7G29G15G31G14G21G 1G25
  -8757696.35144  -6824165.20844  23641056.2334   23641058.0924
 -11043191.59044  -8605081.22244  20826245.0294   20826246.5074
   4727397.29344   3683684.05044  25380478.9194   25380482.2694
 -12214386.85344  -9517698.19544  23053200.4604   23053202.5914
 -13707476.72144 -10681128.78744  22999386.3724   22999386.8474
 -14612034.83844 -11385975.70144  22405237.2344   22405237.8454
 -24889191.85744 -19394146.82644  20641924.9624   20641924.6154
 96  7 10  4  3 30.0000000  0  7G29G15G31G14G21G 1G25
  -8826060.18544  -6877435.65744  23628046.9564   23628049.2354
 -11066389.23644  -8623157.28544  20821830.5504   20821832.0654
   4801095.52344   3741111.19644  25394503.1834   25394509.4204
 -12295906.53044  -9581219.98744  23037687.7414   23037689.6344
 -13631595.54544 -10622000.58844  23013826.1004   23013827.0344
 -14541501.94544 -11331015.01044  22418659.1554   22418659.6954
 -24904646.45844 -19406189.35144  20638984.0024   20638983.6844
 96  7 10  4  4  0.0000000  0  7G29G15G31G14G21G 1G25
  -8894256.06944  -6930575.21744  23615069.9094   23615072.2974
 -11088977.15944  -8640758.24144  20817532.3804   20817533.8454
   4874648.72844   3798425.32544  25408500.0994   25408500.6424
 -12377396.47144  -9644718.61844  23022180.5864   23022182.8684
 -13555446.70844 -10562663.82644  23028316.7904   23028317.3734
 -14470909.18744 -11276007.66944  22432092.5054   22432092.8814
 -24919571.52444 -19417819.25344  20636143.6874   20636143.4964
 96  7 10  4  4 30.0000000  0  7G29G15G31G14G21G 1G25
  -8962286.63344  -6983585.96844  23602124.0124   23602125.6464
 -11110956.27544  -8657884.80144  20813349.9984   20813351.3824
   4948059.24844   3855628.23644  25422469.3924   25422473.6434
 -12458846.84644  -9708186.40644  23006681.2124   23006683.4674
 -13479032.57944 -10503120.33144  23042858.0604   23042859.0034
 -14400249.61944 -11220948.27244  22445538.5004   22445539.2984
 -24933982.99144 -19429048.95044  20633401.3754   20633401.2344
 96  7 10  4  5  0.0000000  0  7G29G15G31G14G21G 1G25
  -9030148.01144  -7036464.86944  23589210.2244   23589212.0854
 -11132328.79044  -8674538.68944  20809282.7654   20809284.3114
   5021329.89944   3912722.17244  25436412.2694   25436416.4204
 -12540267.88444  -9771631.32944  22991187.0654   22991188.9584
 -13402372.27744 -10443385.02944  23057445.9784   23057446.3664
 -14329526.06144 -11165839.00544  22458996.7474   22458997.1014
 -24947879.35044 -19439877.26244  20630756.9234   20630756.6504
 96  7 10  4  5 30.0000000  0  7G29G15G31G14G21G 1G25
  -9097848.26444  -7089218.22444  23576327.3344   23576329.1274
 -11153087.03944  -8690713.92344  20805332.4994   20805334.1114
   5094470.41644   3969714.71144  25450330.2994   25450337.1364
 -12621644.35044  -9835041.53344  22975701.5624   22975703.3174
 -13325470.99144 -10383461.94044  23072079.7074   23072080.2174
 -14258732.91544 -11110675.51944  22472468.1644   22472468.6534
 -24961253.80644 -19450298.89544  20628211.8754   20628211.6084
 96  7 10  4  6  0.0000000  0  7G29G15G31G14G21G 1G25
  -9165407.54744  -7141861.71944  23563471.0674   23563473.1164
 -11173242.26744  -8706419.27744  20801497.2464   20801498.5744
   5167454.73444   4026585.55144  25464218.9304
 -12702988.65844  -9898426.67644  22960222.3824   22960223.7544
 -13248346.07844 -10323364.60644  23086756.0594   23086757.3264
 -14187885.02444 -11055469.36544  22485950.0404   22485950.6464
 -24974106.81044 -19460314.20044  20625766.0384   20625765.6634
 96  7 10  4  6 30.0000000  0  7G29G15G31G14G21G 1G25
  -9232827.49544  -7194396.65344  23550641.4134   23550642.8864
 -11192792.45944  -8721653.17844  20797776.9784   20797778.3414
   5240258.90244                  25478073.3614
 -12784314.28644  -9961797.26344  22944746.7574   22944748.4564
 -13171008.96744 -10263101.91444  23101472.5994   23101473.2764
 -14116998.89944 -11000233.42544  22499439.3154   22499439.9564
 -24986427.92844 -19469915.04844  20623421.3784   20623421.0684
 96  7 10  4  7  0.0000000  0  7G29G15G31G14G21G 1G25
  -9300104.57144  -7246820.23944  23537839.1654   23537841.4444
 -11211714.85544  -8736397.89044  20794175.9284   20794177.4454
   5312890.83444                  25491895.1714
 -12865600.32544 -10025137.00244  22929278.4844   22929279.8214
 -13093449.17844 -10202665.72344  23116231.7324   23116232.0414
 -14046072.78244 -10944966.31944  22512936.0654   22512936.8454
 -24998182.68144 -19479074.57344  20621184.5144   20621184.1484
 96  7 10  4  7 30.0000000  0  7G29G15G31G14G21G 1G25
  -9367250.41544  -7299141.56844  23525061.6184   23525063.7674
 -11230012.72444  -8750655.95544  20790693.9424   20790695.6834
   5385335.86544                  25505680.6444
 -12946844.17844 -10088443.87144  22913818.2414   22913819.8364
 -13015661.12044 -10142051.65244  23131034.3914   23131036.3784
 -13975106.95144 -10889668.26744  22526440.4014   22526441.1644
 -25009371.81944 -19487793.36044  20619055.1914   20619054.8144
 96  7 10  4  8  0.0000000  0  7G29G15G31G14G21G 1G25
  -9434231.19044  -7351334.28144  23512315.2884   23512316.5024
 -11247672.74944  -8764417.00044  20787333.4584   20787334.8474
   5457601.50644                  25519432.1774
 -13028041.42744 -10151714.42844  22898366.5864   22898368.5934
 -12937625.28044 -10081244.48744  23145884.2314   23145885.2584
 -13904079.18244 -10834321.94744  22539956.5664   22539957.3984
 -25019984.59644 -19496063.03244  20617035.6644   20617035.3024
 96  7 10  4  8 30.0000000  0  7G29G15G31G14G21G 1G25
  -9501020.39444  -7403377.71044  23499605.8164   23499608.0944
 -11264682.71144  -8777671.50944  20784096.5764   20784098.0354
   5529716.59444                  25533155.4954
 -13109173.13944 -10214933.90444  22882927.6744   22882929.9814
 -12859321.75344 -10020228.73944  23160785.1704   23160785.3434
 -13832972.68644 -10778914.28544  22553487.6494   22553488.2884
 -25030023.51144 -19503885.54144  20615125.3664   20615125.0514
 96  7 10  4  9  0.0000000  0  7G29G15G31G14G21G 1G25
  -9567623.40744  -7455276.06344  23486931.8814   23486933.7424
 -11281056.74144  -8790430.48744  20780980.6464   20780981.9194
   5601683.75344                  25546850.5084
 -13190227.01344 -10278092.73244  22867503.6764   22867505.2534
 -12780739.58944  -9958995.88344  23175738.6024   23175739.7024
 -13761790.07644 -10723447.31444  22567033.2474   22567033.5164
 -25039511.49644 -19511278.75344  20613319.8104   20613319.4754
 96  7 10  4  9 30.0000000  0  7G29G15G31G14G21G 1G25
  -9634019.46944  -7507013.15644  23474296.8764   23474298.1524
 -11296793.94444  -8802693.23844  20777986.0484   20777987.5164
   5673509.47344   4420915.16144  25560518.5884
 -13271203.72744 -10341191.44644  22852094.3934   22852096.6194
 -12701868.83944  -9897538.15644  23190747.1224   23190748.3024
 -13690529.58344 -10667919.65644  22580593.7144   22580594.0484
 -25048452.55244 -19518245.78744  20611618.3334   20611618.0514
 96  7 10  4 10  0.0000000  0  7G29G15G31G14G21G 1G25
  -9700203.71944  -7558585.19644  23461702.1934   23461704.3414
 -11311883.27344  -8814451.14544  20775114.5984   20775115.9604
   5745222.30544                  25574165.3544
 -13352096.09644 -10404224.42144  22836701.0304   22836703.1264
 -12622703.54444  -9835850.90744  23205811.8554   23205812.9714
 -13619186.30144 -10612327.48444  22594169.9174   22594170.3734
 -25056843.66544 -19524784.29444  20610021.5034   20610021.0704
 96  7 10  4 10 30.0000000  0  7G29G15G31G14G21G 1G25
  -9766227.60644  -7610032.29844  23449138.3014   23449139.5654
 -11326354.93744  -8825727.76244  20772360.7134   20772362.0054
   5816791.30644   4532567.58444  25587784.6124   25587785.8094
 -13432936.27544 -10467216.72844  22821317.6214   22821319.3944
 -12543282.16844  -9773964.10744  23220925.5794   23220927.0294
 -13547803.08144 -10556704.18844  22607753.6374   22607753.9894
 -25064709.22044 -19530913.27544  20608524.7884   20608524.2684
 96  7 10  4 11  0.0000000  0  7G29G15G31G14G21G 1G25
  -9832116.95544  -7661374.55344  23436599.9584   23436601.8804
 -11340223.15244  -8836534.16444  20769721.6494   20769723.1754
   5888188.17244   4588200.09644  25601371.1894   25601371.7114
 -13513746.39344 -10530185.61244  22805939.8584   22805942.3804
 -12463623.75944  -9711892.62744  23236083.9564   23236084.2434
 -13476396.21144 -10501062.46444  22621341.9694   22621342.4424
 -25072051.68944 -19536634.66144  20607127.6054   20607127.2494
 96  7 10  4 11 30.0000000  0  7G29G15G31G14G21G 1G25
  -9897862.50344  -7712604.76544  23424088.8054   23424090.9794
 -11353480.74544  -8846864.75444  20767198.8554   20767200.2574
   5959411.94944   4643694.59044  25614924.7164   25614921.6884
 -13594537.55744 -10593139.73044  22790565.8784   22790568.1744
 -12383737.66644  -9649643.72044  23251285.5734   23251287.1994
 -13404958.54244 -10445396.73944  22634936.1344   22634936.7414
 -25078871.53744 -19541948.80844  20605829.8194   20605829.4214
 96  7 10  4 12  0.0000000  0  6G29G15G14G21G 1G25
  -9963473.38744  -7763730.05544  23411603.2654   23411605.1584
 -11366120.22144  -8856713.69444  20764793.6954   20764795.0814
 -13675303.19644 -10656073.96144  22775196.6654   22775198.2924
 -12303617.42244  -9587212.34844  23266531.8064   23266532.8604
 -13333470.83544 -10389692.02444  22648539.7254   22648540.3604
 -25085168.09744 -19546855.19844  20604631.4854   20604631.1724
 96  7 10  4 12 30.0000000  0  6G29G14G15G21G 1G25
 -10028950.80344  -7814751.35444  23399143.2524   23399144.7724
 -13756050.40944 -10718993.83144  22759831.0344   22759833.0164
 -11378155.68344  -8866091.97344  20762503.4104   20762504.8184
 -12223274.31044  -9524607.31644  23281820.6174   23281821.7004
 -13261945.63044 -10333958.08644  22662150.4884   22662151.1584
 -25090952.61944 -19551362.59644  20603530.6484   20603530.3614
 96  7 10  4 13  0.0000000  0  6G29G15G14G21G 1G25
 -10094232.59544  -7865620.21144  23386720.9184   23386722.1764
 -11389534.17344  -8874958.32444  20760338.0844   20760339.5684
 -13836715.06444 -10781849.37044  22744480.8504   22744483.1274
 -12142648.72244  -9461782.16744  23297163.0424   23297164.7634
 -13190332.38144 -10278155.55144  22675777.9344   22675778.2794
 -25096180.27444 -19555436.07544  20602535.9594   20602535.6534
 96  7 10  4 13 30.0000000  0  7G29G15G14G21G 1G22G25
 -10159301.67044  -7916323.31044  23374338.5014   23374339.7814
 -11400235.94444  -8883297.36044  20758301.5044   20758303.0324
 -13917279.14244 -10844626.54844  22729150.2014   22729151.8484
 -12061718.82844  -9398719.90444  23312563.3054   23312564.0694
 -13118613.17444 -10222270.45244  22689425.5354   22689425.9934
        -1.07254        -0.24954  25045488.5934   25045491.8484
 -25100839.33844 -19559066.49244  20601649.3974   20601649.0324
 96  7 10  4 14  0.0000000  0  7G29G15G14G21G 1G22G25
 -10224258.53844  -7966938.97344  23361977.3524   23361978.3874
 -11410356.03544  -8891183.13744  20756375.7484   20756377.2874
 -13997835.98344 -10907398.08144  22713820.8094   22713822.3574
 -11980570.44444  -9335487.37944  23328005.2404   23328007.1834
 -13046885.17344 -10166378.49744  22703074.9974   22703075.5544
    -86942.21844    -67746.48344  25028944.4514   25028947.5164
 -25105015.45544 -19562320.58944  20600854.6914   20600854.2864
 96  7 10  4 14 30.0000000  0  7G29G15G14G21G 1G22G25
 -10289032.23844  -8017411.90944  23349651.0964   23349652.9174
 -11419831.47644  -8898566.58944  20754572.7604   20754574.2404
 -14078319.39544 -10970112.40244  22698505.1614   22698507.2974
 -11899150.98644  -9272043.64644  23343499.0484   23343500.1564
 -12975106.58544 -10110447.11744  22716733.9584   22716734.6394
   -174022.62944   -135601.18744  25012373.1234   25012375.3884
 -25108632.26944 -19565138.86644  20600166.4394   20600165.9514
 96  7 10  4 15  0.0000000  0  7G29G15G14G21G 1G22G25
 -10353652.56144  -8067765.33744  23337354.4364   23337356.0174
 -11428681.91644  -8905463.02444  20752888.5174   20752889.8744
 -14158746.55244 -11032782.89644  22683200.4344   22683202.1594
 -11817483.07744  -9208406.30444  23359040.0324   23359039.6674
 -12903300.42944 -10054494.25944  22730398.2774   22730399.1544
   -261265.87544   -203582.80544  24995771.1594   24995774.2564
 -25111717.46744 -19567542.89644  20599579.2314   20599578.8724
 96  7 10  4 15 30.0000000  0  7G29G15G14G21G 1G22G25
 -10418111.43744  -8117992.92544  23325088.1804   23325088.8514
 -11436895.76944  -8911863.40244  20751325.4624   20751326.5484
 -14239101.57344 -11095397.16344  22667909.4634   22667910.5724
 -11735419.43044  -9144460.31044  23374636.2664
 -12831452.21244  -9998508.61144  22744070.6104   22744070.9504
   -348667.94844   -271688.19044  24979139.0984
 -25114251.79244 -19569517.66444  20599096.9784   20599096.4164
 96  7 10  4 16  0.0000000  0  7G29G15G14G21G 1G22G25
 -10482454.52944  -8168130.34544  23312843.8954   23312845.2564
 -11444514.67344  -8917800.20544  20749875.6554   20749876.8624
 -14319411.87744 -11157976.61744  22652626.7404   22652628.2004
 -11653242.69344  -9080426.15144  23390255.5004   23390256.1404
 -12759610.12344  -9942527.76744  22757741.6574   22757742.4084
   -436273.83644   -339952.49544  24962468.2984   24962468.1374
 -25116270.93244 -19571091.01044  20598712.7454   20598712.3534
 96  7 10  4 16 30.0000000  0  7G29G15G14G21G 1G22G25
 -10546671.78644  -8218169.69144  23300623.8154   23300625.4094
 -11451527.00544  -8923264.34244  20748541.2044   20748542.6654
 -14399655.36244 -11220503.98544  22637356.8204   22637358.9704
 -11570932.59544  -9016288.41544  23405918.5834   23405919.8414
 -12687761.11944  -9886541.52644  22771413.9924   22771414.5894
   -524076.46244   -408370.02344  24945759.8044   24945760.5444
 -25117766.71444 -19572256.53644  20598428.1234   20598427.7294
 96  7 10  4 17  0.0000000  0  7G29G15G14G21G 1G22G25
 -10610694.36744  -8268057.34844  23288440.9974   23288442.0874
 -11457856.93344  -8928196.73244  20747336.5714   20747338.1184
 -14479752.73544 -11282917.49744  22622114.7864   22622116.8554
 -11488346.06144  -8951935.26744  23421634.2804   23421635.0114
 -12615817.31844  -9830481.41144  22785104.5004   22785105.4664
   -612007.41144   -476887.53744  24929026.6494   24929031.1804
 -25118682.17744 -19572969.86444  20598253.8734   20598253.5224
 96  7 10  4 17 30.0000000  0  7G29G15G14G21G 1G22G25
 -10674564.33244  -8317826.08044  23276286.9124   23276288.6354
 -11463546.53344  -8932630.16644  20746253.9264   20746255.0544
 -14559757.55644 -11345258.88644  22606890.4984   22606892.3194
 -11405529.36944  -8887402.76644  23437393.5374   23437395.5044
 -12543822.55844  -9774381.59144  22798804.6394   22798805.1344
   -700097.42344   -545529.00544  24912263.4454   24912266.6644
 -25119047.43444 -19573254.46044  20598184.4744   20598183.9814
 96  7 10  4 18  0.0000000  0  7G29G15G14G21G 1G22G25
 -10738276.14944  -8367471.59044  23264162.6094   23264164.1944
 -11468592.41644  -8936562.00844  20745293.6694   20745294.7204
 -14639671.95744 -11407529.82144  22591683.1904   22591684.4524
 -11322473.00144  -8822683.47044  23453198.5124   23453198.6004
 -12471774.12444  -9718239.95144  22812515.1014   22812514.9814
   -788324.68744   -614277.41144  24895474.3604   24895477.7834
 -25118868.54944 -19573115.05444  20598218.4164   20598217.8884
 96  7 10  4 18 30.0000000  0  7G29G15G14G21G 1G22G25
 -10801839.83844  -8417001.66944  23252066.8074   23252067.9664
 -11473010.95844  -8940005.01044  20744452.9294   20744454.1944
 -14719522.35444 -11469750.87544  22576488.1344   22576489.8544
 -11239183.38844  -8757782.44644  23469048.3214   23469048.8444
 -12399685.80044  -9662067.23244  22826233.0394   22826233.5944
   -876710.26444   -683149.22844  24878655.3824   24878656.4194
 -25118179.70544 -19572578.27444  20598349.5304   20598348.9764
 96  7 10  4 19  0.0000000  0  7G29G15G14G21G 1G22G25
 -10865256.95344  -8466417.53444  23239998.7954   23240000.5204
 -11476804.44544  -8942960.95744  20743731.0244   20743732.2974
 -14799323.38044 -11531933.46044  22561302.3974   22561304.5584
 -11155648.83744  -8692690.56844  23484944.5894   23484945.6744
 -12327570.73344  -9605873.67044  22839956.0574   22839956.5234
   -965263.72844   -752151.82444  24861804.7804   24861805.1134
 -25116985.71244 -19571647.87444  20598576.6044   20598576.1884
 96  7 10  4 19 30.0000000  0  7G29G15G14G21G 1G22G25
 -10928505.08244  -8515701.72744  23227962.8934   23227965.0944
 -11479957.96944  -8945418.22944  20743130.8274   20743132.0724
 -14879065.70644 -11594070.30444  22546128.0124   22546129.7634
 -11071851.36844  -8627393.83844  23500890.6424   23500890.9014
 -12255414.17644  -9549647.78144  22853687.0254   22853686.6664
  -1053964.64844   -821269.38844  24844925.2744   24844926.6494
 -25115264.18444 -19570306.40844  20598904.2124   20598903.7574
 96  7 10  4 20  0.0000000  0  7G29G15G14G21G 1G22G25
 -10991588.41044  -8564857.49944  23215958.6504   23215959.5534
 -11482475.14744  -8947379.65344  20742651.7884   20742653.0244
 -14958748.45744 -11656160.72444  22530964.8934   22530966.6144
 -10987792.44944  -8561893.37444  23516886.3134   23516887.5844
 -12183227.09944  -9493398.10644  22867423.7004   22867424.0904
  -1142819.72344   -890507.06844  24828016.3074   24828017.3364
 -25113027.70944 -19568563.68644  20599329.8364   20599329.4354
 96  7 10  4 20 30.0000000  0  7G29G15G14G21G 1G22G25
 -11054493.76644  -8613874.60444  23203988.2464   23203989.2274
 -11484346.04244  -8948837.48044  20742295.8304   20742297.3314
 -15038362.52244 -11718197.62744  22515814.9414   22515816.1454
 -10903467.55544  -8496185.65944  23532933.0264   23532933.9624
 -12111000.37644  -9437117.54844  22881167.9934   22881168.3004
  -1231825.71844   -959862.29944  24811078.7404   24811081.7484
 -25110258.89444 -19566406.15644  20599856.5784   20599856.2684
 96  7 10  4 21  0.0000000  0  7G29G15G14G21G 1G22G25
 -11117234.25044  -8662763.22644  23192049.0704   23192050.8074
 -11485583.32844  -8949801.58344  20742060.2954   20742061.7834
 -15117917.69344 -11780188.63044  22500676.0264   22500676.9214
 -10818891.38744  -8430282.12344  23549027.4984   23549028.6534
 -12038745.15444  -9380814.77944  22894917.8414   22894918.6874
  -1320977.06944  -1029330.85944  24794113.8094   24794114.5304
 -25106942.05544 -19563821.59344  20600487.7074   20600487.3514
 96  7 10  4 21 30.0000000  0  7G29G15G14G21G 1G22G25
 -11179814.00344  -8711526.60444  23180140.4804   23180142.0524
 -11486193.93844  -8950277.37044  20741944.0764   20741945.4584
 -15197410.39244 -11842130.95044  22485549.1054   22485550.7024
 -10734085.91344  -8364199.92944  23565165.2944   23565164.6444
 -11966466.07744  -9324493.42044  22908671.9074   22908671.9034
  -1410263.91844  -1098904.93244  24777123.4534   24777124.9294
 -25103069.35944 -19560803.89644  20601224.7644   20601224.3564
 96  7 10  4 22  0.0000000  0  7G29G15G14G21G 1G22G25
 -11242227.47844  -8760160.41844  23168263.7204   23168265.0144
 -11486169.01344  -8950257.93944  20741948.8884   20741950.0644
 -15276827.98944 -11904014.75044  22470436.3104   22470437.8084
 -10649053.01344  -8297940.51644  23581346.3394   23581347.7834
 -11894155.23144  -9268147.30544  22922432.2874   22922432.6894
  -1499668.19944  -1168570.57444  24760110.3474   24760111.3134
 -25098633.88444 -19557347.66844  20602068.8854   20602068.4444
 96  7 10  4 22 30.0000000  0  7G29G15G14G21G 1G22G25
 -11304467.02544  -8808658.71444  23156419.7734   23156420.6154
 -11485502.26644  -8949738.38944  20742075.8484   20742076.9404
 -15356168.42144 -11965838.42144  22455338.1924   22455339.5494
 -10563786.93444  -8231499.41644  23597571.8344   23597572.7644
 -11821792.51544  -9211760.76844  22936202.4574   22936202.8414
  -1589180.63244  -1238320.47344  24743076.7874   24743078.7934
 -25093629.65544 -19553448.25444  20603021.0634   20603020.7114
 96  7 10  4 23  0.0000000  0  7G29G15G14G21G 1G22G25
 -11366544.11744  -8857030.42744  23144606.7974   23144608.2404
 -11484197.39544  -8948721.59744  20742324.1114   20742325.3324
 -15435431.10344 -12027601.51344  22440255.0354   22440256.5814
 -10478295.42244  -8164882.61344  23613840.2844   23613841.4444
 -11749390.93644  -9155343.95944  22949979.9994   22949980.6874
  -1678800.50744  -1308154.06344  24726022.1734   24726024.5844
 -25088063.30844 -19549110.83044  20604080.2934   20604079.8004
 96  7 10  4 23 30.0000000  0  7G29G15G14G21G 1G22G25
 -11428467.21744  -8905282.13244  23132823.0334   23132824.6004
 -11482255.79844  -8947208.65244  20742693.5374   20742694.8104
 -15514601.77644 -12089292.91144  22425189.3494   22425191.3684
 -10392583.84944  -8098094.38144  23630150.7554   23630152.5194
 -11676954.14144  -9098899.69344  22963764.3334   22963765.0194
  -1768538.75444  -1378079.95944  24708945.3434   24708945.8114
 -25081964.08644 -19544358.17244  20605241.0894   20605240.4954
 96  7 10  4 24  0.0000000  0  7G29G15G14G21G 1G22G25
 -11490236.51944  -8953414.00544  23121068.7684   23121070.0434
 -11479673.03944  -8945196.10444  20743184.8974   20743186.1744
 -15593666.59844 -12150901.82844  22410143.6054   22410145.5044
 -10306638.87444  -8031124.26944  23646505.4754   23646506.4734
 -11604477.56944  -9042424.43944  22977556.1344   22977556.3014
  -1858393.21644  -1448096.38444  24691846.8854   24691849.4024
 -25075348.35844 -19539203.04444  20606499.9004   20606499.5284
 96  7 10  4 24 30.0000000  0  7G29G15G14G21G 1G22G25
 -11551852.12944  -9001426.10444  23109343.4244   23109344.7424
 -11476447.73044  -8942682.86544  20743798.6294   20743800.0974
 -15672609.99344 -12212416.12744  22395121.1574   22395123.1344
 -10220458.02144  -7963970.34444  23662905.0054   23662904.5174
 -11531972.82044  -8985927.21444  22991353.3354   22991353.7274
  -1948374.15344  -1518211.33944  24674724.2764   24674724.8054
 -25068211.17444 -19533641.58944  20607857.8714   20607857.7244
 96  7 10  4 25  0.0000000  0  7G29G15G14G21G 1G22G25
 -11613311.61844  -9049316.55044  23097648.0324   23097649.2454
 -11472576.92244  -8939666.63844  20744535.2794   20744536.7644
 -15751410.49244 -12273819.07244  22380125.8484   22380127.6744
 -10134035.07244  -7896627.77444  23679350.5374   23679351.3804
 -11459449.85444  -8929415.81344  23005154.0134   23005154.3284
  -2038479.45144  -1588423.21544  24657577.4074   24657579.2124
 -25060545.92844 -19527668.65844  20609316.5704   20609316.1704
 96  7 10  4 25 30.0000000  0  7G29G15G14G21G 1G22G25
 -11674624.39944  -9097092.67944  23085980.6944   23085981.8924
 -11468074.68644  -8936158.39244  20745391.9884   20745393.2704
 -15830083.65244 -12335122.79544  22365154.7974   22365156.5664
 -10047374.68044  -7829100.18444  23695841.7134   23695840.9874
 -11386911.71344  -8872892.57744  23018957.4764   23018957.8964
  -2128724.54544  -1658744.00144  24640404.2164   24640407.1274
 -25052375.80944 -19521302.31844  20610871.3584   20610870.9374
 96  7 10  4 26  0.0000000  0  7G29G15G14G21G 1G22G25
 -11735778.03544  -9144744.79544  23074343.7344   23074344.9964
 -11462936.27544  -8932154.42844  20746369.7334   20746371.2404
 -15908641.96044 -12396337.01744  22350205.8504   22350207.7834
  -9960458.25444  -7761373.12944  23712381.5784   23712382.8984
 -11314351.27944  -8816351.98244  23032765.2364   23032765.3464
  -2219101.73144  -1729167.70544  24623206.2894   24623207.5014
 -25043676.49244 -19514523.61744  20612526.6644   20612526.3904
 96  7 10  4 26 30.0000000  0  7G29G15G14G21G 1G22G25
 -11796773.83044  -9192273.90344  23062736.5874   23062737.1014
 -11457164.55944  -8927656.98144  20747468.0934   20747469.5584
 -15987103.08144 -12457475.51444  22335275.1004   22335276.7764
  -9873286.80144  -7693447.31344  23728969.6534   23728968.6994
 -11241763.11944  -8759789.77244  23046578.3224   23046578.8594
  -2309615.01644  -1799697.48744  24605982.3624   24605984.8994
 -25034438.21644 -19507324.95044  20614284.7274   20614284.3714
 96  7 10  4 27  0.0000000  0  7G29G15G14G21G 1G22G25
 -11857616.91144  -9239684.02144  23051158.2314   23051159.1914
 -11450769.83144  -8922674.07444  20748685.0924   20748686.5084
 -16065485.55744 -12518552.73044  22320359.3864   22320360.8504
  -9785868.52444  -7625329.18644  23745604.5464   23745606.9814
 -11169135.85544  -8703197.10144  23060398.8014   23060399.1774
  -2400265.51644  -1870334.17044  24588731.9984   24588732.8284
 -25024675.39444 -19499717.54344  20616142.5814   20616142.1514
 96  7 10  4 27 30.0000000  0  7G29G15G14G21G 1G22G25
 -11918298.23544  -9286968.10444  23039610.8674   23039612.3134
 -11443744.81844  -8917200.03744  20750021.8774   20750023.1744
 -16143790.63344 -12579569.63244  22305458.4894   22305459.8324
  -9698194.84844  -7557012.02144  23762288.5154   23762289.5814
 -11096452.94244  -8646561.06544  23074229.8024   23074229.8484
  -2491035.11044  -1941063.65644  24571458.6374   24571459.6944
 -25014373.13644 -19491689.79844  20618102.9154   20618102.5654
 96  7 10  4 28  0.0000000  0  7G29G15G14G21G 1G22G25
 -11978817.17344  -9334125.64844  23028094.5044   23028095.8814
 -11436085.66844  -8911231.86744  20751479.3104   20751480.7194
 -16222016.84144 -12640525.07644  22290572.4744   22290573.9044
  -9610275.78044  -7488503.66744  23779019.1494   23779018.3874
 -11023710.94744  -8589878.98744  23088072.0824   23088071.8304
  -2581902.03544  -2011868.98544  24554167.7534   24554170.1734
 -25003517.76144 -19483231.05344  20620168.7034   20620168.3394
 96  7 10  4 28 30.0000000  0  7G29G15G14G21G 1G22G25
 -12039191.99144  -9381170.89344  23016605.4194   23016606.9854
 -11427802.53044  -8904777.46744  20753055.4184   20753056.9504
 -16300172.74544 -12701425.74544  22275699.7834   22275701.4314
  -9522148.02544  -7419832.68044  23795789.1984   23795791.1114
 -10950925.16944  -8533162.80044  23101922.8454   23101922.6044
  -2672870.91644  -2082753.73244  24536857.2384   24536857.8624
 -24992132.02644 -19474359.04044  20622335.2684   20622334.8704
 96  7 10  4 29  0.0000000  0  7G29G15G14G21G 1G22G25
 -12099422.29144  -9428103.52744  23005143.9584   23005145.1474
 -11418894.00144  -8897835.74944  20754750.7284   20754752.0644
 -16378243.67844 -12762260.20044  22260843.3414   22260844.9974
  -9433818.66044  -7351004.60944  23812597.2854   23812597.7144
 -10878108.40544  -8476422.45944  23115779.3244   23115781.0824
  -2763928.98544  -2153708.00244  24519529.3674   24519532.4944
 -24980215.56044 -19465073.47244  20624602.8464   20624602.3774
 96  7 10  4 29 30.0000000  0  7G29G15G14G21G 1G22G25
 -12159496.67344  -9474914.65344  22993712.1834   22993713.8954
 -11409340.17544  -8890391.20544  20756568.8464   20756570.1294
 -16456209.85644 -12823013.02344  22246006.8534   22246008.4664
  -9345272.16044  -7282007.34844  23829447.4274   23829449.4014
 -10805258.68844  -8419656.44444  23129642.3044   23129642.7084
  -2855050.76244  -2224711.90844  24502189.1934   24502191.0464
 -24967763.50444 -19455370.55944  20626972.3764   20626971.9114
 96  7 10  4 30  0.0000000  0  7G29G15G14G21G 1G22G25
 -12219425.73944  -9521612.55344  22982308.4024   22982309.0344
 -11399143.38744  -8882445.65244  20758509.2404   20758510.4594
 -16534065.06044 -12883679.38244  22231191.5184   22231193.2354
  -9256517.20844  -7212847.62144  23846336.7964   23846339.2264
 -10732390.58744  -8362876.09944  23143508.5774   23143508.3264
  -2946245.16944  -2295772.41444  24484835.0074   24484837.1804
 -24954796.91744 -19445266.71644  20629439.8624   20629439.3934
 96  7 10  4 30 30.0000000  0  7G29G15G14G21G 1G22G25
 -12279200.71744  -9568190.38744  22970933.5284   22970934.5484
 -11388308.31744  -8874002.73444  20760571.0794   20760572.2854
 -16611794.04844 -12944247.38444  22216400.1344   22216401.6924
  -9167551.35344  -7143523.57044  23863266.4214   23863266.0624
 -10659525.22244  -8306097.88644  23157374.5414   23157375.8964
  -3037529.50444  -2366903.05244  24467464.4144   24467463.8964
 -24941325.95344 -19434769.85244  20632003.3354   20632002.9904
